﻿<?xml version="1.0" encoding="utf-8"?><gpx creator="Garmin Desktop App" version="1.1" xsi:schemaLocation="http://www.topografix.com/GPX/1/1 http://www.topografix.com/GPX/1/1/gpx.xsd http://www.garmin.com/xmlschemas/WaypointExtension/v1 http://www8.garmin.com/xmlschemas/WaypointExtensionv1.xsd http://www.garmin.com/xmlschemas/TrackPointExtension/v1 http://www.garmin.com/xmlschemas/TrackPointExtensionv1.xsd http://www.garmin.com/xmlschemas/GpxExtensions/v3 http://www8.garmin.com/xmlschemas/GpxExtensionsv3.xsd http://www.garmin.com/xmlschemas/ActivityExtension/v1 http://www8.garmin.com/xmlschemas/ActivityExtensionv1.xsd http://www.garmin.com/xmlschemas/AdventuresExtensions/v1 http://www8.garmin.com/xmlschemas/AdventuresExtensionv1.xsd http://www.garmin.com/xmlschemas/PressureExtension/v1 http://www.garmin.com/xmlschemas/PressureExtensionv1.xsd http://www.garmin.com/xmlschemas/TripExtensions/v1 http://www.garmin.com/xmlschemas/TripExtensionsv1.xsd http://www.garmin.com/xmlschemas/TripMetaDataExtensions/v1 http://www.garmin.com/xmlschemas/TripMetaDataExtensionsv1.xsd http://www.garmin.com/xmlschemas/ViaPointTransportationModeExtensions/v1 http://www.garmin.com/xmlschemas/ViaPointTransportationModeExtensionsv1.xsd http://www.garmin.com/xmlschemas/CreationTimeExtension/v1 http://www.garmin.com/xmlschemas/CreationTimeExtensionsv1.xsd http://www.garmin.com/xmlschemas/AccelerationExtension/v1 http://www.garmin.com/xmlschemas/AccelerationExtensionv1.xsd http://www.garmin.com/xmlschemas/PowerExtension/v1 http://www.garmin.com/xmlschemas/PowerExtensionv1.xsd http://www.garmin.com/xmlschemas/VideoExtension/v1 http://www.garmin.com/xmlschemas/VideoExtensionv1.xsd" xmlns="http://www.topografix.com/GPX/1/1" xmlns:xsi="http://www.w3.org/2001/XMLSchema-instance" xmlns:wptx1="http://www.garmin.com/xmlschemas/WaypointExtension/v1" xmlns:gpxtrx="http://www.garmin.com/xmlschemas/GpxExtensions/v3" xmlns:gpxtpx="http://www.garmin.com/xmlschemas/TrackPointExtension/v1" xmlns:gpxx="http://www.garmin.com/xmlschemas/GpxExtensions/v3" xmlns:trp="http://www.garmin.com/xmlschemas/TripExtensions/v1" xmlns:adv="http://www.garmin.com/xmlschemas/AdventuresExtensions/v1" xmlns:prs="http://www.garmin.com/xmlschemas/PressureExtension/v1" xmlns:tmd="http://www.garmin.com/xmlschemas/TripMetaDataExtensions/v1" xmlns:vptm="http://www.garmin.com/xmlschemas/ViaPointTransportationModeExtensions/v1" xmlns:ctx="http://www.garmin.com/xmlschemas/CreationTimeExtension/v1" xmlns:gpxacc="http://www.garmin.com/xmlschemas/AccelerationExtension/v1" xmlns:gpxpx="http://www.garmin.com/xmlschemas/PowerExtension/v1" xmlns:vidx1="http://www.garmin.com/xmlschemas/VideoExtension/v1">

  <metadata>
    <link href="http://www.garmin.com">
      <text>Garmin International</text>
    </link>
    <time>2026-04-30T04:59:48Z</time>
    <bounds maxlat="42.834539003670216" maxlon="0.938032027333975" minlat="42.805151967331767" minlon="0.893366960808635" />
  </metadata>

  <trk>
    <name>Couloir du Tartereau 2026-04-29</name>
    <desc>comment ...</desc>
    <link href="urn:ipg_trc:dt=1777439904.805000;coul=18446744073709486080" />
    <extensions>
      <gpxx:TrackExtension>
        <gpxx:DisplayColor>Yellow</gpxx:DisplayColor>
      </gpxx:TrackExtension>
    </extensions>
    <trkseg>
      <trkpt lat="42.833032021299005" lon="0.937598012387753">
        <ele>946</ele>
        <time>2026-04-29T05:18:26Z</time>
      </trkpt>
      <trkpt lat="42.833031015470624" lon="0.937599018216133">
        <ele>946</ele>
        <time>2026-04-29T05:18:28Z</time>
      </trkpt>
      <trkpt lat="42.832994973286986" lon="0.937565993517637">
        <ele>942</ele>
        <time>2026-04-29T05:18:54Z</time>
      </trkpt>
      <trkpt lat="42.832955997437239" lon="0.937536992132664">
        <ele>943</ele>
        <time>2026-04-29T05:21:50Z</time>
      </trkpt>
      <trkpt lat="42.832955997437239" lon="0.937584014609456">
        <ele>943</ele>
        <time>2026-04-29T05:22:22Z</time>
      </trkpt>
      <trkpt lat="42.832953985780478" lon="0.937582002952695">
        <ele>942</ele>
        <time>2026-04-29T05:23:32Z</time>
      </trkpt>
      <trkpt lat="42.83293797634542" lon="0.937631959095597">
        <ele>941</ele>
        <time>2026-04-29T05:24:46Z</time>
      </trkpt>
      <trkpt lat="42.832887014374137" lon="0.937787024304271">
        <ele>941</ele>
        <time>2026-04-29T05:24:58Z</time>
      </trkpt>
      <trkpt lat="42.832869999110699" lon="0.937835974618793">
        <ele>942</ele>
        <time>2026-04-29T05:25:02Z</time>
      </trkpt>
      <trkpt lat="42.832835968583822" lon="0.937952985987067">
        <ele>942</ele>
        <time>2026-04-29T05:25:20Z</time>
      </trkpt>
      <trkpt lat="42.832810990512371" lon="0.937993973493576">
        <ele>941</ele>
        <time>2026-04-29T05:25:26Z</time>
      </trkpt>
      <trkpt lat="42.832782994955778" lon="0.938032027333975">
        <ele>941</ele>
        <time>2026-04-29T05:25:34Z</time>
      </trkpt>
      <trkpt lat="42.832750976085663" lon="0.938019035384059">
        <ele>943</ele>
        <time>2026-04-29T05:25:40Z</time>
      </trkpt>
      <trkpt lat="42.832655003294349" lon="0.937994979321957">
        <ele>944</ele>
        <time>2026-04-29T05:25:56Z</time>
      </trkpt>
      <trkpt lat="42.832460040226579" lon="0.937975030392408">
        <ele>946</ele>
        <time>2026-04-29T05:26:14Z</time>
      </trkpt>
      <trkpt lat="42.832359038293362" lon="0.9379150159657">
        <ele>950</ele>
        <time>2026-04-29T05:26:22Z</time>
      </trkpt>
      <trkpt lat="42.832182012498379" lon="0.937818959355354">
        <ele>962</ele>
        <time>2026-04-29T05:26:36Z</time>
      </trkpt>
      <trkpt lat="42.832089979201555" lon="0.937800016254187">
        <ele>961</ele>
        <time>2026-04-29T05:26:52Z</time>
      </trkpt>
      <trkpt lat="42.831867020577192" lon="0.937668001279235">
        <ele>958</ele>
        <time>2026-04-29T05:27:16Z</time>
      </trkpt>
      <trkpt lat="42.831716984510422" lon="0.937488041818142">
        <ele>956</ele>
        <time>2026-04-29T05:27:34Z</time>
      </trkpt>
      <trkpt lat="42.831635009497404" lon="0.937397014349699">
        <ele>962</ele>
        <time>2026-04-29T05:27:42Z</time>
      </trkpt>
      <trkpt lat="42.831539958715439" lon="0.937360972166061">
        <ele>962</ele>
        <time>2026-04-29T05:27:54Z</time>
      </trkpt>
      <trkpt lat="42.831437028944492" lon="0.937347980216146">
        <ele>962</ele>
        <time>2026-04-29T05:28:04Z</time>
      </trkpt>
      <trkpt lat="42.831350024789572" lon="0.937323002144694">
        <ele>962</ele>
        <time>2026-04-29T05:28:12Z</time>
      </trkpt>
      <trkpt lat="42.831252040341496" lon="0.937329959124327">
        <ele>963</ele>
        <time>2026-04-29T05:28:24Z</time>
      </trkpt>
      <trkpt lat="42.831146009266376" lon="0.937383016571403">
        <ele>963</ele>
        <time>2026-04-29T05:28:38Z</time>
      </trkpt>
      <trkpt lat="42.831041989848018" lon="0.937405982986093">
        <ele>965</ele>
        <time>2026-04-29T05:28:48Z</time>
      </trkpt>
      <trkpt lat="42.830714005976915" lon="0.937333982437849">
        <ele>964</ele>
        <time>2026-04-29T05:29:20Z</time>
      </trkpt>
      <trkpt lat="42.830623984336853" lon="0.937325013801456">
        <ele>963</ele>
        <time>2026-04-29T05:29:28Z</time>
      </trkpt>
      <trkpt lat="42.830525999888778" lon="0.937256030738354">
        <ele>963</ele>
        <time>2026-04-29T05:29:36Z</time>
      </trkpt>
      <trkpt lat="42.830456010997295" lon="0.937176989391446">
        <ele>965</ele>
        <time>2026-04-29T05:29:42Z</time>
      </trkpt>
      <trkpt lat="42.830363977700472" lon="0.937088979408145">
        <ele>967</ele>
        <time>2026-04-29T05:29:50Z</time>
      </trkpt>
      <trkpt lat="42.830278985202312" lon="0.937029970809817">
        <ele>970</ele>
        <time>2026-04-29T05:30:02Z</time>
      </trkpt>
      <trkpt lat="42.830179994925857" lon="0.936982026323676">
        <ele>971</ele>
        <time>2026-04-29T05:30:22Z</time>
      </trkpt>
      <trkpt lat="42.830070024356246" lon="0.936983032152057">
        <ele>973</ele>
        <time>2026-04-29T05:30:40Z</time>
      </trkpt>
      <trkpt lat="42.82997002825141" lon="0.936973979696631">
        <ele>974</ele>
        <time>2026-04-29T05:30:50Z</time>
      </trkpt>
      <trkpt lat="42.829871959984303" lon="0.936999963596463">
        <ele>974</ele>
        <time>2026-04-29T05:31:04Z</time>
      </trkpt>
      <trkpt lat="42.829773975536227" lon="0.937017984688282">
        <ele>973</ele>
        <time>2026-04-29T05:31:16Z</time>
      </trkpt>
      <trkpt lat="42.829647995531559" lon="0.937080010771751">
        <ele>975</ele>
        <time>2026-04-29T05:31:28Z</time>
      </trkpt>
      <trkpt lat="42.82954003661871" lon="0.937066012993455">
        <ele>979</ele>
        <time>2026-04-29T05:31:40Z</time>
      </trkpt>
      <trkpt lat="42.82941397279501" lon="0.937065007165074">
        <ele>980</ele>
        <time>2026-04-29T05:31:50Z</time>
      </trkpt>
      <trkpt lat="42.82930601388216" lon="0.937085039913654">
        <ele>982</ele>
        <time>2026-04-29T05:31:58Z</time>
      </trkpt>
      <trkpt lat="42.829210963100195" lon="0.937171038240194">
        <ele>984</ele>
        <time>2026-04-29T05:32:06Z</time>
      </trkpt>
      <trkpt lat="42.829095963388681" lon="0.93718302436173">
        <ele>986</ele>
        <time>2026-04-29T05:32:14Z</time>
      </trkpt>
      <trkpt lat="42.828985992819071" lon="0.937165003269911">
        <ele>990</ele>
        <time>2026-04-29T05:32:22Z</time>
      </trkpt>
      <trkpt lat="42.828887002542615" lon="0.937142036855221">
        <ele>992</ele>
        <time>2026-04-29T05:32:34Z</time>
      </trkpt>
      <trkpt lat="42.828671000897884" lon="0.937173971906304">
        <ele>992</ele>
        <time>2026-04-29T05:32:58Z</time>
      </trkpt>
      <trkpt lat="42.82857402227819" lon="0.937158968299627">
        <ele>994</ele>
        <time>2026-04-29T05:33:10Z</time>
      </trkpt>
      <trkpt lat="42.828465979546309" lon="0.93714396469295">
        <ele>995</ele>
        <time>2026-04-29T05:33:22Z</time>
      </trkpt>
      <trkpt lat="42.828353997319937" lon="0.937102977186441">
        <ele>998</ele>
        <time>2026-04-29T05:33:36Z</time>
      </trkpt>
      <trkpt lat="42.828183006495237" lon="0.936980014666915">
        <ele>1001</ele>
        <time>2026-04-29T05:34:02Z</time>
      </trkpt>
      <trkpt lat="42.828106982633471" lon="0.936860991641879">
        <ele>1001</ele>
        <time>2026-04-29T05:34:12Z</time>
      </trkpt>
      <trkpt lat="42.828036993741989" lon="0.936772981658578">
        <ele>1007</ele>
        <time>2026-04-29T05:34:22Z</time>
      </trkpt>
      <trkpt lat="42.827958958223462" lon="0.936673991382122">
        <ele>1006</ele>
        <time>2026-04-29T05:34:36Z</time>
      </trkpt>
      <trkpt lat="42.827882012352347" lon="0.936571983620524">
        <ele>1002</ele>
        <time>2026-04-29T05:34:52Z</time>
      </trkpt>
      <trkpt lat="42.827768018469214" lon="0.936336033046246">
        <ele>1002</ele>
        <time>2026-04-29T05:35:18Z</time>
      </trkpt>
      <trkpt lat="42.827726025134325" lon="0.936193959787488">
        <ele>1001</ele>
        <time>2026-04-29T05:35:32Z</time>
      </trkpt>
      <trkpt lat="42.827632986009121" lon="0.936099998652935">
        <ele>993</ele>
        <time>2026-04-29T05:35:48Z</time>
      </trkpt>
      <trkpt lat="42.827433999627829" lon="0.936004025861621">
        <ele>993</ele>
        <time>2026-04-29T05:36:10Z</time>
      </trkpt>
      <trkpt lat="42.827339032664895" lon="0.935980975627899">
        <ele>993</ele>
        <time>2026-04-29T05:36:20Z</time>
      </trkpt>
      <trkpt lat="42.827238030731678" lon="0.935936970636249">
        <ele>996</ele>
        <time>2026-04-29T05:36:28Z</time>
      </trkpt>
      <trkpt lat="42.826913986355066" lon="0.935815013945103">
        <ele>1019</ele>
        <time>2026-04-29T05:36:54Z</time>
      </trkpt>
      <trkpt lat="42.826820025220513" lon="0.935805961489677">
        <ele>1021</ele>
        <time>2026-04-29T05:37:06Z</time>
      </trkpt>
      <trkpt lat="42.826721034944057" lon="0.935818031430244">
        <ele>1023</ele>
        <time>2026-04-29T05:37:22Z</time>
      </trkpt>
      <trkpt lat="42.826615003868937" lon="0.935796992853284">
        <ele>1021</ele>
        <time>2026-04-29T05:37:36Z</time>
      </trkpt>
      <trkpt lat="42.826524982228875" lon="0.935746030882001">
        <ele>1018</ele>
        <time>2026-04-29T05:37:48Z</time>
      </trkpt>
      <trkpt lat="42.826445018872619" lon="0.935678975656629">
        <ele>1018</ele>
        <time>2026-04-29T05:37:58Z</time>
      </trkpt>
      <trkpt lat="42.826349968090653" lon="0.935623990371823">
        <ele>1018</ele>
        <time>2026-04-29T05:38:08Z</time>
      </trkpt>
      <trkpt lat="42.826247038319707" lon="0.935589037835598">
        <ele>1020</ele>
        <time>2026-04-29T05:38:20Z</time>
      </trkpt>
      <trkpt lat="42.826136983931065" lon="0.935581997036934">
        <ele>1024</ele>
        <time>2026-04-29T05:38:34Z</time>
      </trkpt>
      <trkpt lat="42.826035981997848" lon="0.935548972338438">
        <ele>1027</ele>
        <time>2026-04-29T05:38:46Z</time>
      </trkpt>
      <trkpt lat="42.825944032520056" lon="0.935571016743779">
        <ele>1028</ele>
        <time>2026-04-29T05:38:58Z</time>
      </trkpt>
      <trkpt lat="42.825854010879993" lon="0.935643017292023">
        <ele>1031</ele>
        <time>2026-04-29T05:39:12Z</time>
      </trkpt>
      <trkpt lat="42.825720990076661" lon="0.935480995103717">
        <ele>1034</ele>
        <time>2026-04-29T05:39:34Z</time>
      </trkpt>
      <trkpt lat="42.825641026720405" lon="0.935428021475673">
        <ele>1036</ele>
        <time>2026-04-29T05:39:42Z</time>
      </trkpt>
      <trkpt lat="42.825533989816904" lon="0.935392985120416">
        <ele>1039</ele>
        <time>2026-04-29T05:39:58Z</time>
      </trkpt>
      <trkpt lat="42.825360987335443" lon="0.935178995132446">
        <ele>1042</ele>
        <time>2026-04-29T05:40:30Z</time>
      </trkpt>
      <trkpt lat="42.825252022594213" lon="0.934937009587884">
        <ele>1042</ele>
        <time>2026-04-29T05:40:56Z</time>
      </trkpt>
      <trkpt lat="42.825189996510744" lon="0.934794014319777">
        <ele>1040</ele>
        <time>2026-04-29T05:41:12Z</time>
      </trkpt>
      <trkpt lat="42.825185973197222" lon="0.934670967981219">
        <ele>1041</ele>
        <time>2026-04-29T05:41:22Z</time>
      </trkpt>
      <trkpt lat="42.825146997347474" lon="0.934548005461693">
        <ele>1044</ele>
        <time>2026-04-29T05:41:38Z</time>
      </trkpt>
      <trkpt lat="42.825113972648978" lon="0.934428982436657">
        <ele>1053</ele>
        <time>2026-04-29T05:42:02Z</time>
      </trkpt>
      <trkpt lat="42.825044989585876" lon="0.934297973290086">
        <ele>1055</ele>
        <time>2026-04-29T05:42:22Z</time>
      </trkpt>
      <trkpt lat="42.824980029836297" lon="0.934165036305785">
        <ele>1057</ele>
        <time>2026-04-29T05:42:38Z</time>
      </trkpt>
      <trkpt lat="42.824950022622943" lon="0.934110973030329">
        <ele>1058</ele>
        <time>2026-04-29T05:42:44Z</time>
      </trkpt>
      <trkpt lat="42.82492496073246" lon="0.934035032987595">
        <ele>1060</ele>
        <time>2026-04-29T05:42:50Z</time>
      </trkpt>
      <trkpt lat="42.824886990711093" lon="0.933955991640687">
        <ele>1062</ele>
        <time>2026-04-29T05:42:56Z</time>
      </trkpt>
      <trkpt lat="42.824854971840978" lon="0.933913998305798">
        <ele>1063</ele>
        <time>2026-04-29T05:43:00Z</time>
      </trkpt>
      <trkpt lat="42.82481599599123" lon="0.933850966393948">
        <ele>1064</ele>
        <time>2026-04-29T05:43:06Z</time>
      </trkpt>
      <trkpt lat="42.824704013764858" lon="0.933688022196293">
        <ele>1064</ele>
        <time>2026-04-29T05:43:24Z</time>
      </trkpt>
      <trkpt lat="42.82466696575284" lon="0.933652985841036">
        <ele>1065</ele>
        <time>2026-04-29T05:43:28Z</time>
      </trkpt>
      <trkpt lat="42.824646010994911" lon="0.933602023869753">
        <ele>1066</ele>
        <time>2026-04-29T05:43:32Z</time>
      </trkpt>
      <trkpt lat="42.824647016823292" lon="0.933546032756567">
        <ele>1067</ele>
        <time>2026-04-29T05:43:36Z</time>
      </trkpt>
      <trkpt lat="42.824634024873376" lon="0.933484006673098">
        <ele>1067</ele>
        <time>2026-04-29T05:43:42Z</time>
      </trkpt>
      <trkpt lat="42.824625978246331" lon="0.933433966711164">
        <ele>1069</ele>
        <time>2026-04-29T05:43:48Z</time>
      </trkpt>
      <trkpt lat="42.82460100017488" lon="0.933377975597978">
        <ele>1069</ele>
        <time>2026-04-29T05:43:54Z</time>
      </trkpt>
      <trkpt lat="42.824534028768539" lon="0.933285020291805">
        <ele>1071</ele>
        <time>2026-04-29T05:44:04Z</time>
      </trkpt>
      <trkpt lat="42.824505027383566" lon="0.933240009471774">
        <ele>1071</ele>
        <time>2026-04-29T05:44:08Z</time>
      </trkpt>
      <trkpt lat="42.824432021006942" lon="0.933150993660092">
        <ele>1073</ele>
        <time>2026-04-29T05:44:16Z</time>
      </trkpt>
      <trkpt lat="42.824371000751853" lon="0.933063989505172">
        <ele>1075</ele>
        <time>2026-04-29T05:44:24Z</time>
      </trkpt>
      <trkpt lat="42.824319032952189" lon="0.93297497369349">
        <ele>1074</ele>
        <time>2026-04-29T05:44:36Z</time>
      </trkpt>
      <trkpt lat="42.824297994375229" lon="0.932930968701839">
        <ele>1073</ele>
        <time>2026-04-29T05:44:42Z</time>
      </trkpt>
      <trkpt lat="42.824263963848352" lon="0.932901967316866">
        <ele>1073</ele>
        <time>2026-04-29T05:44:48Z</time>
      </trkpt>
      <trkpt lat="42.824213001877069" lon="0.932811023667455">
        <ele>1074</ele>
        <time>2026-04-29T05:44:58Z</time>
      </trkpt>
      <trkpt lat="42.824190035462379" lon="0.932756960391998">
        <ele>1075</ele>
        <time>2026-04-29T05:45:04Z</time>
      </trkpt>
      <trkpt lat="42.824158016592264" lon="0.932710021734238">
        <ele>1076</ele>
        <time>2026-04-29T05:45:10Z</time>
      </trkpt>
      <trkpt lat="42.824103031307459" lon="0.93260801397264">
        <ele>1075</ele>
        <time>2026-04-29T05:45:22Z</time>
      </trkpt>
      <trkpt lat="42.824081992730498" lon="0.932545987889171">
        <ele>1076</ele>
        <time>2026-04-29T05:45:28Z</time>
      </trkpt>
      <trkpt lat="42.824065983295441" lon="0.932503994554281">
        <ele>1076</ele>
        <time>2026-04-29T05:45:32Z</time>
      </trkpt>
      <trkpt lat="42.824049973860383" lon="0.932460995391011">
        <ele>1076</ele>
        <time>2026-04-29T05:45:36Z</time>
      </trkpt>
      <trkpt lat="42.824017032980919" lon="0.932347001507878">
        <ele>1078</ele>
        <time>2026-04-29T05:45:46Z</time>
      </trkpt>
      <trkpt lat="42.823984008282423" lon="0.932256979867816">
        <ele>1080</ele>
        <time>2026-04-29T05:45:54Z</time>
      </trkpt>
      <trkpt lat="42.823961963877082" lon="0.932152960449457">
        <ele>1081</ele>
        <time>2026-04-29T05:46:02Z</time>
      </trkpt>
      <trkpt lat="42.823952995240688" lon="0.932101998478174">
        <ele>1082</ele>
        <time>2026-04-29T05:46:06Z</time>
      </trkpt>
      <trkpt lat="42.823949977755547" lon="0.93204801902175">
        <ele>1082</ele>
        <time>2026-04-29T05:46:10Z</time>
      </trkpt>
      <trkpt lat="42.823950983583927" lon="0.931946011260152">
        <ele>1083</ele>
        <time>2026-04-29T05:46:18Z</time>
      </trkpt>
      <trkpt lat="42.823960036039352" lon="0.931778959929943">
        <ele>1084</ele>
        <time>2026-04-29T05:46:30Z</time>
      </trkpt>
      <trkpt lat="42.823963975533843" lon="0.931721040979028">
        <ele>1084</ele>
        <time>2026-04-29T05:46:34Z</time>
      </trkpt>
      <trkpt lat="42.823951989412308" lon="0.93140697106719">
        <ele>1087</ele>
        <time>2026-04-29T05:46:54Z</time>
      </trkpt>
      <trkpt lat="42.823973027989268" lon="0.931275961920619">
        <ele>1086</ele>
        <time>2026-04-29T05:47:02Z</time>
      </trkpt>
      <trkpt lat="42.823970010504127" lon="0.931203039363027">
        <ele>1087</ele>
        <time>2026-04-29T05:47:06Z</time>
      </trkpt>
      <trkpt lat="42.823945032432675" lon="0.931152999401093">
        <ele>1087</ele>
        <time>2026-04-29T05:47:12Z</time>
      </trkpt>
      <trkpt lat="42.823916031047702" lon="0.931120980530977">
        <ele>1087</ele>
        <time>2026-04-29T05:47:16Z</time>
      </trkpt>
      <trkpt lat="42.823894992470741" lon="0.931077981367707">
        <ele>1087</ele>
        <time>2026-04-29T05:47:20Z</time>
      </trkpt>
      <trkpt lat="42.823850987479091" lon="0.93080498278141">
        <ele>1090</ele>
        <time>2026-04-29T05:47:40Z</time>
      </trkpt>
      <trkpt lat="42.823820980265737" lon="0.930700041353703">
        <ele>1091</ele>
        <time>2026-04-29T05:47:48Z</time>
      </trkpt>
      <trkpt lat="42.823789967224002" lon="0.930605996400118">
        <ele>1091</ele>
        <time>2026-04-29T05:48:02Z</time>
      </trkpt>
      <trkpt lat="42.82376398332417" lon="0.930474987253547">
        <ele>1091</ele>
        <time>2026-04-29T05:48:10Z</time>
      </trkpt>
      <trkpt lat="42.8237400110811" lon="0.9304169844836">
        <ele>1092</ele>
        <time>2026-04-29T05:48:16Z</time>
      </trkpt>
      <trkpt lat="42.823679996654391" lon="0.93022202141583">
        <ele>1095</ele>
        <time>2026-04-29T05:48:34Z</time>
      </trkpt>
      <trkpt lat="42.823659041896462" lon="0.930167958140373">
        <ele>1096</ele>
        <time>2026-04-29T05:48:40Z</time>
      </trkpt>
      <trkpt lat="42.823641020804644" lon="0.930104004219174">
        <ele>1096</ele>
        <time>2026-04-29T05:48:46Z</time>
      </trkpt>
      <trkpt lat="42.823578994721174" lon="0.92994399368763">
        <ele>1097</ele>
        <time>2026-04-29T05:49:00Z</time>
      </trkpt>
      <trkpt lat="42.823564996942878" lon="0.929894037544727">
        <ele>1097</ele>
        <time>2026-04-29T05:49:04Z</time>
      </trkpt>
      <trkpt lat="42.823552004992962" lon="0.929849026724696">
        <ele>1097</ele>
        <time>2026-04-29T05:49:08Z</time>
      </trkpt>
      <trkpt lat="42.823528032749891" lon="0.92975297011435">
        <ele>1097</ele>
        <time>2026-04-29T05:49:16Z</time>
      </trkpt>
      <trkpt lat="42.82350498251617" lon="0.929698990657926">
        <ele>1098</ele>
        <time>2026-04-29T05:49:20Z</time>
      </trkpt>
      <trkpt lat="42.823410015553236" lon="0.929404031485319">
        <ele>1101</ele>
        <time>2026-04-29T05:49:46Z</time>
      </trkpt>
      <trkpt lat="42.823399035260081" lon="0.929350974038243">
        <ele>1101</ele>
        <time>2026-04-29T05:49:52Z</time>
      </trkpt>
      <trkpt lat="42.823344971984625" lon="0.929204039275646">
        <ele>1101</ele>
        <time>2026-04-29T05:50:06Z</time>
      </trkpt>
      <trkpt lat="42.823295015841722" lon="0.929050985723734">
        <ele>1102</ele>
        <time>2026-04-29T05:50:18Z</time>
      </trkpt>
      <trkpt lat="42.823233995586634" lon="0.928800031542778">
        <ele>1107</ele>
        <time>2026-04-29T05:50:40Z</time>
      </trkpt>
      <trkpt lat="42.823221003636718" lon="0.928748985752463">
        <ele>1107</ele>
        <time>2026-04-29T05:50:46Z</time>
      </trkpt>
      <trkpt lat="42.823180016130209" lon="0.92854899354279">
        <ele>1107</ele>
        <time>2026-04-29T05:51:02Z</time>
      </trkpt>
      <trkpt lat="42.823168030008674" lon="0.928484033793211">
        <ele>1107</ele>
        <time>2026-04-29T05:51:08Z</time>
      </trkpt>
      <trkpt lat="42.823156965896487" lon="0.928380014374852">
        <ele>1108</ele>
        <time>2026-04-29T05:51:16Z</time>
      </trkpt>
      <trkpt lat="42.823141040280461" lon="0.92833299189806">
        <ele>1109</ele>
        <time>2026-04-29T05:51:20Z</time>
      </trkpt>
      <trkpt lat="42.823133999481797" lon="0.92822503298521">
        <ele>1110</ele>
        <time>2026-04-29T05:51:30Z</time>
      </trkpt>
      <trkpt lat="42.823135005310178" lon="0.928175998851657">
        <ele>1111</ele>
        <time>2026-04-29T05:51:34Z</time>
      </trkpt>
      <trkpt lat="42.823163000866771" lon="0.927910041064024">
        <ele>1114</ele>
        <time>2026-04-29T05:51:54Z</time>
      </trkpt>
      <trkpt lat="42.823155960068107" lon="0.927865030243993">
        <ele>1114</ele>
        <time>2026-04-29T05:51:58Z</time>
      </trkpt>
      <trkpt lat="42.823153026401997" lon="0.927803004160523">
        <ele>1115</ele>
        <time>2026-04-29T05:52:04Z</time>
      </trkpt>
      <trkpt lat="42.823145985603333" lon="0.92775103636086">
        <ele>1115</ele>
        <time>2026-04-29T05:52:08Z</time>
      </trkpt>
      <trkpt lat="42.823143973946571" lon="0.92768800444901">
        <ele>1116</ele>
        <time>2026-04-29T05:52:12Z</time>
      </trkpt>
      <trkpt lat="42.823151014745235" lon="0.927630001679063">
        <ele>1116</ele>
        <time>2026-04-29T05:52:16Z</time>
      </trkpt>
      <trkpt lat="42.823154032230377" lon="0.927507961168885">
        <ele>1117</ele>
        <time>2026-04-29T05:52:26Z</time>
      </trkpt>
      <trkpt lat="42.823195019736886" lon="0.927336970344186">
        <ele>1118</ele>
        <time>2026-04-29T05:52:38Z</time>
      </trkpt>
      <trkpt lat="42.823198037222028" lon="0.927277961745858">
        <ele>1118</ele>
        <time>2026-04-29T05:52:42Z</time>
      </trkpt>
      <trkpt lat="42.823194013908505" lon="0.927229011431336">
        <ele>1119</ele>
        <time>2026-04-29T05:52:46Z</time>
      </trkpt>
      <trkpt lat="42.823190996423364" lon="0.927178971469402">
        <ele>1119</ele>
        <time>2026-04-29T05:52:50Z</time>
      </trkpt>
      <trkpt lat="42.823206000030041" lon="0.92693698592484">
        <ele>1121</ele>
        <time>2026-04-29T05:53:06Z</time>
      </trkpt>
      <trkpt lat="42.823211029171944" lon="0.92687102034688">
        <ele>1121</ele>
        <time>2026-04-29T05:53:10Z</time>
      </trkpt>
      <trkpt lat="42.823213962838054" lon="0.926812011748552">
        <ele>1123</ele>
        <time>2026-04-29T05:53:14Z</time>
      </trkpt>
      <trkpt lat="42.823208011686802" lon="0.926748979836702">
        <ele>1126</ele>
        <time>2026-04-29T05:53:18Z</time>
      </trkpt>
      <trkpt lat="42.823212035000324" lon="0.926687037572265">
        <ele>1127</ele>
        <time>2026-04-29T05:53:22Z</time>
      </trkpt>
      <trkpt lat="42.823236007243395" lon="0.926630040630698">
        <ele>1126</ele>
        <time>2026-04-29T05:53:26Z</time>
      </trkpt>
      <trkpt lat="42.823230978101492" lon="0.926529038697481">
        <ele>1125</ele>
        <time>2026-04-29T05:53:34Z</time>
      </trkpt>
      <trkpt lat="42.823210023343563" lon="0.92648696154356">
        <ele>1125</ele>
        <time>2026-04-29T05:53:38Z</time>
      </trkpt>
      <trkpt lat="42.823201976716518" lon="0.926437005400658">
        <ele>1127</ele>
        <time>2026-04-29T05:53:42Z</time>
      </trkpt>
      <trkpt lat="42.823192002251744" lon="0.926391994580626">
        <ele>1127</ele>
        <time>2026-04-29T05:53:46Z</time>
      </trkpt>
      <trkpt lat="42.823208011686802" lon="0.926327034831047">
        <ele>1126</ele>
        <time>2026-04-29T05:53:52Z</time>
      </trkpt>
      <trkpt lat="42.823206000030041" lon="0.926201976835728">
        <ele>1127</ele>
        <time>2026-04-29T05:54:00Z</time>
      </trkpt>
      <trkpt lat="42.823210023343563" lon="0.926063004881144">
        <ele>1130</ele>
        <time>2026-04-29T05:54:08Z</time>
      </trkpt>
      <trkpt lat="42.823213962838054" lon="0.925939958542585">
        <ele>1133</ele>
        <time>2026-04-29T05:54:18Z</time>
      </trkpt>
      <trkpt lat="42.823431976139545" lon="0.925489012151957">
        <ele>1131</ele>
        <time>2026-04-29T05:54:56Z</time>
      </trkpt>
      <trkpt lat="42.823495008051395" lon="0.925366971641779">
        <ele>1132</ele>
        <time>2026-04-29T05:55:06Z</time>
      </trkpt>
      <trkpt lat="42.823501965031028" lon="0.925222970545292">
        <ele>1132</ele>
        <time>2026-04-29T05:55:16Z</time>
      </trkpt>
      <trkpt lat="42.823472041636705" lon="0.925094978883863">
        <ele>1131</ele>
        <time>2026-04-29T05:55:30Z</time>
      </trkpt>
      <trkpt lat="42.823448991402984" lon="0.924955001100898">
        <ele>1131</ele>
        <time>2026-04-29T05:55:40Z</time>
      </trkpt>
      <trkpt lat="42.823449997231364" lon="0.92483002692461">
        <ele>1134</ele>
        <time>2026-04-29T05:55:48Z</time>
      </trkpt>
      <trkpt lat="42.823466006666422" lon="0.924684014171362">
        <ele>1134</ele>
        <time>2026-04-29T05:55:58Z</time>
      </trkpt>
      <trkpt lat="42.823467012494802" lon="0.924559039995074">
        <ele>1131</ele>
        <time>2026-04-29T05:56:08Z</time>
      </trkpt>
      <trkpt lat="42.823466006666422" lon="0.924424007534981">
        <ele>1132</ele>
        <time>2026-04-29T05:56:20Z</time>
      </trkpt>
      <trkpt lat="42.823457960039377" lon="0.924285035580397">
        <ele>1135</ele>
        <time>2026-04-29T05:56:30Z</time>
      </trkpt>
      <trkpt lat="42.823414038866758" lon="0.923744989559054">
        <ele>1146</ele>
        <time>2026-04-29T05:57:06Z</time>
      </trkpt>
      <trkpt lat="42.823404986411333" lon="0.923620015382767">
        <ele>1149</ele>
        <time>2026-04-29T05:57:14Z</time>
      </trkpt>
      <trkpt lat="42.823415966704488" lon="0.923362020403147">
        <ele>1147</ele>
        <time>2026-04-29T05:57:36Z</time>
      </trkpt>
      <trkpt lat="42.823371039703488" lon="0.923222964629531">
        <ele>1144</ele>
        <time>2026-04-29T05:57:46Z</time>
      </trkpt>
      <trkpt lat="42.823344971984625" lon="0.923100002110004">
        <ele>1145</ele>
        <time>2026-04-29T05:57:54Z</time>
      </trkpt>
      <trkpt lat="42.823228966444731" lon="0.9225769713521">
        <ele>1155</ele>
        <time>2026-04-29T05:58:36Z</time>
      </trkpt>
      <trkpt lat="42.823211029171944" lon="0.922445962205529">
        <ele>1153</ele>
        <time>2026-04-29T05:58:48Z</time>
      </trkpt>
      <trkpt lat="42.823198959231377" lon="0.92231897637248">
        <ele>1154</ele>
        <time>2026-04-29T05:58:56Z</time>
      </trkpt>
      <trkpt lat="42.823176998645067" lon="0.922191990539432">
        <ele>1153</ele>
        <time>2026-04-29T05:59:08Z</time>
      </trkpt>
      <trkpt lat="42.823165012523532" lon="0.921941958367825">
        <ele>1154</ele>
        <time>2026-04-29T05:59:26Z</time>
      </trkpt>
      <trkpt lat="42.82309502363205" lon="0.921696033328772">
        <ele>1157</ele>
        <time>2026-04-29T05:59:42Z</time>
      </trkpt>
      <trkpt lat="42.822931995615363" lon="0.921495035290718">
        <ele>1162</ele>
        <time>2026-04-29T06:00:08Z</time>
      </trkpt>
      <trkpt lat="42.8228610008955" lon="0.921233016997576">
        <ele>1164</ele>
        <time>2026-04-29T06:00:28Z</time>
      </trkpt>
      <trkpt lat="42.822750024497509" lon="0.920843007043004">
        <ele>1166</ele>
        <time>2026-04-29T06:00:58Z</time>
      </trkpt>
      <trkpt lat="42.822733009234071" lon="0.920713003724813">
        <ele>1167</ele>
        <time>2026-04-29T06:01:08Z</time>
      </trkpt>
      <trkpt lat="42.822729991748929" lon="0.920308995991945">
        <ele>1169</ele>
        <time>2026-04-29T06:01:36Z</time>
      </trkpt>
      <trkpt lat="42.82270803116262" lon="0.919906999915838">
        <ele>1172</ele>
        <time>2026-04-29T06:02:10Z</time>
      </trkpt>
      <trkpt lat="42.822648016735911" lon="0.919655039906502">
        <ele>1174</ele>
        <time>2026-04-29T06:02:34Z</time>
      </trkpt>
      <trkpt lat="42.822633013129234" lon="0.919517995789647">
        <ele>1172</ele>
        <time>2026-04-29T06:02:46Z</time>
      </trkpt>
      <trkpt lat="42.82262496650219" lon="0.919385980814695">
        <ele>1170</ele>
        <time>2026-04-29T06:02:56Z</time>
      </trkpt>
      <trkpt lat="42.822613986209035" lon="0.919235022738576">
        <ele>1170</ele>
        <time>2026-04-29T06:03:06Z</time>
      </trkpt>
      <trkpt lat="42.82260300591588" lon="0.919091021642089">
        <ele>1171</ele>
        <time>2026-04-29T06:03:14Z</time>
      </trkpt>
      <trkpt lat="42.822569981217384" lon="0.918951965868473">
        <ele>1172</ele>
        <time>2026-04-29T06:03:22Z</time>
      </trkpt>
      <trkpt lat="42.82253997400403" lon="0.918825985863805">
        <ele>1176</ele>
        <time>2026-04-29T06:03:30Z</time>
      </trkpt>
      <trkpt lat="42.822503009811044" lon="0.918699000030756">
        <ele>1182</ele>
        <time>2026-04-29T06:03:38Z</time>
      </trkpt>
      <trkpt lat="42.822447018697858" lon="0.91859900392592">
        <ele>1183</ele>
        <time>2026-04-29T06:03:50Z</time>
      </trkpt>
      <trkpt lat="42.82236403785646" lon="0.91836498118937">
        <ele>1183</ele>
        <time>2026-04-29T06:04:10Z</time>
      </trkpt>
      <trkpt lat="42.822287008166313" lon="0.918133975937963">
        <ele>1187</ele>
        <time>2026-04-29T06:04:38Z</time>
      </trkpt>
      <trkpt lat="42.822155999019742" lon="0.91793398372829">
        <ele>1186</ele>
        <time>2026-04-29T06:05:12Z</time>
      </trkpt>
      <trkpt lat="42.822092967107892" lon="0.917838010936975">
        <ele>1186</ele>
        <time>2026-04-29T06:05:26Z</time>
      </trkpt>
      <trkpt lat="42.822064971551299" lon="0.917715970426798">
        <ele>1187</ele>
        <time>2026-04-29T06:05:42Z</time>
      </trkpt>
      <trkpt lat="42.821996994316578" lon="0.917464010417461">
        <ele>1189</ele>
        <time>2026-04-29T06:06:18Z</time>
      </trkpt>
      <trkpt lat="42.821944020688534" lon="0.917358985170722">
        <ele>1192</ele>
        <time>2026-04-29T06:06:34Z</time>
      </trkpt>
      <trkpt lat="42.821866990998387" lon="0.917448000982404">
        <ele>1192</ele>
        <time>2026-04-29T06:06:56Z</time>
      </trkpt>
      <trkpt lat="42.821814017370343" lon="0.917342975735664">
        <ele>1193</ele>
        <time>2026-04-29T06:07:20Z</time>
      </trkpt>
      <trkpt lat="42.821736987680197" lon="0.917205009609461">
        <ele>1196</ele>
        <time>2026-04-29T06:12:54Z</time>
      </trkpt>
      <trkpt lat="42.821645960211754" lon="0.91715999878943">
        <ele>1198</ele>
        <time>2026-04-29T06:13:10Z</time>
      </trkpt>
      <trkpt lat="42.821559039875865" lon="0.917115993797779">
        <ele>1199</ele>
        <time>2026-04-29T06:13:28Z</time>
      </trkpt>
      <trkpt lat="42.821472035720944" lon="0.91707500629127">
        <ele>1201</ele>
        <time>2026-04-29T06:13:46Z</time>
      </trkpt>
      <trkpt lat="42.821385031566024" lon="0.917023038491607">
        <ele>1200</ele>
        <time>2026-04-29T06:14:02Z</time>
      </trkpt>
      <trkpt lat="42.821305990219116" lon="0.916962018236518">
        <ele>1204</ele>
        <time>2026-04-29T06:14:16Z</time>
      </trkpt>
      <trkpt lat="42.82114296220243" lon="0.916835032403469">
        <ele>1206</ele>
        <time>2026-04-29T06:14:46Z</time>
      </trkpt>
      <trkpt lat="42.821108009666204" lon="0.916807036846876">
        <ele>1206</ele>
        <time>2026-04-29T06:14:52Z</time>
      </trkpt>
      <trkpt lat="42.82099200412631" lon="0.91673000715673">
        <ele>1210</ele>
        <time>2026-04-29T06:15:10Z</time>
      </trkpt>
      <trkpt lat="42.820956967771053" lon="0.916698994114995">
        <ele>1211</ele>
        <time>2026-04-29T06:15:16Z</time>
      </trkpt>
      <trkpt lat="42.820926960557699" lon="0.916655994951725">
        <ele>1212</ele>
        <time>2026-04-29T06:15:22Z</time>
      </trkpt>
      <trkpt lat="42.820899970829487" lon="0.916609978303313">
        <ele>1214</ele>
        <time>2026-04-29T06:15:28Z</time>
      </trkpt>
      <trkpt lat="42.820838028565049" lon="0.916549041867256">
        <ele>1216</ele>
        <time>2026-04-29T06:15:40Z</time>
      </trkpt>
      <trkpt lat="42.820806009694934" lon="0.916521968320012">
        <ele>1217</ele>
        <time>2026-04-29T06:15:46Z</time>
      </trkpt>
      <trkpt lat="42.820766028016806" lon="0.916482992470264">
        <ele>1219</ele>
        <time>2026-04-29T06:15:54Z</time>
      </trkpt>
      <trkpt lat="42.820731997489929" lon="0.916447034105659">
        <ele>1220</ele>
        <time>2026-04-29T06:16:00Z</time>
      </trkpt>
      <trkpt lat="42.820707019418478" lon="0.916407974436879">
        <ele>1222</ele>
        <time>2026-04-29T06:16:06Z</time>
      </trkpt>
      <trkpt lat="42.820610040798783" lon="0.916330022737384">
        <ele>1224</ele>
        <time>2026-04-29T06:16:24Z</time>
      </trkpt>
      <trkpt lat="42.820567041635513" lon="0.916294986382127">
        <ele>1225</ele>
        <time>2026-04-29T06:16:32Z</time>
      </trkpt>
      <trkpt lat="42.820533011108637" lon="0.916259028017521">
        <ele>1227</ele>
        <time>2026-04-29T06:16:38Z</time>
      </trkpt>
      <trkpt lat="42.820496968924999" lon="0.916244024410844">
        <ele>1228</ele>
        <time>2026-04-29T06:16:44Z</time>
      </trkpt>
      <trkpt lat="42.820467967540026" lon="0.916208988055587">
        <ele>1229</ele>
        <time>2026-04-29T06:16:50Z</time>
      </trkpt>
      <trkpt lat="42.820438966155052" lon="0.916166994720697">
        <ele>1230</ele>
        <time>2026-04-29T06:16:58Z</time>
      </trkpt>
      <trkpt lat="42.820398984476924" lon="0.916132964193821">
        <ele>1233</ele>
        <time>2026-04-29T06:17:06Z</time>
      </trkpt>
      <trkpt lat="42.820361014455557" lon="0.916113015264273">
        <ele>1234</ele>
        <time>2026-04-29T06:17:14Z</time>
      </trkpt>
      <trkpt lat="42.8203259781003" lon="0.916103962808847">
        <ele>1235</ele>
        <time>2026-04-29T06:17:22Z</time>
      </trkpt>
      <trkpt lat="42.820289013907313" lon="0.91608895920217">
        <ele>1236</ele>
        <time>2026-04-29T06:17:30Z</time>
      </trkpt>
      <trkpt lat="42.820202009752393" lon="0.9160459600389">
        <ele>1239</ele>
        <time>2026-04-29T06:17:46Z</time>
      </trkpt>
      <trkpt lat="42.820162028074265" lon="0.916017964482307">
        <ele>1241</ele>
        <time>2026-04-29T06:17:54Z</time>
      </trkpt>
      <trkpt lat="42.8200030233711" lon="0.915990974754095">
        <ele>1244</ele>
        <time>2026-04-29T06:18:22Z</time>
      </trkpt>
      <trkpt lat="42.819965975359082" lon="0.915964990854263">
        <ele>1246</ele>
        <time>2026-04-29T06:18:28Z</time>
      </trkpt>
      <trkpt lat="42.819934962317348" lon="0.915904976427555">
        <ele>1246</ele>
        <time>2026-04-29T06:18:36Z</time>
      </trkpt>
      <trkpt lat="42.819891041144729" lon="0.915872035548091">
        <ele>1248</ele>
        <time>2026-04-29T06:18:46Z</time>
      </trkpt>
      <trkpt lat="42.819843012839556" lon="0.91582803055644">
        <ele>1248</ele>
        <time>2026-04-29T06:18:56Z</time>
      </trkpt>
      <trkpt lat="42.81979096122086" lon="0.915783019736409">
        <ele>1251</ele>
        <time>2026-04-29T06:19:08Z</time>
      </trkpt>
      <trkpt lat="42.819737987592816" lon="0.915740020573139">
        <ele>1253</ele>
        <time>2026-04-29T06:19:20Z</time>
      </trkpt>
      <trkpt lat="42.819622987881303" lon="0.915609011426568">
        <ele>1261</ele>
        <time>2026-04-29T06:19:46Z</time>
      </trkpt>
      <trkpt lat="42.81959499232471" lon="0.915580010041595">
        <ele>1261</ele>
        <time>2026-04-29T06:19:52Z</time>
      </trkpt>
      <trkpt lat="42.819561967626214" lon="0.915555031970143">
        <ele>1262</ele>
        <time>2026-04-29T06:19:58Z</time>
      </trkpt>
      <trkpt lat="42.819528020918369" lon="0.915511026978493">
        <ele>1263</ele>
        <time>2026-04-29T06:20:06Z</time>
      </trkpt>
      <trkpt lat="42.819497007876635" lon="0.915487976744771">
        <ele>1264</ele>
        <time>2026-04-29T06:20:12Z</time>
      </trkpt>
      <trkpt lat="42.819474963471293" lon="0.91544003225863">
        <ele>1266</ele>
        <time>2026-04-29T06:20:20Z</time>
      </trkpt>
      <trkpt lat="42.819437999278307" lon="0.915418993681669">
        <ele>1266</ele>
        <time>2026-04-29T06:20:26Z</time>
      </trkpt>
      <trkpt lat="42.819405980408192" lon="0.915381023660302">
        <ele>1267</ele>
        <time>2026-04-29T06:20:34Z</time>
      </trkpt>
      <trkpt lat="42.819363987073302" lon="0.915363002568483">
        <ele>1268</ele>
        <time>2026-04-29T06:20:42Z</time>
      </trkpt>
      <trkpt lat="42.819350995123386" lon="0.9153120405972">
        <ele>1269</ele>
        <time>2026-04-29T06:20:48Z</time>
      </trkpt>
      <trkpt lat="42.819326017051935" lon="0.915262000635266">
        <ele>1270</ele>
        <time>2026-04-29T06:20:56Z</time>
      </trkpt>
      <trkpt lat="42.819260973483324" lon="0.915159992873669">
        <ele>1273</ele>
        <time>2026-04-29T06:21:14Z</time>
      </trkpt>
      <trkpt lat="42.819226020947099" lon="0.915154963731766">
        <ele>1274</ele>
        <time>2026-04-29T06:21:20Z</time>
      </trkpt>
      <trkpt lat="42.819188972935081" lon="0.915152030065656">
        <ele>1275</ele>
        <time>2026-04-29T06:21:26Z</time>
      </trkpt>
      <trkpt lat="42.819163994863629" lon="0.915107019245625">
        <ele>1275</ele>
        <time>2026-04-29T06:21:34Z</time>
      </trkpt>
      <trkpt lat="42.819120995700359" lon="0.915096960961819">
        <ele>1275</ele>
        <time>2026-04-29T06:21:42Z</time>
      </trkpt>
      <trkpt lat="42.819085037335753" lon="0.91509997844696">
        <ele>1277</ele>
        <time>2026-04-29T06:21:48Z</time>
      </trkpt>
      <trkpt lat="42.819055030122399" lon="0.915122022852302">
        <ele>1278</ele>
        <time>2026-04-29T06:21:54Z</time>
      </trkpt>
      <trkpt lat="42.81901303678751" lon="0.915219001471996">
        <ele>1279</ele>
        <time>2026-04-29T06:22:06Z</time>
      </trkpt>
      <trkpt lat="42.819022005423903" lon="0.91527096927166">
        <ele>1280</ele>
        <time>2026-04-29T06:22:12Z</time>
      </trkpt>
      <trkpt lat="42.818999039009213" lon="0.915303993970156">
        <ele>1282</ele>
        <time>2026-04-29T06:22:26Z</time>
      </trkpt>
      <trkpt lat="42.818973977118731" lon="0.915269963443279">
        <ele>1282</ele>
        <time>2026-04-29T06:22:32Z</time>
      </trkpt>
      <trkpt lat="42.818908011540771" lon="0.9151859767735">
        <ele>1284</ele>
        <time>2026-04-29T06:22:48Z</time>
      </trkpt>
      <trkpt lat="42.818830981850624" lon="0.915102995932102">
        <ele>1290</ele>
        <time>2026-04-29T06:23:06Z</time>
      </trkpt>
      <trkpt lat="42.81875504180789" lon="0.915026972070336">
        <ele>1291</ele>
        <time>2026-04-29T06:23:24Z</time>
      </trkpt>
      <trkpt lat="42.818668959662318" lon="0.914989002048969">
        <ele>1294</ele>
        <time>2026-04-29T06:23:44Z</time>
      </trkpt>
      <trkpt lat="42.818577010184526" lon="0.914984978735447">
        <ele>1295</ele>
        <time>2026-04-29T06:24:04Z</time>
      </trkpt>
      <trkpt lat="42.818511966615915" lon="0.914895962923765">
        <ele>1300</ele>
        <time>2026-04-29T06:24:34Z</time>
      </trkpt>
      <trkpt lat="42.818422028794885" lon="0.914856987074018">
        <ele>1303</ele>
        <time>2026-04-29T06:25:04Z</time>
      </trkpt>
      <trkpt lat="42.818328989669681" lon="0.914835026487708">
        <ele>1313</ele>
        <time>2026-04-29T06:25:34Z</time>
      </trkpt>
      <trkpt lat="42.818280039355159" lon="0.914852041751146">
        <ele>1314</ele>
        <time>2026-04-29T06:27:00Z</time>
      </trkpt>
      <trkpt lat="42.818242991343141" lon="0.914867967367172">
        <ele>1315</ele>
        <time>2026-04-29T06:27:06Z</time>
      </trkpt>
      <trkpt lat="42.818204015493393" lon="0.914852963760495">
        <ele>1317</ele>
        <time>2026-04-29T06:27:14Z</time>
      </trkpt>
      <trkpt lat="42.818181971088052" lon="0.914890011772513">
        <ele>1317</ele>
        <time>2026-04-29T06:27:20Z</time>
      </trkpt>
      <trkpt lat="42.818153975531459" lon="0.914938962087035">
        <ele>1319</ele>
        <time>2026-04-29T06:27:28Z</time>
      </trkpt>
      <trkpt lat="42.818120028823614" lon="0.914962012320757">
        <ele>1320</ele>
        <time>2026-04-29T06:27:36Z</time>
      </trkpt>
      <trkpt lat="42.818083986639977" lon="0.91494801454246">
        <ele>1322</ele>
        <time>2026-04-29T06:27:44Z</time>
      </trkpt>
      <trkpt lat="42.81804702244699" lon="0.914949020370841">
        <ele>1323</ele>
        <time>2026-04-29T06:27:54Z</time>
      </trkpt>
      <trkpt lat="42.818010980263352" lon="0.914924964308739">
        <ele>1324</ele>
        <time>2026-04-29T06:28:02Z</time>
      </trkpt>
      <trkpt lat="42.817974016070366" lon="0.9149269759655">
        <ele>1327</ele>
        <time>2026-04-29T06:28:14Z</time>
      </trkpt>
      <trkpt lat="42.81794099137187" lon="0.914893029257655">
        <ele>1328</ele>
        <time>2026-04-29T06:28:24Z</time>
      </trkpt>
      <trkpt lat="42.817916013300419" lon="0.914930999279022">
        <ele>1330</ele>
        <time>2026-04-29T06:28:36Z</time>
      </trkpt>
      <trkpt lat="42.817833032459021" lon="0.914952037855983">
        <ele>1331</ele>
        <time>2026-04-29T06:28:56Z</time>
      </trkpt>
      <trkpt lat="42.817800007760525" lon="0.914935022592545">
        <ele>1335</ele>
        <time>2026-04-29T06:29:14Z</time>
      </trkpt>
      <trkpt lat="42.817765977233648" lon="0.914961006492376">
        <ele>1336</ele>
        <time>2026-04-29T06:29:34Z</time>
      </trkpt>
      <trkpt lat="42.817743010818958" lon="0.914996964856982">
        <ele>1339</ele>
        <time>2026-04-29T06:29:44Z</time>
      </trkpt>
      <trkpt lat="42.817721972241998" lon="0.914938962087035">
        <ele>1341</ele>
        <time>2026-04-29T06:30:00Z</time>
      </trkpt>
      <trkpt lat="42.817677967250347" lon="0.914888000115752">
        <ele>1342</ele>
        <time>2026-04-29T06:30:12Z</time>
      </trkpt>
      <trkpt lat="42.817658018320799" lon="0.914838965982199">
        <ele>1347</ele>
        <time>2026-04-29T06:30:22Z</time>
      </trkpt>
      <trkpt lat="42.817646032199264" lon="0.914783980697393">
        <ele>1349</ele>
        <time>2026-04-29T06:30:30Z</time>
      </trkpt>
      <trkpt lat="42.817614013329148" lon="0.914740981534123">
        <ele>1351</ele>
        <time>2026-04-29T06:30:42Z</time>
      </trkpt>
      <trkpt lat="42.817616024985909" lon="0.914688007906079">
        <ele>1353</ele>
        <time>2026-04-29T06:30:52Z</time>
      </trkpt>
      <trkpt lat="42.817620970308781" lon="0.914641991257668">
        <ele>1355</ele>
        <time>2026-04-29T06:31:04Z</time>
      </trkpt>
      <trkpt lat="42.817647038027644" lon="0.914607960730791">
        <ele>1356</ele>
        <time>2026-04-29T06:31:18Z</time>
      </trkpt>
      <trkpt lat="42.817681990563869" lon="0.914581976830959">
        <ele>1358</ele>
        <time>2026-04-29T06:31:28Z</time>
      </trkpt>
      <trkpt lat="42.817666986957192" lon="0.914527997374535">
        <ele>1359</ele>
        <time>2026-04-29T06:31:40Z</time>
      </trkpt>
      <trkpt lat="42.817644020542502" lon="0.914487009868026">
        <ele>1361</ele>
        <time>2026-04-29T06:31:48Z</time>
      </trkpt>
      <trkpt lat="42.817607978358865" lon="0.914451973512769">
        <ele>1363</ele>
        <time>2026-04-29T06:32:00Z</time>
      </trkpt>
      <trkpt lat="42.817567996680737" lon="0.914461025968194">
        <ele>1365</ele>
        <time>2026-04-29T06:32:10Z</time>
      </trkpt>
      <trkpt lat="42.817526003345847" lon="0.914469994604588">
        <ele>1366</ele>
        <time>2026-04-29T06:32:22Z</time>
      </trkpt>
      <trkpt lat="42.817486021667719" lon="0.914498995989561">
        <ele>1367</ele>
        <time>2026-04-29T06:32:32Z</time>
      </trkpt>
      <trkpt lat="42.817417960613966" lon="0.914492039009929">
        <ele>1370</ele>
        <time>2026-04-29T06:32:50Z</time>
      </trkpt>
      <trkpt lat="42.817398011684418" lon="0.914447028189898">
        <ele>1371</ele>
        <time>2026-04-29T06:33:00Z</time>
      </trkpt>
      <trkpt lat="42.817376973107457" lon="0.914408974349499">
        <ele>1373</ele>
        <time>2026-04-29T06:33:08Z</time>
      </trkpt>
      <trkpt lat="42.817345038056374" lon="0.914390031248331">
        <ele>1374</ele>
        <time>2026-04-29T06:33:18Z</time>
      </trkpt>
      <trkpt lat="42.817321987822652" lon="0.914339991286397">
        <ele>1375</ele>
        <time>2026-04-29T06:33:26Z</time>
      </trkpt>
      <trkpt lat="42.817285023629665" lon="0.914331022650003">
        <ele>1376</ele>
        <time>2026-04-29T06:33:36Z</time>
      </trkpt>
      <trkpt lat="42.817263985052705" lon="0.91428198851645">
        <ele>1378</ele>
        <time>2026-04-29T06:33:50Z</time>
      </trkpt>
      <trkpt lat="42.817227020859718" lon="0.914254998788238">
        <ele>1379</ele>
        <time>2026-04-29T06:34:08Z</time>
      </trkpt>
      <trkpt lat="42.817185027524829" lon="0.914239995181561">
        <ele>1381</ele>
        <time>2026-04-29T06:34:18Z</time>
      </trkpt>
      <trkpt lat="42.817143034189939" lon="0.914235971868038">
        <ele>1381</ele>
        <time>2026-04-29T06:34:32Z</time>
      </trkpt>
      <trkpt lat="42.817095005884767" lon="0.914206970483065">
        <ele>1382</ele>
        <time>2026-04-29T06:34:40Z</time>
      </trkpt>
      <trkpt lat="42.817099029198289" lon="0.914260027930141">
        <ele>1384</ele>
        <time>2026-04-29T06:35:12Z</time>
      </trkpt>
      <trkpt lat="42.817061981186271" lon="0.914267990738153">
        <ele>1385</ele>
        <time>2026-04-29T06:35:24Z</time>
      </trkpt>
      <trkpt lat="42.817028034478426" lon="0.914224991574883">
        <ele>1386</ele>
        <time>2026-04-29T06:35:32Z</time>
      </trkpt>
      <trkpt lat="42.816983023658395" lon="0.914199007675052">
        <ele>1386</ele>
        <time>2026-04-29T06:35:42Z</time>
      </trkpt>
      <trkpt lat="42.816941030323505" lon="0.914160031825304">
        <ele>1386</ele>
        <time>2026-04-29T06:35:50Z</time>
      </trkpt>
      <trkpt lat="42.816899036988616" lon="0.914071016013622">
        <ele>1388</ele>
        <time>2026-04-29T06:36:18Z</time>
      </trkpt>
      <trkpt lat="42.816807003691792" lon="0.914046037942171">
        <ele>1392</ele>
        <time>2026-04-29T06:36:36Z</time>
      </trkpt>
      <trkpt lat="42.81671597622335" lon="0.914078978821635">
        <ele>1394</ele>
        <time>2026-04-29T06:37:10Z</time>
      </trkpt>
      <trkpt lat="42.816636012867093" lon="0.914136981591582">
        <ele>1402</ele>
        <time>2026-04-29T06:38:12Z</time>
      </trkpt>
      <trkpt lat="42.816637018695474" lon="0.914123989641666">
        <ele>1405</ele>
        <time>2026-04-29T06:40:20Z</time>
      </trkpt>
      <trkpt lat="42.816732991486788" lon="0.914091970771551">
        <ele>1403</ele>
        <time>2026-04-29T06:41:16Z</time>
      </trkpt>
      <trkpt lat="42.816825024783611" lon="0.9140669927001">
        <ele>1403</ele>
        <time>2026-04-29T06:41:42Z</time>
      </trkpt>
      <trkpt lat="42.81690901145339" lon="0.914137987419963">
        <ele>1401</ele>
        <time>2026-04-29T06:42:00Z</time>
      </trkpt>
      <trkpt lat="42.816989980638027" lon="0.914222979918122">
        <ele>1401</ele>
        <time>2026-04-29T06:42:18Z</time>
      </trkpt>
      <trkpt lat="42.817048989236355" lon="0.914242006838322">
        <ele>1397</ele>
        <time>2026-04-29T06:42:32Z</time>
      </trkpt>
      <trkpt lat="42.8170570358634" lon="0.914305038750172">
        <ele>1394</ele>
        <time>2026-04-29T06:42:40Z</time>
      </trkpt>
      <trkpt lat="42.81705804169178" lon="0.914354994893074">
        <ele>1394</ele>
        <time>2026-04-29T06:42:46Z</time>
      </trkpt>
      <trkpt lat="42.817053012549877" lon="0.914434958249331">
        <ele>1394</ele>
        <time>2026-04-29T06:42:56Z</time>
      </trkpt>
      <trkpt lat="42.8170380089432" lon="0.914477035403252">
        <ele>1394</ele>
        <time>2026-04-29T06:43:02Z</time>
      </trkpt>
      <trkpt lat="42.816998027265072" lon="0.914492961019278">
        <ele>1394</ele>
        <time>2026-04-29T06:43:10Z</time>
      </trkpt>
      <trkpt lat="42.816976988688111" lon="0.91453998349607">
        <ele>1394</ele>
        <time>2026-04-29T06:43:18Z</time>
      </trkpt>
      <trkpt lat="42.816962990909815" lon="0.914592035114765">
        <ele>1395</ele>
        <time>2026-04-29T06:43:26Z</time>
      </trkpt>
      <trkpt lat="42.816942036151886" lon="0.914634028449655">
        <ele>1397</ele>
        <time>2026-04-29T06:43:34Z</time>
      </trkpt>
      <trkpt lat="42.816938012838364" lon="0.914688007906079">
        <ele>1398</ele>
        <time>2026-04-29T06:43:42Z</time>
      </trkpt>
      <trkpt lat="42.816929966211319" lon="0.914745004847646">
        <ele>1402</ele>
        <time>2026-04-29T06:43:52Z</time>
      </trkpt>
      <trkpt lat="42.816890990361571" lon="0.914845000952482">
        <ele>1405</ele>
        <time>2026-04-29T06:44:10Z</time>
      </trkpt>
      <trkpt lat="42.816850002855062" lon="0.914817005395889">
        <ele>1405</ele>
        <time>2026-04-29T06:44:22Z</time>
      </trkpt>
      <trkpt lat="42.816832987591624" lon="0.914765037596226">
        <ele>1409</ele>
        <time>2026-04-29T06:44:30Z</time>
      </trkpt>
      <trkpt lat="42.816798035055399" lon="0.914764031767845">
        <ele>1411</ele>
        <time>2026-04-29T06:44:48Z</time>
      </trkpt>
      <trkpt lat="42.816773978993297" lon="0.914808036759496">
        <ele>1412</ele>
        <time>2026-04-29T06:44:56Z</time>
      </trkpt>
      <trkpt lat="42.816732991486788" lon="0.914793033152819">
        <ele>1415</ele>
        <time>2026-04-29T06:45:14Z</time>
      </trkpt>
      <trkpt lat="42.816713964566588" lon="0.914750033989549">
        <ele>1417</ele>
        <time>2026-04-29T06:45:20Z</time>
      </trkpt>
      <trkpt lat="42.816695021465421" lon="0.914710974320769">
        <ele>1418</ele>
        <time>2026-04-29T06:45:30Z</time>
      </trkpt>
      <trkpt lat="42.816671971231699" lon="0.91464702039957">
        <ele>1422</ele>
        <time>2026-04-29T06:45:44Z</time>
      </trkpt>
      <trkpt lat="42.816637018695474" lon="0.914642997086048">
        <ele>1423</ele>
        <time>2026-04-29T06:45:52Z</time>
      </trkpt>
      <trkpt lat="42.816596031188965" lon="0.914665963500738">
        <ele>1424</ele>
        <time>2026-04-29T06:46:00Z</time>
      </trkpt>
      <trkpt lat="42.816569963470101" lon="0.914655989035964">
        <ele>1426</ele>
        <time>2026-04-29T06:46:18Z</time>
      </trkpt>
      <trkpt lat="42.816558983176947" lon="0.914606032893062">
        <ele>1427</ele>
        <time>2026-04-29T06:46:26Z</time>
      </trkpt>
      <trkpt lat="42.816515984013677" lon="0.914597986266017">
        <ele>1430</ele>
        <time>2026-04-29T06:46:36Z</time>
      </trkpt>
      <trkpt lat="42.816471979022026" lon="0.914592035114765">
        <ele>1431</ele>
        <time>2026-04-29T06:46:46Z</time>
      </trkpt>
      <trkpt lat="42.816451024264097" lon="0.914628999307752">
        <ele>1432</ele>
        <time>2026-04-29T06:46:52Z</time>
      </trkpt>
      <trkpt lat="42.816417999565601" lon="0.914653977379203">
        <ele>1433</ele>
        <time>2026-04-29T06:46:58Z</time>
      </trkpt>
      <trkpt lat="42.81637298874557" lon="0.914677027612925">
        <ele>1434</ele>
        <time>2026-04-29T06:47:06Z</time>
      </trkpt>
      <trkpt lat="42.816332001239061" lon="0.914691025391221">
        <ele>1434</ele>
        <time>2026-04-29T06:47:12Z</time>
      </trkpt>
      <trkpt lat="42.81628699041903" lon="0.914702005684376">
        <ele>1434</ele>
        <time>2026-04-29T06:47:20Z</time>
      </trkpt>
      <trkpt lat="42.816234016790986" lon="0.914685996249318">
        <ele>1434</ele>
        <time>2026-04-29T06:47:30Z</time>
      </trkpt>
      <trkpt lat="42.816195040941238" lon="0.914644002914429">
        <ele>1436</ele>
        <time>2026-04-29T06:47:40Z</time>
      </trkpt>
      <trkpt lat="42.816118011251092" lon="0.914630005136132">
        <ele>1437</ele>
        <time>2026-04-29T06:47:52Z</time>
      </trkpt>
      <trkpt lat="42.816090015694499" lon="0.914592035114765">
        <ele>1436</ele>
        <time>2026-04-29T06:47:58Z</time>
      </trkpt>
      <trkpt lat="42.816019020974636" lon="0.914506958797574">
        <ele>1438</ele>
        <time>2026-04-29T06:48:52Z</time>
      </trkpt>
      <trkpt lat="42.815923970192671" lon="0.914541995152831">
        <ele>1438</ele>
        <time>2026-04-29T06:49:08Z</time>
      </trkpt>
      <trkpt lat="42.815870996564627" lon="0.914478041231632">
        <ele>1444</ele>
        <time>2026-04-29T06:49:30Z</time>
      </trkpt>
      <trkpt lat="42.815838977694511" lon="0.914446022361517">
        <ele>1449</ele>
        <time>2026-04-29T06:49:50Z</time>
      </trkpt>
      <trkpt lat="42.815809976309538" lon="0.914472006261349">
        <ele>1450</ele>
        <time>2026-04-29T06:49:58Z</time>
      </trkpt>
      <trkpt lat="42.815763959661126" lon="0.914495978504419">
        <ele>1452</ele>
        <time>2026-04-29T06:50:10Z</time>
      </trkpt>
      <trkpt lat="42.81572699546814" lon="0.9144969843328">
        <ele>1456</ele>
        <time>2026-04-29T06:50:24Z</time>
      </trkpt>
      <trkpt lat="42.815681984648108" lon="0.914482986554503">
        <ele>1459</ele>
        <time>2026-04-29T06:50:38Z</time>
      </trkpt>
      <trkpt lat="42.815647032111883" lon="0.914509976282716">
        <ele>1460</ele>
        <time>2026-04-29T06:50:50Z</time>
      </trkpt>
      <trkpt lat="42.815609984099865" lon="0.914523974061012">
        <ele>1462</ele>
        <time>2026-04-29T06:51:00Z</time>
      </trkpt>
      <trkpt lat="42.815564973279834" lon="0.914506036788225">
        <ele>1463</ele>
        <time>2026-04-29T06:51:10Z</time>
      </trkpt>
      <trkpt lat="42.815522979944944" lon="0.914497990161181">
        <ele>1464</ele>
        <time>2026-04-29T06:51:18Z</time>
      </trkpt>
      <trkpt lat="42.815443016588688" lon="0.914502013474703">
        <ele>1466</ele>
        <time>2026-04-29T06:51:36Z</time>
      </trkpt>
      <trkpt lat="42.815348971635103" lon="0.914527997374535">
        <ele>1467</ele>
        <time>2026-04-29T06:52:00Z</time>
      </trkpt>
      <trkpt lat="42.815256016328931" lon="0.914523974061012">
        <ele>1473</ele>
        <time>2026-04-29T06:52:36Z</time>
      </trkpt>
      <trkpt lat="42.815160965546966" lon="0.914509976282716">
        <ele>1475</ele>
        <time>2026-04-29T06:52:56Z</time>
      </trkpt>
      <trkpt lat="42.815064992755651" lon="0.914502013474703">
        <ele>1480</ele>
        <time>2026-04-29T06:53:20Z</time>
      </trkpt>
      <trkpt lat="42.814962984994054" lon="0.914484998211265">
        <ele>1484</ele>
        <time>2026-04-29T06:53:52Z</time>
      </trkpt>
      <trkpt lat="42.814900036901236" lon="0.914433030411601">
        <ele>1492</ele>
        <time>2026-04-29T06:56:36Z</time>
      </trkpt>
      <trkpt lat="42.814853014424443" lon="0.91447502374649">
        <ele>1497</ele>
        <time>2026-04-29T07:09:20Z</time>
      </trkpt>
      <trkpt lat="42.814783025532961" lon="0.914449961856008">
        <ele>1497</ele>
        <time>2026-04-29T07:09:30Z</time>
      </trkpt>
      <trkpt lat="42.814734997227788" lon="0.91447502374649">
        <ele>1496</ele>
        <time>2026-04-29T07:09:42Z</time>
      </trkpt>
      <trkpt lat="42.81469602137804" lon="0.914448034018278">
        <ele>1496</ele>
        <time>2026-04-29T07:09:56Z</time>
      </trkpt>
      <trkpt lat="42.814598036929965" lon="0.914428001269698">
        <ele>1498</ele>
        <time>2026-04-29T07:10:34Z</time>
      </trkpt>
      <trkpt lat="42.814518995583057" lon="0.914365975186229">
        <ele>1505</ele>
        <time>2026-04-29T07:11:10Z</time>
      </trkpt>
      <trkpt lat="42.814430985599756" lon="0.914292968809605">
        <ele>1511</ele>
        <time>2026-04-29T07:12:02Z</time>
      </trkpt>
      <trkpt lat="42.814339036121964" lon="0.914342002943158">
        <ele>1519</ele>
        <time>2026-04-29T07:12:26Z</time>
      </trkpt>
      <trkpt lat="42.814243985339999" lon="0.914277965202928">
        <ele>1524</ele>
        <time>2026-04-29T07:13:24Z</time>
      </trkpt>
      <trkpt lat="42.814149018377066" lon="0.914228009060025">
        <ele>1527</ele>
        <time>2026-04-29T07:13:54Z</time>
      </trkpt>
      <trkpt lat="42.81405002810061" lon="0.914217028766871">
        <ele>1529</ele>
        <time>2026-04-29T07:14:20Z</time>
      </trkpt>
      <trkpt lat="42.813946008682251" lon="0.914204958826303">
        <ele>1538</ele>
        <time>2026-04-29T07:14:50Z</time>
      </trkpt>
      <trkpt lat="42.813855987042189" lon="0.914185009896755">
        <ele>1539</ele>
        <time>2026-04-29T07:15:16Z</time>
      </trkpt>
      <trkpt lat="42.813758002594113" lon="0.914213005453348">
        <ele>1542</ele>
        <time>2026-04-29T07:15:58Z</time>
      </trkpt>
      <trkpt lat="42.813664963468909" lon="0.914188027381897">
        <ele>1545</ele>
        <time>2026-04-29T07:16:34Z</time>
      </trkpt>
      <trkpt lat="42.813576031476259" lon="0.914233038201928">
        <ele>1551</ele>
        <time>2026-04-29T07:17:14Z</time>
      </trkpt>
      <trkpt lat="42.813479974865913" lon="0.914190961048007">
        <ele>1555</ele>
        <time>2026-04-29T07:17:54Z</time>
      </trkpt>
      <trkpt lat="42.813362963497639" lon="0.91415299102664">
        <ele>1564</ele>
        <time>2026-04-29T07:18:32Z</time>
      </trkpt>
      <trkpt lat="42.813260033726692" lon="0.914076967164874">
        <ele>1567</ele>
        <time>2026-04-29T07:19:26Z</time>
      </trkpt>
      <trkpt lat="42.813173029571772" lon="0.913984011858702">
        <ele>1578</ele>
        <time>2026-04-29T07:20:08Z</time>
      </trkpt>
      <trkpt lat="42.813077978789806" lon="0.913989963009954">
        <ele>1581</ele>
        <time>2026-04-29T07:20:44Z</time>
      </trkpt>
      <trkpt lat="42.812981000170112" lon="0.913956016302109">
        <ele>1587</ele>
        <time>2026-04-29T07:21:12Z</time>
      </trkpt>
      <trkpt lat="42.81289198435843" lon="0.914000021293759">
        <ele>1588</ele>
        <time>2026-04-29T07:21:44Z</time>
      </trkpt>
      <trkpt lat="42.812792994081974" lon="0.914035979658365">
        <ele>1598</ele>
        <time>2026-04-29T07:22:28Z</time>
      </trkpt>
      <trkpt lat="42.81269702129066" lon="0.914009995758533">
        <ele>1600</ele>
        <time>2026-04-29T07:23:16Z</time>
      </trkpt>
      <trkpt lat="42.81261102296412" lon="0.913957022130489">
        <ele>1612</ele>
        <time>2026-04-29T07:24:02Z</time>
      </trkpt>
      <trkpt lat="42.812511026859283" lon="0.913949981331825">
        <ele>1615</ele>
        <time>2026-04-29T07:24:50Z</time>
      </trkpt>
      <trkpt lat="42.812408013269305" lon="0.913977976888418">
        <ele>1628</ele>
        <time>2026-04-29T07:25:40Z</time>
      </trkpt>
      <trkpt lat="42.812320003286004" lon="0.913954004645348">
        <ele>1631</ele>
        <time>2026-04-29T07:26:28Z</time>
      </trkpt>
      <trkpt lat="42.812228975817561" lon="0.913948975503445">
        <ele>1639</ele>
        <time>2026-04-29T07:27:04Z</time>
      </trkpt>
      <trkpt lat="42.812123028561473" lon="0.913897007703781">
        <ele>1641</ele>
        <time>2026-04-29T07:27:46Z</time>
      </trkpt>
      <trkpt lat="42.812025966122746" lon="0.913848979398608">
        <ele>1646</ele>
        <time>2026-04-29T07:28:42Z</time>
      </trkpt>
      <trkpt lat="42.811918007209897" lon="0.913849985226989">
        <ele>1649</ele>
        <time>2026-04-29T07:29:18Z</time>
      </trkpt>
      <trkpt lat="42.811841983348131" lon="0.913779996335506">
        <ele>1658</ele>
        <time>2026-04-29T07:30:02Z</time>
      </trkpt>
      <trkpt lat="42.811766965314746" lon="0.913712019100785">
        <ele>1660</ele>
        <time>2026-04-29T07:30:28Z</time>
      </trkpt>
      <trkpt lat="42.811682978644967" lon="0.913769016042352">
        <ele>1664</ele>
        <time>2026-04-29T07:31:06Z</time>
      </trkpt>
      <trkpt lat="42.811587005853653" lon="0.913730040192604">
        <ele>1670</ele>
        <time>2026-04-29T07:32:04Z</time>
      </trkpt>
      <trkpt lat="42.811493966728449" lon="0.913768010213971">
        <ele>1693</ele>
        <time>2026-04-29T07:33:08Z</time>
      </trkpt>
      <trkpt lat="42.811405034735799" lon="0.913800029084086">
        <ele>1694</ele>
        <time>2026-04-29T07:33:34Z</time>
      </trkpt>
      <trkpt lat="42.811295986175537" lon="0.913791982457042">
        <ele>1702</ele>
        <time>2026-04-29T07:34:20Z</time>
      </trkpt>
      <trkpt lat="42.811152990907431" lon="0.913736997172236">
        <ele>1707</ele>
        <time>2026-04-29T07:35:46Z</time>
      </trkpt>
      <trkpt lat="42.811059029772878" lon="0.913753006607294">
        <ele>1713</ele>
        <time>2026-04-29T07:36:26Z</time>
      </trkpt>
      <trkpt lat="42.810972025617957" lon="0.913719981908798">
        <ele>1717</ele>
        <time>2026-04-29T07:37:18Z</time>
      </trkpt>
      <trkpt lat="42.810891978442669" lon="0.913663990795612">
        <ele>1726</ele>
        <time>2026-04-29T07:38:14Z</time>
      </trkpt>
      <trkpt lat="42.810819977894425" lon="0.913587966933846">
        <ele>1731</ele>
        <time>2026-04-29T07:38:54Z</time>
      </trkpt>
      <trkpt lat="42.810718975961208" lon="0.913583021610975">
        <ele>1740</ele>
        <time>2026-04-29T07:39:48Z</time>
      </trkpt>
      <trkpt lat="42.810628032311797" lon="0.913600958883762">
        <ele>1747</ele>
        <time>2026-04-29T07:40:38Z</time>
      </trkpt>
      <trkpt lat="42.810539016500115" lon="0.913599031046033">
        <ele>1752</ele>
        <time>2026-04-29T07:41:42Z</time>
      </trkpt>
      <trkpt lat="42.810450000688434" lon="0.913519989699125">
        <ele>1753</ele>
        <time>2026-04-29T07:42:26Z</time>
      </trkpt>
      <trkpt lat="42.810417981818318" lon="0.913498029112816">
        <ele>1759</ele>
        <time>2026-04-29T07:42:54Z</time>
      </trkpt>
      <trkpt lat="42.81037699431181" lon="0.913485959172249">
        <ele>1763</ele>
        <time>2026-04-29T07:43:22Z</time>
      </trkpt>
      <trkpt lat="42.810345981270075" lon="0.913458969444036">
        <ele>1767</ele>
        <time>2026-04-29T07:43:32Z</time>
      </trkpt>
      <trkpt lat="42.810309017077088" lon="0.913434997200966">
        <ele>1769</ele>
        <time>2026-04-29T07:43:46Z</time>
      </trkpt>
      <trkpt lat="42.810266017913818" lon="0.913470033556223">
        <ele>1770</ele>
        <time>2026-04-29T07:44:02Z</time>
      </trkpt>
      <trkpt lat="42.810218995437026" lon="0.913497023284435">
        <ele>1772</ele>
        <time>2026-04-29T07:44:20Z</time>
      </trkpt>
      <trkpt lat="42.81018203124404" lon="0.913455029949546">
        <ele>1774</ele>
        <time>2026-04-29T07:44:42Z</time>
      </trkpt>
      <trkpt lat="42.810145989060402" lon="0.913475984707475">
        <ele>1776</ele>
        <time>2026-04-29T07:44:54Z</time>
      </trkpt>
      <trkpt lat="42.810108019039035" lon="0.913496017456055">
        <ele>1777</ele>
        <time>2026-04-29T07:45:14Z</time>
      </trkpt>
      <trkpt lat="42.810025038197637" lon="0.913443965837359">
        <ele>1782</ele>
        <time>2026-04-29T07:46:12Z</time>
      </trkpt>
      <trkpt lat="42.809925964102149" lon="0.913425022736192">
        <ele>1787</ele>
        <time>2026-04-29T07:47:42Z</time>
      </trkpt>
      <trkpt lat="42.80983803793788" lon="0.913376994431019">
        <ele>1801</ele>
        <time>2026-04-29T07:48:24Z</time>
      </trkpt>
      <trkpt lat="42.809747010469437" lon="0.913359979167581">
        <ele>1807</ele>
        <time>2026-04-29T07:49:38Z</time>
      </trkpt>
      <trkpt lat="42.809651959687471" lon="0.913343969732523">
        <ele>1825</ele>
        <time>2026-04-29T07:50:44Z</time>
      </trkpt>
      <trkpt lat="42.809565039351583" lon="0.913383029401302">
        <ele>1829</ele>
        <time>2026-04-29T07:51:40Z</time>
      </trkpt>
      <trkpt lat="42.809522962197661" lon="0.913274986669421">
        <ele>1843</ele>
        <time>2026-04-29T07:52:14Z</time>
      </trkpt>
      <trkpt lat="42.809438975527883" lon="0.913235004991293">
        <ele>1850</ele>
        <time>2026-04-29T07:53:08Z</time>
      </trkpt>
      <trkpt lat="42.809347026050091" lon="0.913274986669421">
        <ele>1871</ele>
        <time>2026-04-29T07:54:06Z</time>
      </trkpt>
      <trkpt lat="42.809250969439745" lon="0.913287978619337">
        <ele>1880</ele>
        <time>2026-04-29T07:54:50Z</time>
      </trkpt>
      <trkpt lat="42.809167988598347" lon="0.913347993046045">
        <ele>1885</ele>
        <time>2026-04-29T07:55:54Z</time>
      </trkpt>
      <trkpt lat="42.80908802524209" lon="0.91344497166574">
        <ele>1885</ele>
        <time>2026-04-29T07:57:12Z</time>
      </trkpt>
      <trkpt lat="42.80900202691555" lon="0.913374982774258">
        <ele>1885</ele>
        <time>2026-04-29T07:57:56Z</time>
      </trkpt>
      <trkpt lat="42.808912005275488" lon="0.913413958624005">
        <ele>1888</ele>
        <time>2026-04-29T07:58:36Z</time>
      </trkpt>
      <trkpt lat="42.80883003026247" lon="0.913350004702806">
        <ele>1892</ele>
        <time>2026-04-29T07:59:38Z</time>
      </trkpt>
      <trkpt lat="42.808774039149284" lon="0.913244979456067">
        <ele>1893</ele>
        <time>2026-04-29T08:01:02Z</time>
      </trkpt>
      <trkpt lat="42.808678988367319" lon="0.913244979456067">
        <ele>1893</ele>
        <time>2026-04-29T08:01:40Z</time>
      </trkpt>
      <trkpt lat="42.808630038052797" lon="0.913141965866089">
        <ele>1894</ele>
        <time>2026-04-29T08:02:42Z</time>
      </trkpt>
      <trkpt lat="42.808576980605721" lon="0.913043981418014">
        <ele>1897</ele>
        <time>2026-04-29T08:04:34Z</time>
      </trkpt>
      <trkpt lat="42.808495005592704" lon="0.912970975041389">
        <ele>1908</ele>
        <time>2026-04-29T08:05:10Z</time>
      </trkpt>
      <trkpt lat="42.808454018086195" lon="0.912905009463429">
        <ele>1913</ele>
        <time>2026-04-29T08:06:04Z</time>
      </trkpt>
      <trkpt lat="42.808428034186363" lon="0.912857986986637">
        <ele>1915</ele>
        <time>2026-04-29T08:06:22Z</time>
      </trkpt>
      <trkpt lat="42.808414036408067" lon="0.912815993651748">
        <ele>1915</ele>
        <time>2026-04-29T08:06:30Z</time>
      </trkpt>
      <trkpt lat="42.808374976739287" lon="0.912818005308509">
        <ele>1916</ele>
        <time>2026-04-29T08:07:36Z</time>
      </trkpt>
      <trkpt lat="42.808362990617752" lon="0.912858992815018">
        <ele>1919</ele>
        <time>2026-04-29T08:13:08Z</time>
      </trkpt>
      <trkpt lat="42.808338012546301" lon="0.912896962836385">
        <ele>1919</ele>
        <time>2026-04-29T08:13:14Z</time>
      </trkpt>
      <trkpt lat="42.808310016989708" lon="0.912931999191642">
        <ele>1923</ele>
        <time>2026-04-29T08:13:26Z</time>
      </trkpt>
      <trkpt lat="42.80827296897769" lon="0.912927975878119">
        <ele>1927</ele>
        <time>2026-04-29T08:14:06Z</time>
      </trkpt>
      <trkpt lat="42.808238016441464" lon="0.912923030555248">
        <ele>1938</ele>
        <time>2026-04-29T08:14:54Z</time>
      </trkpt>
      <trkpt lat="42.808151012286544" lon="0.91288598254323">
        <ele>1941</ele>
        <time>2026-04-29T08:15:46Z</time>
      </trkpt>
      <trkpt lat="42.808065013960004" lon="0.91284298337996">
        <ele>1952</ele>
        <time>2026-04-29T08:16:44Z</time>
      </trkpt>
      <trkpt lat="42.807973986491561" lon="0.912824040278792">
        <ele>1956</ele>
        <time>2026-04-29T08:17:44Z</time>
      </trkpt>
      <trkpt lat="42.80788597650826" lon="0.912838960066438">
        <ele>1970</ele>
        <time>2026-04-29T08:18:44Z</time>
      </trkpt>
      <trkpt lat="42.807788997888565" lon="0.912787998095155">
        <ele>1974</ele>
        <time>2026-04-29T08:19:10Z</time>
      </trkpt>
      <trkpt lat="42.807752033695579" lon="0.912777017802">
        <ele>1978</ele>
        <time>2026-04-29T08:19:38Z</time>
      </trkpt>
      <trkpt lat="42.807711968198419" lon="0.912797972559929">
        <ele>1982</ele>
        <time>2026-04-29T08:20:16Z</time>
      </trkpt>
      <trkpt lat="42.807672992348671" lon="0.912798978388309">
        <ele>1985</ele>
        <time>2026-04-29T08:20:22Z</time>
      </trkpt>
      <trkpt lat="42.807634016498923" lon="0.912825968116522">
        <ele>1987</ele>
        <time>2026-04-29T08:21:06Z</time>
      </trkpt>
      <trkpt lat="42.807598980143666" lon="0.91284298337996">
        <ele>1990</ele>
        <time>2026-04-29T08:21:24Z</time>
      </trkpt>
      <trkpt lat="42.807518010959029" lon="0.912902997806668">
        <ele>1990</ele>
        <time>2026-04-29T08:21:44Z</time>
      </trkpt>
      <trkpt lat="42.807494038715959" lon="0.912839965894818">
        <ele>1994</ele>
        <time>2026-04-29T08:22:16Z</time>
      </trkpt>
      <trkpt lat="42.807448022067547" lon="0.912823034450412">
        <ele>1997</ele>
        <time>2026-04-29T08:22:56Z</time>
      </trkpt>
      <trkpt lat="42.807445004582405" lon="0.912878019735217">
        <ele>2000</ele>
        <time>2026-04-29T08:23:36Z</time>
      </trkpt>
      <trkpt lat="42.807414997369051" lon="0.912907021120191">
        <ele>2005</ele>
        <time>2026-04-29T08:24:04Z</time>
      </trkpt>
      <trkpt lat="42.807375015690923" lon="0.912896040827036">
        <ele>2007</ele>
        <time>2026-04-29T08:24:24Z</time>
      </trkpt>
      <trkpt lat="42.807330004870892" lon="0.912875002250075">
        <ele>2008</ele>
        <time>2026-04-29T08:24:34Z</time>
      </trkpt>
      <trkpt lat="42.807294968515635" lon="0.912829991430044">
        <ele>2009</ele>
        <time>2026-04-29T08:24:48Z</time>
      </trkpt>
      <trkpt lat="42.807222967967391" lon="0.912877013906837">
        <ele>2017</ele>
        <time>2026-04-29T08:25:46Z</time>
      </trkpt>
      <trkpt lat="42.807187009602785" lon="0.912881037220359">
        <ele>2020</ele>
        <time>2026-04-29T08:26:06Z</time>
      </trkpt>
      <trkpt lat="42.807139987125993" lon="0.912924958392978">
        <ele>2027</ele>
        <time>2026-04-29T08:26:30Z</time>
      </trkpt>
      <trkpt lat="42.807103022933006" lon="0.912921018898487">
        <ele>2030</ele>
        <time>2026-04-29T08:27:46Z</time>
      </trkpt>
      <trkpt lat="42.807061029598117" lon="0.912841977551579">
        <ele>2033</ele>
        <time>2026-04-29T08:28:14Z</time>
      </trkpt>
      <trkpt lat="42.80704996548593" lon="0.912790009751916">
        <ele>2036</ele>
        <time>2026-04-29T08:28:32Z</time>
      </trkpt>
      <trkpt lat="42.807023981586099" lon="0.91275698505342">
        <ele>2042</ele>
        <time>2026-04-29T08:29:00Z</time>
      </trkpt>
      <trkpt lat="42.806989029049873" lon="0.912741981446743">
        <ele>2045</ele>
        <time>2026-04-29T08:29:24Z</time>
      </trkpt>
      <trkpt lat="42.806954998522997" lon="0.912760002538562">
        <ele>2045</ele>
        <time>2026-04-29T08:29:38Z</time>
      </trkpt>
      <trkpt lat="42.806919040158391" lon="0.912772994488478">
        <ele>2048</ele>
        <time>2026-04-29T08:30:00Z</time>
      </trkpt>
      <trkpt lat="42.80687796883285" lon="0.912766037508845">
        <ele>2049</ele>
        <time>2026-04-29T08:30:19Z</time>
      </trkpt>
      <trkpt lat="42.806827006861567" lon="0.912747010588646">
        <ele>2054</ele>
        <time>2026-04-29T08:30:47Z</time>
      </trkpt>
      <trkpt lat="42.806793982163072" lon="0.912765031680465">
        <ele>2055</ele>
        <time>2026-04-29T08:31:04Z</time>
      </trkpt>
      <trkpt lat="42.806774033233523" lon="0.912726977840066">
        <ele>2059</ele>
        <time>2026-04-29T08:31:23Z</time>
      </trkpt>
      <trkpt lat="42.806750982999802" lon="0.912684984505177">
        <ele>2061</ele>
        <time>2026-04-29T08:31:39Z</time>
      </trkpt>
      <trkpt lat="42.806732039898634" lon="0.912647014483809">
        <ele>2066</ele>
        <time>2026-04-29T08:31:59Z</time>
      </trkpt>
      <trkpt lat="42.806695997714996" lon="0.912652965635061">
        <ele>2069</ele>
        <time>2026-04-29T08:32:25Z</time>
      </trkpt>
      <trkpt lat="42.806660961359739" lon="0.912665035575628">
        <ele>2074</ele>
        <time>2026-04-29T08:32:49Z</time>
      </trkpt>
      <trkpt lat="42.806636989116669" lon="0.912629999220371">
        <ele>2076</ele>
        <time>2026-04-29T08:33:11Z</time>
      </trkpt>
      <trkpt lat="42.80661896802485" lon="0.912591023370624">
        <ele>2078</ele>
        <time>2026-04-29T08:33:27Z</time>
      </trkpt>
      <trkpt lat="42.806590972468257" lon="0.912560010328889">
        <ele>2079</ele>
        <time>2026-04-29T08:33:41Z</time>
      </trkpt>
      <trkpt lat="42.806565994396806" lon="0.912527991458774">
        <ele>2081</ele>
        <time>2026-04-29T08:33:57Z</time>
      </trkpt>
      <trkpt lat="42.806481001898646" lon="0.912593035027385">
        <ele>2084</ele>
        <time>2026-04-29T08:34:43Z</time>
      </trkpt>
      <trkpt lat="42.806402966380119" lon="0.912512987852097">
        <ele>2086</ele>
        <time>2026-04-29T08:35:35Z</time>
      </trkpt>
      <trkpt lat="42.806315962225199" lon="0.912487003952265">
        <ele>2093</ele>
        <time>2026-04-29T08:37:03Z</time>
      </trkpt>
      <trkpt lat="42.80623197555542" lon="0.91243595816195">
        <ele>2096</ele>
        <time>2026-04-29T08:39:31Z</time>
      </trkpt>
      <trkpt lat="42.806155029684305" lon="0.912355994805694">
        <ele>2112</ele>
        <time>2026-04-29T08:42:23Z</time>
      </trkpt>
      <trkpt lat="42.806075988337398" lon="0.912285000085831">
        <ele>2115</ele>
        <time>2026-04-29T08:52:12Z</time>
      </trkpt>
      <trkpt lat="42.805978003889322" lon="0.91230302117765">
        <ele>2130</ele>
        <time>2026-04-29T08:55:49Z</time>
      </trkpt>
      <trkpt lat="42.805971968919039" lon="0.91230402700603">
        <ele>2130</ele>
        <time>2026-04-29T08:56:24Z</time>
      </trkpt>
      <trkpt lat="42.805851018056273" lon="0.9123470261693">
        <ele>2132</ele>
        <time>2026-04-29T08:56:58Z</time>
      </trkpt>
      <trkpt lat="42.805770970880985" lon="0.912226997315884">
        <ele>2136</ele>
        <time>2026-04-29T09:07:18Z</time>
      </trkpt>
      <trkpt lat="42.80567298643291" lon="0.912234960123897">
        <ele>2131</ele>
        <time>2026-04-29T09:07:38Z</time>
      </trkpt>
      <trkpt lat="42.805563015863299" lon="0.912206964567304">
        <ele>2146</ele>
        <time>2026-04-29T09:09:34Z</time>
      </trkpt>
      <trkpt lat="42.805465031415224" lon="0.912167988717556">
        <ele>2160</ele>
        <time>2026-04-29T09:10:30Z</time>
      </trkpt>
      <trkpt lat="42.805370986461639" lon="0.912135969847441">
        <ele>2164</ele>
        <time>2026-04-29T09:11:28Z</time>
      </trkpt>
      <trkpt lat="42.805304015055299" lon="0.91204795986414">
        <ele>2175</ele>
        <time>2026-04-29T09:12:48Z</time>
      </trkpt>
      <trkpt lat="42.805212987586856" lon="0.912000015377998">
        <ele>2176</ele>
        <time>2026-04-29T09:13:28Z</time>
      </trkpt>
      <trkpt lat="42.805183986201882" lon="0.911885015666485">
        <ele>2179</ele>
        <time>2026-04-29T09:14:34Z</time>
      </trkpt>
      <trkpt lat="42.805151967331767" lon="0.911760963499546">
        <ele>2181</ele>
        <time>2026-04-29T09:15:36Z</time>
      </trkpt>
      <trkpt lat="42.805247018113732" lon="0.911731040105224">
        <ele>2182</ele>
        <time>2026-04-29T09:16:18Z</time>
      </trkpt>
      <trkpt lat="42.805332010611892" lon="0.911683011800051">
        <ele>2191</ele>
        <time>2026-04-29T09:18:06Z</time>
      </trkpt>
      <trkpt lat="42.805426977574825" lon="0.911705978214741">
        <ele>2198</ele>
        <time>2026-04-29T09:19:02Z</time>
      </trkpt>
      <trkpt lat="42.805486992001534" lon="0.91159600764513">
        <ele>2212</ele>
        <time>2026-04-29T09:20:16Z</time>
      </trkpt>
      <trkpt lat="42.805580031126738" lon="0.911581004038453">
        <ele>2217</ele>
        <time>2026-04-29T09:21:16Z</time>
      </trkpt>
      <trkpt lat="42.805609032511711" lon="0.91155300848186">
        <ele>2223</ele>
        <time>2026-04-29T09:24:32Z</time>
      </trkpt>
      <trkpt lat="42.805623030290008" lon="0.91150900349021">
        <ele>2224</ele>
        <time>2026-04-29T09:24:42Z</time>
      </trkpt>
      <trkpt lat="42.805655971169472" lon="0.911492994055152">
        <ele>2227</ele>
        <time>2026-04-29T09:25:06Z</time>
      </trkpt>
      <trkpt lat="42.805730989202857" lon="0.911468015983701">
        <ele>2234</ele>
        <time>2026-04-29T09:26:06Z</time>
      </trkpt>
      <trkpt lat="42.805768959224224" lon="0.91146701015532">
        <ele>2235</ele>
        <time>2026-04-29T09:26:14Z</time>
      </trkpt>
      <trkpt lat="42.805787986144423" lon="0.911409007385373">
        <ele>2237</ele>
        <time>2026-04-29T09:26:24Z</time>
      </trkpt>
      <trkpt lat="42.805768037214875" lon="0.911370031535625">
        <ele>2239</ele>
        <time>2026-04-29T09:26:44Z</time>
      </trkpt>
      <trkpt lat="42.805794021114707" lon="0.911329966038466">
        <ele>2242</ele>
        <time>2026-04-29T09:27:10Z</time>
      </trkpt>
      <trkpt lat="42.805829979479313" lon="0.911341030150652">
        <ele>2242</ele>
        <time>2026-04-29T09:27:20Z</time>
      </trkpt>
      <trkpt lat="42.8058220166713" lon="0.911289984360337">
        <ele>2248</ele>
        <time>2026-04-29T09:27:32Z</time>
      </trkpt>
      <trkpt lat="42.805855963379145" lon="0.91127104125917">
        <ele>2249</ele>
        <time>2026-04-29T09:27:46Z</time>
      </trkpt>
      <trkpt lat="42.805868033319712" lon="0.911222007125616">
        <ele>2253</ele>
        <time>2026-04-29T09:28:06Z</time>
      </trkpt>
      <trkpt lat="42.805867027491331" lon="0.911171967163682">
        <ele>2256</ele>
        <time>2026-04-29T09:28:24Z</time>
      </trkpt>
      <trkpt lat="42.805857975035906" lon="0.91112201102078">
        <ele>2259</ele>
        <time>2026-04-29T09:28:42Z</time>
      </trkpt>
      <trkpt lat="42.805869039148092" lon="0.911072976887226">
        <ele>2260</ele>
        <time>2026-04-29T09:28:56Z</time>
      </trkpt>
      <trkpt lat="42.805902985855937" lon="0.911047998815775">
        <ele>2261</ele>
        <time>2026-04-29T09:29:06Z</time>
      </trkpt>
      <trkpt lat="42.805892005562782" lon="0.910997036844492">
        <ele>2263</ele>
        <time>2026-04-29T09:29:22Z</time>
      </trkpt>
      <trkpt lat="42.805896028876305" lon="0.910942973569036">
        <ele>2266</ele>
        <time>2026-04-29T09:29:34Z</time>
      </trkpt>
      <trkpt lat="42.805897034704685" lon="0.910896034911275">
        <ele>2267</ele>
        <time>2026-04-29T09:29:44Z</time>
      </trkpt>
      <trkpt lat="42.805899968370795" lon="0.910850018262863">
        <ele>2269</ele>
        <time>2026-04-29T09:34:12Z</time>
      </trkpt>
      <trkpt lat="42.805898962542415" lon="0.910798972472548">
        <ele>2269</ele>
        <time>2026-04-29T09:34:18Z</time>
      </trkpt>
      <trkpt lat="42.805846994742751" lon="0.910655977204442">
        <ele>2276</ele>
        <time>2026-04-29T09:34:52Z</time>
      </trkpt>
      <trkpt lat="42.805840037763119" lon="0.910551035776734">
        <ele>2277</ele>
        <time>2026-04-29T09:35:12Z</time>
      </trkpt>
      <trkpt lat="42.805835008621216" lon="0.910491021350026">
        <ele>2278</ele>
        <time>2026-04-29T09:35:20Z</time>
      </trkpt>
      <trkpt lat="42.805830985307693" lon="0.91043796390295">
        <ele>2280</ele>
        <time>2026-04-29T09:35:28Z</time>
      </trkpt>
      <trkpt lat="42.805806007236242" lon="0.910380966961384">
        <ele>2281</ele>
        <time>2026-04-29T09:36:04Z</time>
      </trkpt>
      <trkpt lat="42.805785974487662" lon="0.910330004990101">
        <ele>2281</ele>
        <time>2026-04-29T09:36:40Z</time>
      </trkpt>
      <trkpt lat="42.805740041658282" lon="0.910065975040197">
        <ele>2284</ele>
        <time>2026-04-29T09:37:10Z</time>
      </trkpt>
      <trkpt lat="42.805727971717715" lon="0.910013001412153">
        <ele>2284</ele>
        <time>2026-04-29T09:37:16Z</time>
      </trkpt>
      <trkpt lat="42.805719003081322" lon="0.909906970337033">
        <ele>2286</ele>
        <time>2026-04-29T09:37:30Z</time>
      </trkpt>
      <trkpt lat="42.805698970332742" lon="0.909694992005825">
        <ele>2290</ele>
        <time>2026-04-29T09:38:02Z</time>
      </trkpt>
      <trkpt lat="42.805673992261291" lon="0.909536993131042">
        <ele>2293</ele>
        <time>2026-04-29T09:38:26Z</time>
      </trkpt>
      <trkpt lat="42.805653037503362" lon="0.909441020339727">
        <ele>2293</ele>
        <time>2026-04-29T09:38:42Z</time>
      </trkpt>
      <trkpt lat="42.805653959512711" lon="0.909389974549413">
        <ele>2294</ele>
        <time>2026-04-29T09:38:50Z</time>
      </trkpt>
      <trkpt lat="42.805645996704698" lon="0.909288972616196">
        <ele>2296</ele>
        <time>2026-04-29T09:39:10Z</time>
      </trkpt>
      <trkpt lat="42.805645996704698" lon="0.909235998988152">
        <ele>2297</ele>
        <time>2026-04-29T09:39:18Z</time>
      </trkpt>
      <trkpt lat="42.805644990876317" lon="0.909184031188488">
        <ele>2299</ele>
        <time>2026-04-29T09:39:30Z</time>
      </trkpt>
      <trkpt lat="42.80565002001822" lon="0.909131979569793">
        <ele>2300</ele>
        <time>2026-04-29T09:39:46Z</time>
      </trkpt>
      <trkpt lat="42.805676003918052" lon="0.909027038142085">
        <ele>2304</ele>
        <time>2026-04-29T09:40:08Z</time>
      </trkpt>
      <trkpt lat="42.805666029453278" lon="0.908978004008532">
        <ele>2306</ele>
        <time>2026-04-29T09:40:16Z</time>
      </trkpt>
      <trkpt lat="42.805659994482994" lon="0.908873984590173">
        <ele>2307</ele>
        <time>2026-04-29T09:40:32Z</time>
      </trkpt>
      <trkpt lat="42.805610038340092" lon="0.90861096046865">
        <ele>2308</ele>
        <time>2026-04-29T09:41:06Z</time>
      </trkpt>
      <trkpt lat="42.805593023076653" lon="0.908561004325747">
        <ele>2307</ele>
        <time>2026-04-29T09:41:12Z</time>
      </trkpt>
      <trkpt lat="42.805526973679662" lon="0.908423960208893">
        <ele>2307</ele>
        <time>2026-04-29T09:41:30Z</time>
      </trkpt>
      <trkpt lat="42.805505013093352" lon="0.908321030437946">
        <ele>2309</ele>
        <time>2026-04-29T09:41:42Z</time>
      </trkpt>
      <trkpt lat="42.805481962859631" lon="0.908109974116087">
        <ele>2311</ele>
        <time>2026-04-29T09:42:10Z</time>
      </trkpt>
      <trkpt lat="42.805518005043268" lon="0.907849967479706">
        <ele>2314</ele>
        <time>2026-04-29T09:42:44Z</time>
      </trkpt>
      <trkpt lat="42.805528985336423" lon="0.907804034650326">
        <ele>2315</ele>
        <time>2026-04-29T09:42:52Z</time>
      </trkpt>
      <trkpt lat="42.805540971457958" lon="0.907753994688392">
        <ele>2316</ele>
        <time>2026-04-29T09:43:00Z</time>
      </trkpt>
      <trkpt lat="42.805547006428242" lon="0.907699009403586">
        <ele>2318</ele>
        <time>2026-04-29T09:43:08Z</time>
      </trkpt>
      <trkpt lat="42.80556402169168" lon="0.907484013587236">
        <ele>2322</ele>
        <time>2026-04-29T09:43:40Z</time>
      </trkpt>
      <trkpt lat="42.805571984499693" lon="0.907435985282063">
        <ele>2323</ele>
        <time>2026-04-29T09:43:46Z</time>
      </trkpt>
      <trkpt lat="42.805578019469976" lon="0.907382005825639">
        <ele>2324</ele>
        <time>2026-04-29T09:43:54Z</time>
      </trkpt>
      <trkpt lat="42.805584976449609" lon="0.907270023599267">
        <ele>2326</ele>
        <time>2026-04-29T09:44:10Z</time>
      </trkpt>
      <trkpt lat="42.805588999763131" lon="0.907219983637333">
        <ele>2327</ele>
        <time>2026-04-29T09:44:18Z</time>
      </trkpt>
      <trkpt lat="42.805582964792848" lon="0.907120993360877">
        <ele>2330</ele>
        <time>2026-04-29T09:44:36Z</time>
      </trkpt>
      <trkpt lat="42.805609032511711" lon="0.906972968950868">
        <ele>2335</ele>
        <time>2026-04-29T09:45:08Z</time>
      </trkpt>
      <trkpt lat="42.805615989491343" lon="0.906921001151204">
        <ele>2336</ele>
        <time>2026-04-29T09:45:18Z</time>
      </trkpt>
      <trkpt lat="42.805620012804866" lon="0.906874984502792">
        <ele>2337</ele>
        <time>2026-04-29T09:45:28Z</time>
      </trkpt>
      <trkpt lat="42.805639039725065" lon="0.906778005883098">
        <ele>2339</ele>
        <time>2026-04-29T09:45:50Z</time>
      </trkpt>
      <trkpt lat="42.805661000311375" lon="0.906682033091784">
        <ele>2341</ele>
        <time>2026-04-29T09:46:10Z</time>
      </trkpt>
      <trkpt lat="42.805671980604529" lon="0.90663299895823">
        <ele>2341</ele>
        <time>2026-04-29T09:46:22Z</time>
      </trkpt>
      <trkpt lat="42.805678015574813" lon="0.906580025330186">
        <ele>2343</ele>
        <time>2026-04-29T09:46:32Z</time>
      </trkpt>
      <trkpt lat="42.805708022788167" lon="0.906476005911827">
        <ele>2346</ele>
        <time>2026-04-29T09:46:54Z</time>
      </trkpt>
      <trkpt lat="42.805729983374476" lon="0.906333010643721">
        <ele>2349</ele>
        <time>2026-04-29T09:47:24Z</time>
      </trkpt>
      <trkpt lat="42.805734006687999" lon="0.906286993995309">
        <ele>2350</ele>
        <time>2026-04-29T09:47:32Z</time>
      </trkpt>
      <trkpt lat="42.805740041658282" lon="0.906239971518517">
        <ele>2350</ele>
        <time>2026-04-29T09:47:40Z</time>
      </trkpt>
      <trkpt lat="42.805739035829902" lon="0.906188003718853">
        <ele>2352</ele>
        <time>2026-04-29T09:47:48Z</time>
      </trkpt>
      <trkpt lat="42.805754961445928" lon="0.905981976538897">
        <ele>2355</ele>
        <time>2026-04-29T09:48:20Z</time>
      </trkpt>
      <trkpt lat="42.805765019729733" lon="0.90588198043406">
        <ele>2356</ele>
        <time>2026-04-29T09:48:34Z</time>
      </trkpt>
      <trkpt lat="42.805769965052605" lon="0.905821966007352">
        <ele>2356</ele>
        <time>2026-04-29T09:48:42Z</time>
      </trkpt>
      <trkpt lat="42.805764013901353" lon="0.905723981559277">
        <ele>2357</ele>
        <time>2026-04-29T09:48:54Z</time>
      </trkpt>
      <trkpt lat="42.805770970880985" lon="0.905676959082484">
        <ele>2358</ele>
        <time>2026-04-29T09:49:00Z</time>
      </trkpt>
      <trkpt lat="42.805773988366127" lon="0.905529018491507">
        <ele>2359</ele>
        <time>2026-04-29T09:49:18Z</time>
      </trkpt>
      <trkpt lat="42.805755967274308" lon="0.905489958822727">
        <ele>2360</ele>
        <time>2026-04-29T09:49:36Z</time>
      </trkpt>
      <trkpt lat="42.805789997801185" lon="0.905467998236418">
        <ele>2360</ele>
        <time>2026-04-29T09:50:28Z</time>
      </trkpt>
      <trkpt lat="42.805785974487662" lon="0.90540898963809">
        <ele>2361</ele>
        <time>2026-04-29T09:50:48Z</time>
      </trkpt>
      <trkpt lat="42.805769965052605" lon="0.905196005478501">
        <ele>2365</ele>
        <time>2026-04-29T09:51:18Z</time>
      </trkpt>
      <trkpt lat="42.805770970880985" lon="0.904975980520248">
        <ele>2369</ele>
        <time>2026-04-29T09:51:50Z</time>
      </trkpt>
      <trkpt lat="42.805772982537746" lon="0.904704993590713">
        <ele>2371</ele>
        <time>2026-04-29T09:52:24Z</time>
      </trkpt>
      <trkpt lat="42.805772982537746" lon="0.904658976942301">
        <ele>2371</ele>
        <time>2026-04-29T09:52:30Z</time>
      </trkpt>
      <trkpt lat="42.805794021114707" lon="0.90448496863246">
        <ele>2371</ele>
        <time>2026-04-29T09:52:50Z</time>
      </trkpt>
      <trkpt lat="42.805841965600848" lon="0.904243988916278">
        <ele>2372</ele>
        <time>2026-04-29T09:53:20Z</time>
      </trkpt>
      <trkpt lat="42.805858980864286" lon="0.904150027781725">
        <ele>2372</ele>
        <time>2026-04-29T09:53:32Z</time>
      </trkpt>
      <trkpt lat="42.805869961157441" lon="0.904106022790074">
        <ele>2372</ele>
        <time>2026-04-29T09:53:38Z</time>
      </trkpt>
      <trkpt lat="42.80588798224926" lon="0.904056988656521">
        <ele>2372</ele>
        <time>2026-04-29T09:53:44Z</time>
      </trkpt>
      <trkpt lat="42.805902985855937" lon="0.904008960351348">
        <ele>2372</ele>
        <time>2026-04-29T09:53:50Z</time>
      </trkpt>
      <trkpt lat="42.805952019989491" lon="0.903879962861538">
        <ele>2373</ele>
        <time>2026-04-29T09:54:08Z</time>
      </trkpt>
      <trkpt lat="42.805983033031225" lon="0.903786001726985">
        <ele>2375</ele>
        <time>2026-04-29T09:54:22Z</time>
      </trkpt>
      <trkpt lat="42.806029971688986" lon="0.903633031994104">
        <ele>2377</ele>
        <time>2026-04-29T09:54:48Z</time>
      </trkpt>
      <trkpt lat="42.806045981124043" lon="0.903587015345693">
        <ele>2378</ele>
        <time>2026-04-29T09:54:56Z</time>
      </trkpt>
      <trkpt lat="42.80610297806561" lon="0.903389034792781">
        <ele>2381</ele>
        <time>2026-04-29T09:55:28Z</time>
      </trkpt>
      <trkpt lat="42.806116975843906" lon="0.903276968747377">
        <ele>2383</ele>
        <time>2026-04-29T09:55:44Z</time>
      </trkpt>
      <trkpt lat="42.806131979450583" lon="0.903226006776094">
        <ele>2384</ele>
        <time>2026-04-29T09:55:50Z</time>
      </trkpt>
      <trkpt lat="42.806182019412518" lon="0.90295703150332">
        <ele>2386</ele>
        <time>2026-04-29T09:56:22Z</time>
      </trkpt>
      <trkpt lat="42.806205991655588" lon="0.902842031791806">
        <ele>2385</ele>
        <time>2026-04-29T09:56:34Z</time>
      </trkpt>
      <trkpt lat="42.806226024404168" lon="0.902778999879956">
        <ele>2385</ele>
        <time>2026-04-29T09:56:38Z</time>
      </trkpt>
      <trkpt lat="42.806238010525703" lon="0.902677997946739">
        <ele>2385</ele>
        <time>2026-04-29T09:56:52Z</time>
      </trkpt>
      <trkpt lat="42.806266006082296" lon="0.902578001841903">
        <ele>2386</ele>
        <time>2026-04-29T09:57:04Z</time>
      </trkpt>
      <trkpt lat="42.806277992203832" lon="0.90252703987062">
        <ele>2387</ele>
        <time>2026-04-29T09:57:10Z</time>
      </trkpt>
      <trkpt lat="42.806289978325367" lon="0.902476999908686">
        <ele>2387</ele>
        <time>2026-04-29T09:57:16Z</time>
      </trkpt>
      <trkpt lat="42.806307999417186" lon="0.902436012402177">
        <ele>2387</ele>
        <time>2026-04-29T09:57:22Z</time>
      </trkpt>
      <trkpt lat="42.806321997195482" lon="0.902392007410526">
        <ele>2388</ele>
        <time>2026-04-29T09:57:30Z</time>
      </trkpt>
      <trkpt lat="42.80638100579381" lon="0.902174999937415">
        <ele>2391</ele>
        <time>2026-04-29T09:58:02Z</time>
      </trkpt>
      <trkpt lat="42.806433979421854" lon="0.901886997744441">
        <ele>2393</ele>
        <time>2026-04-29T09:58:36Z</time>
      </trkpt>
      <trkpt lat="42.80644797720015" lon="0.901828994974494">
        <ele>2393</ele>
        <time>2026-04-29T09:58:42Z</time>
      </trkpt>
      <trkpt lat="42.806503968313336" lon="0.901624979451299">
        <ele>2392</ele>
        <time>2026-04-29T09:59:06Z</time>
      </trkpt>
      <trkpt lat="42.806560965254903" lon="0.90147603303194">
        <ele>2394</ele>
        <time>2026-04-29T09:59:24Z</time>
      </trkpt>
      <trkpt lat="42.806627014651895" lon="0.901247961446643">
        <ele>2397</ele>
        <time>2026-04-29T09:59:54Z</time>
      </trkpt>
      <trkpt lat="42.806709995493293" lon="0.900990972295403">
        <ele>2402</ele>
        <time>2026-04-29T10:00:30Z</time>
      </trkpt>
      <trkpt lat="42.806781996041536" lon="0.900798020884395">
        <ele>2405</ele>
        <time>2026-04-29T10:01:02Z</time>
      </trkpt>
      <trkpt lat="42.806796999648213" lon="0.900747980922461">
        <ele>2407</ele>
        <time>2026-04-29T10:01:10Z</time>
      </trkpt>
      <trkpt lat="42.806787025183439" lon="0.900694001466036">
        <ele>2407</ele>
        <time>2026-04-29T10:01:20Z</time>
      </trkpt>
      <trkpt lat="42.806793982163072" lon="0.900670029222965">
        <ele>2409</ele>
        <time>2026-04-29T10:04:40Z</time>
      </trkpt>
      <trkpt lat="42.806757017970085" lon="0.900669023394585">
        <ele>2409</ele>
        <time>2026-04-29T10:05:14Z</time>
      </trkpt>
      <trkpt lat="42.806752994656563" lon="0.900616971775889">
        <ele>2409</ele>
        <time>2026-04-29T10:05:28Z</time>
      </trkpt>
      <trkpt lat="42.806775961071253" lon="0.900568021461368">
        <ele>2410</ele>
        <time>2026-04-29T10:05:36Z</time>
      </trkpt>
      <trkpt lat="42.806794987991452" lon="0.900522004812956">
        <ele>2411</ele>
        <time>2026-04-29T10:05:42Z</time>
      </trkpt>
      <trkpt lat="42.806804040446877" lon="0.900468025356531">
        <ele>2411</ele>
        <time>2026-04-29T10:05:48Z</time>
      </trkpt>
      <trkpt lat="42.806801022961736" lon="0.900409016758204">
        <ele>2411</ele>
        <time>2026-04-29T10:05:54Z</time>
      </trkpt>
      <trkpt lat="42.806798005476594" lon="0.900360988453031">
        <ele>2411</ele>
        <time>2026-04-29T10:05:58Z</time>
      </trkpt>
      <trkpt lat="42.806799011304975" lon="0.900298040360212">
        <ele>2411</ele>
        <time>2026-04-29T10:06:04Z</time>
      </trkpt>
      <trkpt lat="42.806750982999802" lon="0.900073992088437">
        <ele>2412</ele>
        <time>2026-04-29T10:06:30Z</time>
      </trkpt>
      <trkpt lat="42.806780990213156" lon="0.900040967389941">
        <ele>2412</ele>
        <time>2026-04-29T10:06:42Z</time>
      </trkpt>
      <trkpt lat="42.806780990213156" lon="0.899985982105136">
        <ele>2414</ele>
        <time>2026-04-29T10:06:50Z</time>
      </trkpt>
      <trkpt lat="42.80678803101182" lon="0.899872994050384">
        <ele>2416</ele>
        <time>2026-04-29T10:07:06Z</time>
      </trkpt>
      <trkpt lat="42.806818038225174" lon="0.899768974632025">
        <ele>2418</ele>
        <time>2026-04-29T10:07:22Z</time>
      </trkpt>
      <trkpt lat="42.80683103017509" lon="0.899725975468755">
        <ele>2419</ele>
        <time>2026-04-29T10:07:28Z</time>
      </trkpt>
      <trkpt lat="42.806842010468245" lon="0.899676019325852">
        <ele>2420</ele>
        <time>2026-04-29T10:07:36Z</time>
      </trkpt>
      <trkpt lat="42.80687796883285" lon="0.899466974660754">
        <ele>2423</ele>
        <time>2026-04-29T10:08:06Z</time>
      </trkpt>
      <trkpt lat="42.806880986317992" lon="0.899408971890807">
        <ele>2424</ele>
        <time>2026-04-29T10:08:14Z</time>
      </trkpt>
      <trkpt lat="42.806909987702966" lon="0.899217026308179">
        <ele>2428</ele>
        <time>2026-04-29T10:08:46Z</time>
      </trkpt>
      <trkpt lat="42.806915016844869" lon="0.899165980517864">
        <ele>2428</ele>
        <time>2026-04-29T10:08:54Z</time>
      </trkpt>
      <trkpt lat="42.806916022673249" lon="0.899110995233059">
        <ele>2430</ele>
        <time>2026-04-29T10:09:02Z</time>
      </trkpt>
      <trkpt lat="42.806913005188107" lon="0.899053998291492">
        <ele>2430</ele>
        <time>2026-04-29T10:09:10Z</time>
      </trkpt>
      <trkpt lat="42.806919040158391" lon="0.898995995521545">
        <ele>2431</ele>
        <time>2026-04-29T10:09:18Z</time>
      </trkpt>
      <trkpt lat="42.806921973824501" lon="0.898943021893501">
        <ele>2432</ele>
        <time>2026-04-29T10:09:26Z</time>
      </trkpt>
      <trkpt lat="42.806931026279926" lon="0.898840008303523">
        <ele>2434</ele>
        <time>2026-04-29T10:09:42Z</time>
      </trkpt>
      <trkpt lat="42.806938989087939" lon="0.89878804050386">
        <ele>2436</ele>
        <time>2026-04-29T10:09:54Z</time>
      </trkpt>
      <trkpt lat="42.806985005736351" lon="0.898645967245102">
        <ele>2439</ele>
        <time>2026-04-29T10:10:20Z</time>
      </trkpt>
      <trkpt lat="42.806981988251209" lon="0.898590981960297">
        <ele>2440</ele>
        <time>2026-04-29T10:10:26Z</time>
      </trkpt>
      <trkpt lat="42.806999003514647" lon="0.898476988077164">
        <ele>2441</ele>
        <time>2026-04-29T10:10:38Z</time>
      </trkpt>
      <trkpt lat="42.807001015171409" lon="0.898428037762642">
        <ele>2441</ele>
        <time>2026-04-29T10:10:44Z</time>
      </trkpt>
      <trkpt lat="42.807011995464563" lon="0.898369029164314">
        <ele>2441</ele>
        <time>2026-04-29T10:10:52Z</time>
      </trkpt>
      <trkpt lat="42.807032028213143" lon="0.898270038887858">
        <ele>2442</ele>
        <time>2026-04-29T10:11:04Z</time>
      </trkpt>
      <trkpt lat="42.807036973536015" lon="0.898216981440783">
        <ele>2442</ele>
        <time>2026-04-29T10:11:10Z</time>
      </trkpt>
      <trkpt lat="42.807057006284595" lon="0.898096030578017">
        <ele>2442</ele>
        <time>2026-04-29T10:11:22Z</time>
      </trkpt>
      <trkpt lat="42.807139987125993" lon="0.897852033376694">
        <ele>2443</ele>
        <time>2026-04-29T10:11:56Z</time>
      </trkpt>
      <trkpt lat="42.807159014046192" lon="0.897804005071521">
        <ele>2443</ele>
        <time>2026-04-29T10:12:04Z</time>
      </trkpt>
      <trkpt lat="42.807174017652869" lon="0.897761005908251">
        <ele>2443</ele>
        <time>2026-04-29T10:12:12Z</time>
      </trkpt>
      <trkpt lat="42.807268984615803" lon="0.897572999820113">
        <ele>2444</ele>
        <time>2026-04-29T10:12:44Z</time>
      </trkpt>
      <trkpt lat="42.807293962687254" lon="0.897534023970366">
        <ele>2445</ele>
        <time>2026-04-29T10:12:54Z</time>
      </trkpt>
      <trkpt lat="42.807350037619472" lon="0.8974580001086">
        <ele>2444</ele>
        <time>2026-04-29T10:13:10Z</time>
      </trkpt>
      <trkpt lat="42.807374009862542" lon="0.897417012602091">
        <ele>2444</ele>
        <time>2026-04-29T10:13:18Z</time>
      </trkpt>
      <trkpt lat="42.807403011247516" lon="0.897378036752343">
        <ele>2444</ele>
        <time>2026-04-29T10:13:26Z</time>
      </trkpt>
      <trkpt lat="42.807490015402436" lon="0.897253984585404">
        <ele>2445</ele>
        <time>2026-04-29T10:13:50Z</time>
      </trkpt>
      <trkpt lat="42.807518010959029" lon="0.897221965715289">
        <ele>2445</ele>
        <time>2026-04-29T10:13:58Z</time>
      </trkpt>
      <trkpt lat="42.807609038427472" lon="0.897122975438833">
        <ele>2444</ele>
        <time>2026-04-29T10:14:20Z</time>
      </trkpt>
      <trkpt lat="42.80767198652029" lon="0.89702901430428">
        <ele>2443</ele>
        <time>2026-04-29T10:14:38Z</time>
      </trkpt>
      <trkpt lat="42.807696964591742" lon="0.896977968513966">
        <ele>2443</ele>
        <time>2026-04-29T10:14:46Z</time>
      </trkpt>
      <trkpt lat="42.807720014825463" lon="0.896933963522315">
        <ele>2443</ele>
        <time>2026-04-29T10:15:02Z</time>
      </trkpt>
      <trkpt lat="42.807745998725295" lon="0.896903034299612">
        <ele>2441</ele>
        <time>2026-04-29T10:15:14Z</time>
      </trkpt>
      <trkpt lat="42.807781035080552" lon="0.896889036521316">
        <ele>2440</ele>
        <time>2026-04-29T10:15:20Z</time>
      </trkpt>
      <trkpt lat="42.807879019528627" lon="0.89681301265955">
        <ele>2436</ele>
        <time>2026-04-29T10:15:38Z</time>
      </trkpt>
      <trkpt lat="42.807899974286556" lon="0.896719973534346">
        <ele>2434</ele>
        <time>2026-04-29T10:16:12Z</time>
      </trkpt>
      <trkpt lat="42.807920007035136" lon="0.896679991856217">
        <ele>2433</ele>
        <time>2026-04-29T10:16:20Z</time>
      </trkpt>
      <trkpt lat="42.80795001424849" lon="0.896647972986102">
        <ele>2431</ele>
        <time>2026-04-29T10:16:28Z</time>
      </trkpt>
      <trkpt lat="42.807983960956335" lon="0.896612014621496">
        <ele>2430</ele>
        <time>2026-04-29T10:16:38Z</time>
      </trkpt>
      <trkpt lat="42.808020003139973" lon="0.896602040156722">
        <ele>2428</ele>
        <time>2026-04-29T10:16:46Z</time>
      </trkpt>
      <trkpt lat="42.808056967332959" lon="0.896601034328341">
        <ele>2428</ele>
        <time>2026-04-29T10:16:54Z</time>
      </trkpt>
      <trkpt lat="42.808097032830119" lon="0.896590976044536">
        <ele>2427</ele>
        <time>2026-04-29T10:17:30Z</time>
      </trkpt>
      <trkpt lat="42.808136008679867" lon="0.89657798409462">
        <ele>2426</ele>
        <time>2026-04-29T10:17:38Z</time>
      </trkpt>
      <trkpt lat="42.808254025876522" lon="0.896544037386775">
        <ele>2419</ele>
        <time>2026-04-29T10:18:02Z</time>
      </trkpt>
      <trkpt lat="42.808288978412747" lon="0.896529033780098">
        <ele>2416</ele>
        <time>2026-04-29T10:18:12Z</time>
      </trkpt>
      <trkpt lat="42.808326026424766" lon="0.896514030173421">
        <ele>2414</ele>
        <time>2026-04-29T10:18:20Z</time>
      </trkpt>
      <trkpt lat="42.808440020307899" lon="0.89649299159646">
        <ele>2406</ele>
        <time>2026-04-29T10:18:42Z</time>
      </trkpt>
      <trkpt lat="42.808601958677173" lon="0.896516963839531">
        <ele>2399</ele>
        <time>2026-04-29T10:19:16Z</time>
      </trkpt>
      <trkpt lat="42.808645041659474" lon="0.896507995203137">
        <ele>2398</ele>
        <time>2026-04-29T10:19:24Z</time>
      </trkpt>
      <trkpt lat="42.808687034994364" lon="0.896490979939699">
        <ele>2396</ele>
        <time>2026-04-29T10:19:32Z</time>
      </trkpt>
      <trkpt lat="42.80870103277266" lon="0.896444963291287">
        <ele>2395</ele>
        <time>2026-04-29T10:19:54Z</time>
      </trkpt>
      <trkpt lat="42.808692986145616" lon="0.896400036290288">
        <ele>2394</ele>
        <time>2026-04-29T10:20:00Z</time>
      </trkpt>
      <trkpt lat="42.808689968660474" lon="0.896349996328354">
        <ele>2393</ele>
        <time>2026-04-29T10:20:06Z</time>
      </trkpt>
      <trkpt lat="42.808731961995363" lon="0.896372962743044">
        <ele>2392</ele>
        <time>2026-04-29T10:20:14Z</time>
      </trkpt>
      <trkpt lat="42.808844028040767" lon="0.89640699326992">
        <ele>2386</ele>
        <time>2026-04-29T10:20:34Z</time>
      </trkpt>
      <trkpt lat="42.808887027204037" lon="0.896401964128017">
        <ele>2385</ele>
        <time>2026-04-29T10:20:42Z</time>
      </trkpt>
      <trkpt lat="42.808923991397023" lon="0.896404981613159">
        <ele>2383</ele>
        <time>2026-04-29T10:20:50Z</time>
      </trkpt>
      <trkpt lat="42.808965984731913" lon="0.896394001320004">
        <ele>2382</ele>
        <time>2026-04-29T10:20:58Z</time>
      </trkpt>
      <trkpt lat="42.808999009430408" lon="0.896357037127018">
        <ele>2380</ele>
        <time>2026-04-29T10:21:06Z</time>
      </trkpt>
      <trkpt lat="42.809111997485161" lon="0.896219993010163">
        <ele>2373</ele>
        <time>2026-04-29T10:21:38Z</time>
      </trkpt>
      <trkpt lat="42.809148039668798" lon="0.896193003281951">
        <ele>2372</ele>
        <time>2026-04-29T10:21:46Z</time>
      </trkpt>
      <trkpt lat="42.809178968891501" lon="0.896160984411836">
        <ele>2369</ele>
        <time>2026-04-29T10:21:54Z</time>
      </trkpt>
      <trkpt lat="42.809210987761617" lon="0.896133994683623">
        <ele>2367</ele>
        <time>2026-04-29T10:22:02Z</time>
      </trkpt>
      <trkpt lat="42.809335961937904" lon="0.896122008562088">
        <ele>2359</ele>
        <time>2026-04-29T10:22:24Z</time>
      </trkpt>
      <trkpt lat="42.809444004669785" lon="0.896057970821857">
        <ele>2353</ele>
        <time>2026-04-29T10:22:46Z</time>
      </trkpt>
      <trkpt lat="42.809479041025043" lon="0.896035004407167">
        <ele>2351</ele>
        <time>2026-04-29T10:22:54Z</time>
      </trkpt>
      <trkpt lat="42.809562021866441" lon="0.895994016900659">
        <ele>2345</ele>
        <time>2026-04-29T10:23:10Z</time>
      </trkpt>
      <trkpt lat="42.809581970795989" lon="0.895952023565769">
        <ele>2343</ele>
        <time>2026-04-29T10:23:26Z</time>
      </trkpt>
      <trkpt lat="42.809618012979627" lon="0.89595403522253">
        <ele>2343</ele>
        <time>2026-04-29T10:23:32Z</time>
      </trkpt>
      <trkpt lat="42.809778023511171" lon="0.895906006917357">
        <ele>2329</ele>
        <time>2026-04-29T10:24:06Z</time>
      </trkpt>
      <trkpt lat="42.809812976047397" lon="0.895906006917357">
        <ele>2326</ele>
        <time>2026-04-29T10:24:12Z</time>
      </trkpt>
      <trkpt lat="42.809854969382286" lon="0.895906006917357">
        <ele>2323</ele>
        <time>2026-04-29T10:24:18Z</time>
      </trkpt>
      <trkpt lat="42.809936022385955" lon="0.895903995260596">
        <ele>2318</ele>
        <time>2026-04-29T10:24:30Z</time>
      </trkpt>
      <trkpt lat="42.80996703542769" lon="0.895883040502667">
        <ele>2316</ele>
        <time>2026-04-29T10:24:36Z</time>
      </trkpt>
      <trkpt lat="42.809998970478773" lon="0.895852027460933">
        <ele>2314</ele>
        <time>2026-04-29T10:24:42Z</time>
      </trkpt>
      <trkpt lat="42.810088992118835" lon="0.895828977227211">
        <ele>2310</ele>
        <time>2026-04-29T10:24:54Z</time>
      </trkpt>
      <trkpt lat="42.81016300432384" lon="0.89582503773272">
        <ele>2307</ele>
        <time>2026-04-29T10:25:10Z</time>
      </trkpt>
      <trkpt lat="42.810362996533513" lon="0.895801987498999">
        <ele>2301</ele>
        <time>2026-04-29T10:25:40Z</time>
      </trkpt>
      <trkpt lat="42.810409013181925" lon="0.895798970013857">
        <ele>2300</ele>
        <time>2026-04-29T10:25:46Z</time>
      </trkpt>
      <trkpt lat="42.810454024001956" lon="0.895807016640902">
        <ele>2298</ele>
        <time>2026-04-29T10:25:52Z</time>
      </trkpt>
      <trkpt lat="42.810500962659717" lon="0.895819002762437">
        <ele>2297</ele>
        <time>2026-04-29T10:26:00Z</time>
      </trkpt>
      <trkpt lat="42.81054999679327" lon="0.895820008590817">
        <ele>2297</ele>
        <time>2026-04-29T10:26:06Z</time>
      </trkpt>
      <trkpt lat="42.810647981241345" lon="0.895822020247579">
        <ele>2295</ele>
        <time>2026-04-29T10:26:18Z</time>
      </trkpt>
      <trkpt lat="42.810693997889757" lon="0.895822020247579">
        <ele>2295</ele>
        <time>2026-04-29T10:26:24Z</time>
      </trkpt>
      <trkpt lat="42.810738002881408" lon="0.895815985277295">
        <ele>2295</ele>
        <time>2026-04-29T10:26:30Z</time>
      </trkpt>
      <trkpt lat="42.810777984559536" lon="0.895810034126043">
        <ele>2295</ele>
        <time>2026-04-29T10:26:36Z</time>
      </trkpt>
      <trkpt lat="42.810813020914793" lon="0.895790001377463">
        <ele>2296</ele>
        <time>2026-04-29T10:26:42Z</time>
      </trkpt>
      <trkpt lat="42.810848979279399" lon="0.895768962800503">
        <ele>2296</ele>
        <time>2026-04-29T10:26:48Z</time>
      </trkpt>
      <trkpt lat="42.810929026454687" lon="0.895734010264277">
        <ele>2297</ele>
        <time>2026-04-29T10:27:00Z</time>
      </trkpt>
      <trkpt lat="42.811017036437988" lon="0.895729986950755">
        <ele>2297</ele>
        <time>2026-04-29T10:27:12Z</time>
      </trkpt>
      <trkpt lat="42.811104040592909" lon="0.89571800082922">
        <ele>2297</ele>
        <time>2026-04-29T10:27:24Z</time>
      </trkpt>
      <trkpt lat="42.811231026425958" lon="0.895708026364446">
        <ele>2296</ele>
        <time>2026-04-29T10:27:40Z</time>
      </trkpt>
      <trkpt lat="42.811268996447325" lon="0.895716995000839">
        <ele>2295</ele>
        <time>2026-04-29T10:27:44Z</time>
      </trkpt>
      <trkpt lat="42.811491033062339" lon="0.895705008879304">
        <ele>2292</ele>
        <time>2026-04-29T10:28:14Z</time>
      </trkpt>
      <trkpt lat="42.811529003083706" lon="0.895701991394162">
        <ele>2292</ele>
        <time>2026-04-29T10:28:18Z</time>
      </trkpt>
      <trkpt lat="42.811578037217259" lon="0.895699979737401">
        <ele>2292</ele>
        <time>2026-04-29T10:28:24Z</time>
      </trkpt>
      <trkpt lat="42.811612989753485" lon="0.89569604024291">
        <ele>2292</ele>
        <time>2026-04-29T10:28:28Z</time>
      </trkpt>
      <trkpt lat="42.81173100695014" lon="0.895661003887653">
        <ele>2292</ele>
        <time>2026-04-29T10:28:46Z</time>
      </trkpt>
      <trkpt lat="42.811765959486365" lon="0.895646000280976">
        <ele>2292</ele>
        <time>2026-04-29T10:28:52Z</time>
      </trkpt>
      <trkpt lat="42.811852963641286" lon="0.895609958097339">
        <ele>2292</ele>
        <time>2026-04-29T10:29:04Z</time>
      </trkpt>
      <trkpt lat="42.811932004988194" lon="0.895586991682649">
        <ele>2292</ele>
        <time>2026-04-29T10:29:16Z</time>
      </trkpt>
      <trkpt lat="42.812013980001211" lon="0.895561007782817">
        <ele>2292</ele>
        <time>2026-04-29T10:29:28Z</time>
      </trkpt>
      <trkpt lat="42.812055973336101" lon="0.895553966984153">
        <ele>2292</ele>
        <time>2026-04-29T10:29:34Z</time>
      </trkpt>
      <trkpt lat="42.812092015519738" lon="0.895549021661282">
        <ele>2292</ele>
        <time>2026-04-29T10:29:40Z</time>
      </trkpt>
      <trkpt lat="42.812130991369486" lon="0.895533012226224">
        <ele>2292</ele>
        <time>2026-04-29T10:29:46Z</time>
      </trkpt>
      <trkpt lat="42.812197962775826" lon="0.89550300501287">
        <ele>2292</ele>
        <time>2026-04-29T10:29:58Z</time>
      </trkpt>
      <trkpt lat="42.812352022156119" lon="0.895446008071303">
        <ele>2293</ele>
        <time>2026-04-29T10:30:32Z</time>
      </trkpt>
      <trkpt lat="42.81248202547431" lon="0.895312987267971">
        <ele>2293</ele>
        <time>2026-04-29T10:31:02Z</time>
      </trkpt>
      <trkpt lat="42.812514966353774" lon="0.895284991711378">
        <ele>2293</ele>
        <time>2026-04-29T10:31:08Z</time>
      </trkpt>
      <trkpt lat="42.812630971893668" lon="0.895094973966479">
        <ele>2291</ele>
        <time>2026-04-29T10:31:38Z</time>
      </trkpt>
      <trkpt lat="42.812679000198841" lon="0.894999001175165">
        <ele>2289</ele>
        <time>2026-04-29T10:31:50Z</time>
      </trkpt>
      <trkpt lat="42.812708001583815" lon="0.894959019497037">
        <ele>2289</ele>
        <time>2026-04-29T10:31:56Z</time>
      </trkpt>
      <trkpt lat="42.812757035717368" lon="0.894857011735439">
        <ele>2288</ele>
        <time>2026-04-29T10:32:08Z</time>
      </trkpt>
      <trkpt lat="42.812792994081974" lon="0.894806971773505">
        <ele>2288</ele>
        <time>2026-04-29T10:32:12Z</time>
      </trkpt>
      <trkpt lat="42.812854014337063" lon="0.894717033952475">
        <ele>2292</ele>
        <time>2026-04-29T10:32:20Z</time>
      </trkpt>
      <trkpt lat="42.812921991571784" lon="0.894637992605567">
        <ele>2295</ele>
        <time>2026-04-29T10:32:36Z</time>
      </trkpt>
      <trkpt lat="42.812941018491983" lon="0.894585018977523">
        <ele>2294</ele>
        <time>2026-04-29T10:32:44Z</time>
      </trkpt>
      <trkpt lat="42.812971025705338" lon="0.894548976793885">
        <ele>2294</ele>
        <time>2026-04-29T10:32:52Z</time>
      </trkpt>
      <trkpt lat="42.813028022646904" lon="0.894484017044306">
        <ele>2293</ele>
        <time>2026-04-29T10:33:04Z</time>
      </trkpt>
      <trkpt lat="42.813046965748072" lon="0.894445041194558">
        <ele>2293</ele>
        <time>2026-04-29T10:33:12Z</time>
      </trkpt>
      <trkpt lat="42.813051994889975" lon="0.894397012889385">
        <ele>2293</ele>
        <time>2026-04-29T10:33:22Z</time>
      </trkpt>
      <trkpt lat="42.813071021810174" lon="0.894347978755832">
        <ele>2294</ele>
        <time>2026-04-29T10:33:30Z</time>
      </trkpt>
      <trkpt lat="42.813040008768439" lon="0.894390977919102">
        <ele>2285</ele>
        <time>2026-04-29T11:07:26Z</time>
      </trkpt>
      <trkpt lat="42.813028022646904" lon="0.894434982910752">
        <ele>2285</ele>
        <time>2026-04-29T11:08:14Z</time>
      </trkpt>
      <trkpt lat="42.813056018203497" lon="0.894475970417261">
        <ele>2285</ele>
        <time>2026-04-29T11:08:22Z</time>
      </trkpt>
      <trkpt lat="42.813087031245232" lon="0.894504971802235">
        <ele>2282</ele>
        <time>2026-04-29T11:08:28Z</time>
      </trkpt>
      <trkpt lat="42.813123995438218" lon="0.894523998722434">
        <ele>2281</ele>
        <time>2026-04-29T11:08:34Z</time>
      </trkpt>
      <trkpt lat="42.813248969614506" lon="0.894586024805903">
        <ele>2275</ele>
        <time>2026-04-29T11:08:52Z</time>
      </trkpt>
      <trkpt lat="42.813290962949395" lon="0.894588958472013">
        <ele>2273</ele>
        <time>2026-04-29T11:08:58Z</time>
      </trkpt>
      <trkpt lat="42.813337985426188" lon="0.894595999270678">
        <ele>2272</ele>
        <time>2026-04-29T11:09:04Z</time>
      </trkpt>
      <trkpt lat="42.813434964045882" lon="0.894572027027607">
        <ele>2274</ele>
        <time>2026-04-29T11:09:14Z</time>
      </trkpt>
      <trkpt lat="42.813476035371423" lon="0.89455702342093">
        <ele>2274</ele>
        <time>2026-04-29T11:09:22Z</time>
      </trkpt>
      <trkpt lat="42.813520962372422" lon="0.894546965137124">
        <ele>2273</ele>
        <time>2026-04-29T11:09:28Z</time>
      </trkpt>
      <trkpt lat="42.813607966527343" lon="0.894518969580531">
        <ele>2273</ele>
        <time>2026-04-29T11:09:40Z</time>
      </trkpt>
      <trkpt lat="42.813864033669233" lon="0.894477982074022">
        <ele>2273</ele>
        <time>2026-04-29T11:10:14Z</time>
      </trkpt>
      <trkpt lat="42.81415999867022" lon="0.894479993730783">
        <ele>2272</ele>
        <time>2026-04-29T11:10:46Z</time>
      </trkpt>
      <trkpt lat="42.81437398865819" lon="0.8944739587605">
        <ele>2270</ele>
        <time>2026-04-29T11:11:14Z</time>
      </trkpt>
      <trkpt lat="42.814593007788062" lon="0.89440799318254">
        <ele>2269</ele>
        <time>2026-04-29T11:11:44Z</time>
      </trkpt>
      <trkpt lat="42.814719993621111" lon="0.894356025382876">
        <ele>2268</ele>
        <time>2026-04-29T11:12:00Z</time>
      </trkpt>
      <trkpt lat="42.814801968634129" lon="0.894330041483045">
        <ele>2267</ele>
        <time>2026-04-29T11:12:10Z</time>
      </trkpt>
      <trkpt lat="42.815106986090541" lon="0.894190985709429">
        <ele>2265</ele>
        <time>2026-04-29T11:12:42Z</time>
      </trkpt>
      <trkpt lat="42.815394988283515" lon="0.894044972956181">
        <ele>2263</ele>
        <time>2026-04-29T11:13:12Z</time>
      </trkpt>
      <trkpt lat="42.81555499881506" lon="0.894048996269703">
        <ele>2262</ele>
        <time>2026-04-29T11:13:32Z</time>
      </trkpt>
      <trkpt lat="42.815591963008046" lon="0.894070034846663">
        <ele>2262</ele>
        <time>2026-04-29T11:13:44Z</time>
      </trkpt>
      <trkpt lat="42.815671004354954" lon="0.894073974341154">
        <ele>2263</ele>
        <time>2026-04-29T11:13:56Z</time>
      </trkpt>
      <trkpt lat="42.815701011568308" lon="0.894103981554508">
        <ele>2264</ele>
        <time>2026-04-29T11:14:02Z</time>
      </trkpt>
      <trkpt lat="42.815735964104533" lon="0.894070034846663">
        <ele>2264</ele>
        <time>2026-04-29T11:14:20Z</time>
      </trkpt>
      <trkpt lat="42.815729007124901" lon="0.894018989056349">
        <ele>2263</ele>
        <time>2026-04-29T11:14:28Z</time>
      </trkpt>
      <trkpt lat="42.81574996188283" lon="0.893971966579556">
        <ele>2261</ele>
        <time>2026-04-29T11:14:36Z</time>
      </trkpt>
      <trkpt lat="42.815681984648108" lon="0.893927961587906">
        <ele>2259</ele>
        <time>2026-04-29T11:15:02Z</time>
      </trkpt>
      <trkpt lat="42.815648959949613" lon="0.893910024315119">
        <ele>2257</ele>
        <time>2026-04-29T11:15:08Z</time>
      </trkpt>
      <trkpt lat="42.81561903655529" lon="0.893889991566539">
        <ele>2256</ele>
        <time>2026-04-29T11:15:14Z</time>
      </trkpt>
      <trkpt lat="42.815635967999697" lon="0.893847998231649">
        <ele>2254</ele>
        <time>2026-04-29T11:15:24Z</time>
      </trkpt>
      <trkpt lat="42.81566396355629" lon="0.893811034038663">
        <ele>2252</ele>
        <time>2026-04-29T11:15:46Z</time>
      </trkpt>
      <trkpt lat="42.815674021840096" lon="0.893760994076729">
        <ele>2250</ele>
        <time>2026-04-29T11:15:54Z</time>
      </trkpt>
      <trkpt lat="42.815690031275153" lon="0.893711037933826">
        <ele>2248</ele>
        <time>2026-04-29T11:16:02Z</time>
      </trkpt>
      <trkpt lat="42.815718026831746" lon="0.893671978265047">
        <ele>2246</ele>
        <time>2026-04-29T11:16:08Z</time>
      </trkpt>
      <trkpt lat="42.815802013501525" lon="0.893625961616635">
        <ele>2243</ele>
        <time>2026-04-29T11:16:20Z</time>
      </trkpt>
      <trkpt lat="42.815939979627728" lon="0.893600983545184">
        <ele>2239</ele>
        <time>2026-04-29T11:16:38Z</time>
      </trkpt>
      <trkpt lat="42.816016003489494" lon="0.893588997423649">
        <ele>2237</ele>
        <time>2026-04-29T11:16:50Z</time>
      </trkpt>
      <trkpt lat="42.816042993217707" lon="0.893556978553534">
        <ele>2235</ele>
        <time>2026-04-29T11:16:56Z</time>
      </trkpt>
      <trkpt lat="42.816080963239074" lon="0.893532000482082">
        <ele>2234</ele>
        <time>2026-04-29T11:17:02Z</time>
      </trkpt>
      <trkpt lat="42.816181965172291" lon="0.893463017418981">
        <ele>2228</ele>
        <time>2026-04-29T11:17:22Z</time>
      </trkpt>
      <trkpt lat="42.816225970163941" lon="0.893450025469065">
        <ele>2226</ele>
        <time>2026-04-29T11:17:30Z</time>
      </trkpt>
      <trkpt lat="42.816269975155592" lon="0.893438961356878">
        <ele>2223</ele>
        <time>2026-04-29T11:17:38Z</time>
      </trkpt>
      <trkpt lat="42.816311968490481" lon="0.893426975235343">
        <ele>2222</ele>
        <time>2026-04-29T11:17:46Z</time>
      </trkpt>
      <trkpt lat="42.816422022879124" lon="0.893393028527498">
        <ele>2214</ele>
        <time>2026-04-29T11:18:06Z</time>
      </trkpt>
      <trkpt lat="42.816464016214013" lon="0.893381964415312">
        <ele>2212</ele>
        <time>2026-04-29T11:18:12Z</time>
      </trkpt>
      <trkpt lat="42.816622015088797" lon="0.893366960808635">
        <ele>2203</ele>
        <time>2026-04-29T11:18:40Z</time>
      </trkpt>
      <trkpt lat="42.816743971779943" lon="0.893405014649034">
        <ele>2196</ele>
        <time>2026-04-29T11:19:04Z</time>
      </trkpt>
      <trkpt lat="42.816943963989615" lon="0.893422029912472">
        <ele>2188</ele>
        <time>2026-04-29T11:19:38Z</time>
      </trkpt>
      <trkpt lat="42.816985035315156" lon="0.893420018255711">
        <ele>2185</ele>
        <time>2026-04-29T11:19:46Z</time>
      </trkpt>
      <trkpt lat="42.81706097535789" lon="0.893397973850369">
        <ele>2179</ele>
        <time>2026-04-29T11:20:02Z</time>
      </trkpt>
      <trkpt lat="42.817133981734514" lon="0.893433010205626">
        <ele>2173</ele>
        <time>2026-04-29T11:20:16Z</time>
      </trkpt>
      <trkpt lat="42.817171029746532" lon="0.893439967185259">
        <ele>2171</ele>
        <time>2026-04-29T11:20:22Z</time>
      </trkpt>
      <trkpt lat="42.817215034738183" lon="0.893437033519149">
        <ele>2168</ele>
        <time>2026-04-29T11:20:30Z</time>
      </trkpt>
      <trkpt lat="42.817255016416311" lon="0.893450025469065">
        <ele>2166</ele>
        <time>2026-04-29T11:20:38Z</time>
      </trkpt>
      <trkpt lat="42.81729499809444" lon="0.893469974398613">
        <ele>2162</ele>
        <time>2026-04-29T11:20:46Z</time>
      </trkpt>
      <trkpt lat="42.817341014742851" lon="0.893467962741852">
        <ele>2159</ele>
        <time>2026-04-29T11:20:54Z</time>
      </trkpt>
      <trkpt lat="42.817426007241011" lon="0.893487995490432">
        <ele>2153</ele>
        <time>2026-04-29T11:21:06Z</time>
      </trkpt>
      <trkpt lat="42.817460037767887" lon="0.893511967733502">
        <ele>2153</ele>
        <time>2026-04-29T11:21:10Z</time>
      </trkpt>
      <trkpt lat="42.817492978647351" lon="0.893534012138844">
        <ele>2153</ele>
        <time>2026-04-29T11:21:14Z</time>
      </trkpt>
      <trkpt lat="42.817538995295763" lon="0.893540969118476">
        <ele>2152</ele>
        <time>2026-04-29T11:21:20Z</time>
      </trkpt>
      <trkpt lat="42.81757696531713" lon="0.893554966896772">
        <ele>2151</ele>
        <time>2026-04-29T11:21:26Z</time>
      </trkpt>
      <trkpt lat="42.817612001672387" lon="0.893582962453365">
        <ele>2149</ele>
        <time>2026-04-29T11:21:32Z</time>
      </trkpt>
      <trkpt lat="42.817646032199264" lon="0.893608024343848">
        <ele>2147</ele>
        <time>2026-04-29T11:21:40Z</time>
      </trkpt>
      <trkpt lat="42.817684002220631" lon="0.893649011850357">
        <ele>2146</ele>
        <time>2026-04-29T11:21:46Z</time>
      </trkpt>
      <trkpt lat="42.817764971405268" lon="0.893706008791924">
        <ele>2141</ele>
        <time>2026-04-29T11:22:32Z</time>
      </trkpt>
      <trkpt lat="42.817801013588905" lon="0.893732998520136">
        <ele>2140</ele>
        <time>2026-04-29T11:22:36Z</time>
      </trkpt>
      <trkpt lat="42.817849041894078" lon="0.893738027662039">
        <ele>2138</ele>
        <time>2026-04-29T11:22:40Z</time>
      </trkpt>
      <trkpt lat="42.817895980551839" lon="0.893757976591587">
        <ele>2138</ele>
        <time>2026-04-29T11:22:44Z</time>
      </trkpt>
      <trkpt lat="42.817932022735476" lon="0.893765017390251">
        <ele>2138</ele>
        <time>2026-04-29T11:22:48Z</time>
      </trkpt>
      <trkpt lat="42.818015003576875" lon="0.893787983804941">
        <ele>2135</ele>
        <time>2026-04-29T11:23:04Z</time>
      </trkpt>
      <trkpt lat="42.818056996911764" lon="0.893778009340167">
        <ele>2133</ele>
        <time>2026-04-29T11:23:10Z</time>
      </trkpt>
      <trkpt lat="42.818092033267021" lon="0.893791001290083">
        <ele>2131</ele>
        <time>2026-04-29T11:23:14Z</time>
      </trkpt>
      <trkpt lat="42.818127991631627" lon="0.893794018775225">
        <ele>2130</ele>
        <time>2026-04-29T11:23:18Z</time>
      </trkpt>
      <trkpt lat="42.818164033815265" lon="0.893800975754857">
        <ele>2129</ele>
        <time>2026-04-29T11:23:22Z</time>
      </trkpt>
      <trkpt lat="42.818200998008251" lon="0.893817991018295">
        <ele>2128</ele>
        <time>2026-04-29T11:23:28Z</time>
      </trkpt>
      <trkpt lat="42.818278027698398" lon="0.893756970763206">
        <ele>2123</ele>
        <time>2026-04-29T11:23:46Z</time>
      </trkpt>
      <trkpt lat="42.818312980234623" lon="0.893741967156529">
        <ele>2120</ele>
        <time>2026-04-29T11:23:54Z</time>
      </trkpt>
      <trkpt lat="42.818352039903402" lon="0.893734004348516">
        <ele>2119</ele>
        <time>2026-04-29T11:24:02Z</time>
      </trkpt>
      <trkpt lat="42.818387998268008" lon="0.893721012398601">
        <ele>2116</ele>
        <time>2026-04-29T11:24:10Z</time>
      </trkpt>
      <trkpt lat="42.818423034623265" lon="0.893730986863375">
        <ele>2115</ele>
        <time>2026-04-29T11:24:18Z</time>
      </trkpt>
      <trkpt lat="42.818459998816252" lon="0.893744984641671">
        <ele>2112</ele>
        <time>2026-04-29T11:24:26Z</time>
      </trkpt>
      <trkpt lat="42.818493023514748" lon="0.893766023218632">
        <ele>2111</ele>
        <time>2026-04-29T11:24:34Z</time>
      </trkpt>
      <trkpt lat="42.818535016849637" lon="0.893774991855025">
        <ele>2108</ele>
        <time>2026-04-29T11:24:42Z</time>
      </trkpt>
      <trkpt lat="42.818572986871004" lon="0.893784966319799">
        <ele>2106</ele>
        <time>2026-04-29T11:24:50Z</time>
      </trkpt>
      <trkpt lat="42.818648004904389" lon="0.893817991018295">
        <ele>2101</ele>
        <time>2026-04-29T11:25:06Z</time>
      </trkpt>
      <trkpt lat="42.818688992410898" lon="0.893837017938495">
        <ele>2099</ele>
        <time>2026-04-29T11:25:14Z</time>
      </trkpt>
      <trkpt lat="42.818769039586186" lon="0.893847998231649">
        <ele>2095</ele>
        <time>2026-04-29T11:25:30Z</time>
      </trkpt>
      <trkpt lat="42.818889990448952" lon="0.8938920032233">
        <ele>2089</ele>
        <time>2026-04-29T11:25:50Z</time>
      </trkpt>
      <trkpt lat="42.818928966298699" lon="0.893883034586906">
        <ele>2086</ele>
        <time>2026-04-29T11:25:58Z</time>
      </trkpt>
      <trkpt lat="42.819095011800528" lon="0.893915975466371">
        <ele>2074</ele>
        <time>2026-04-29T11:26:34Z</time>
      </trkpt>
      <trkpt lat="42.819132981821895" lon="0.893915975466371">
        <ele>2073</ele>
        <time>2026-04-29T11:26:44Z</time>
      </trkpt>
      <trkpt lat="42.819172041490674" lon="0.893921004608274">
        <ele>2070</ele>
        <time>2026-04-29T11:26:56Z</time>
      </trkpt>
      <trkpt lat="42.819284023717046" lon="0.893984036520123">
        <ele>2062</ele>
        <time>2026-04-29T11:27:26Z</time>
      </trkpt>
      <trkpt lat="42.819349989295006" lon="0.8940439671278">
        <ele>2057</ele>
        <time>2026-04-29T11:27:42Z</time>
      </trkpt>
      <trkpt lat="42.819371027871966" lon="0.894089983776212">
        <ele>2056</ele>
        <time>2026-04-29T11:27:50Z</time>
      </trkpt>
      <trkpt lat="42.819405980408192" lon="0.894102975726128">
        <ele>2053</ele>
        <time>2026-04-29T11:27:58Z</time>
      </trkpt>
      <trkpt lat="42.819431964308023" lon="0.894147986546159">
        <ele>2052</ele>
        <time>2026-04-29T11:28:06Z</time>
      </trkpt>
      <trkpt lat="42.819433975964785" lon="0.894195009022951">
        <ele>2049</ele>
        <time>2026-04-29T11:28:12Z</time>
      </trkpt>
      <trkpt lat="42.819459037855268" lon="0.894233984872699">
        <ele>2047</ele>
        <time>2026-04-29T11:28:58Z</time>
      </trkpt>
      <trkpt lat="42.819500025361776" lon="0.894246976822615">
        <ele>2046</ele>
        <time>2026-04-29T11:29:06Z</time>
      </trkpt>
      <trkpt lat="42.819541012868285" lon="0.894237002357841">
        <ele>2045</ele>
        <time>2026-04-29T11:29:14Z</time>
      </trkpt>
      <trkpt lat="42.81957596540451" lon="0.894231973215938">
        <ele>2042</ele>
        <time>2026-04-29T11:29:22Z</time>
      </trkpt>
      <trkpt lat="42.81961502507329" lon="0.89421596378088">
        <ele>2041</ele>
        <time>2026-04-29T11:29:30Z</time>
      </trkpt>
      <trkpt lat="42.819652995094657" lon="0.894228033721447">
        <ele>2038</ele>
        <time>2026-04-29T11:29:38Z</time>
      </trkpt>
      <trkpt lat="42.819732036441565" lon="0.894242031499743">
        <ele>2033</ele>
        <time>2026-04-29T11:29:58Z</time>
      </trkpt>
      <trkpt lat="42.819769000634551" lon="0.894262986257672">
        <ele>2032</ele>
        <time>2026-04-29T11:30:06Z</time>
      </trkpt>
      <trkpt lat="42.819921970367432" lon="0.894267009571195">
        <ele>2025</ele>
        <time>2026-04-29T11:30:36Z</time>
      </trkpt>
      <trkpt lat="42.819962035864592" lon="0.894282013177872">
        <ele>2023</ele>
        <time>2026-04-29T11:30:44Z</time>
      </trkpt>
      <trkpt lat="42.820006040856242" lon="0.894276984035969">
        <ele>2021</ele>
        <time>2026-04-29T11:30:54Z</time>
      </trkpt>
      <trkpt lat="42.82004501670599" lon="0.894275978207588">
        <ele>2020</ele>
        <time>2026-04-29T11:31:02Z</time>
      </trkpt>
      <trkpt lat="42.820087010040879" lon="0.894285030663013">
        <ele>2018</ele>
        <time>2026-04-29T11:31:10Z</time>
      </trkpt>
      <trkpt lat="42.820162028074265" lon="0.894287964329124">
        <ele>2016</ele>
        <time>2026-04-29T11:31:24Z</time>
      </trkpt>
      <trkpt lat="42.820195974782109" lon="0.894266003742814">
        <ele>2015</ele>
        <time>2026-04-29T11:31:30Z</time>
      </trkpt>
      <trkpt lat="42.820232016965747" lon="0.894271032884717">
        <ele>2014</ele>
        <time>2026-04-29T11:31:36Z</time>
      </trkpt>
      <trkpt lat="42.820268981158733" lon="0.894262986257672">
        <ele>2014</ele>
        <time>2026-04-29T11:32:00Z</time>
      </trkpt>
      <trkpt lat="42.820308962836862" lon="0.894268015399575">
        <ele>2013</ele>
        <time>2026-04-29T11:32:06Z</time>
      </trkpt>
      <trkpt lat="42.82039001584053" lon="0.894224010407925">
        <ele>2011</ele>
        <time>2026-04-29T11:32:18Z</time>
      </trkpt>
      <trkpt lat="42.820431003347039" lon="0.894183022901416">
        <ele>2010</ele>
        <time>2026-04-29T11:32:24Z</time>
      </trkpt>
      <trkpt lat="42.820486994460225" lon="0.894042961299419">
        <ele>2007</ele>
        <time>2026-04-29T11:32:44Z</time>
      </trkpt>
      <trkpt lat="42.820511972531676" lon="0.89399803429842">
        <ele>2007</ele>
        <time>2026-04-29T11:32:50Z</time>
      </trkpt>
      <trkpt lat="42.820529993623495" lon="0.893952017650008">
        <ele>2006</ele>
        <time>2026-04-29T11:32:56Z</time>
      </trkpt>
      <trkpt lat="42.820551032200456" lon="0.893913041800261">
        <ele>2005</ele>
        <time>2026-04-29T11:33:04Z</time>
      </trkpt>
      <trkpt lat="42.8206040058285" lon="0.89382897131145">
        <ele>2002</ele>
        <time>2026-04-29T11:33:56Z</time>
      </trkpt>
      <trkpt lat="42.820652034133673" lon="0.893809022381902">
        <ele>2000</ele>
        <time>2026-04-29T11:34:02Z</time>
      </trkpt>
      <trkpt lat="42.820782037451863" lon="0.893759988248348">
        <ele>1997</ele>
        <time>2026-04-29T11:34:16Z</time>
      </trkpt>
      <trkpt lat="42.8208630066365" lon="0.893726041540504">
        <ele>1995</ele>
        <time>2026-04-29T11:34:24Z</time>
      </trkpt>
      <trkpt lat="42.820898965001106" lon="0.893726041540504">
        <ele>1995</ele>
        <time>2026-04-29T11:34:28Z</time>
      </trkpt>
      <trkpt lat="42.820984963327646" lon="0.893680024892092">
        <ele>1991</ele>
        <time>2026-04-29T11:34:40Z</time>
      </trkpt>
      <trkpt lat="42.821017988026142" lon="0.893660997971892">
        <ele>1990</ele>
        <time>2026-04-29T11:34:46Z</time>
      </trkpt>
      <trkpt lat="42.82107800245285" lon="0.893711037933826">
        <ele>1983</ele>
        <time>2026-04-29T11:35:06Z</time>
      </trkpt>
      <trkpt lat="42.821201970800757" lon="0.893719000741839">
        <ele>1975</ele>
        <time>2026-04-29T11:35:24Z</time>
      </trkpt>
      <trkpt lat="42.821318982169032" lon="0.893691005185246">
        <ele>1971</ele>
        <time>2026-04-29T11:35:38Z</time>
      </trkpt>
      <trkpt lat="42.821584017947316" lon="0.893629984930158">
        <ele>1966</ele>
        <time>2026-04-29T11:36:04Z</time>
      </trkpt>
      <trkpt lat="42.821846958249807" lon="0.893495036289096">
        <ele>1963</ele>
        <time>2026-04-29T11:36:34Z</time>
      </trkpt>
      <trkpt lat="42.822124985978007" lon="0.893405014649034">
        <ele>1960</ele>
        <time>2026-04-29T11:37:06Z</time>
      </trkpt>
      <trkpt lat="42.822157004848123" lon="0.893423035740852">
        <ele>1960</ele>
        <time>2026-04-29T11:37:12Z</time>
      </trkpt>
      <trkpt lat="42.822155999019742" lon="0.893426975235343">
        <ele>1961</ele>
        <time>2026-04-29T11:40:34Z</time>
      </trkpt>
      <trkpt lat="42.822142001241446" lon="0.893466034904122">
        <ele>1961</ele>
        <time>2026-04-29T11:40:42Z</time>
      </trkpt>
      <trkpt lat="42.822179971262813" lon="0.893465029075742">
        <ele>1960</ele>
        <time>2026-04-29T11:41:52Z</time>
      </trkpt>
      <trkpt lat="42.822217019274831" lon="0.893485983833671">
        <ele>1960</ele>
        <time>2026-04-29T11:41:56Z</time>
      </trkpt>
      <trkpt lat="42.822246020659804" lon="0.893523031845689">
        <ele>1959</ele>
        <time>2026-04-29T11:42:00Z</time>
      </trkpt>
      <trkpt lat="42.822454981505871" lon="0.893775997683406">
        <ele>1958</ele>
        <time>2026-04-29T11:42:30Z</time>
      </trkpt>
      <trkpt lat="42.822497980669141" lon="0.89380600489676">
        <ele>1957</ele>
        <time>2026-04-29T11:42:36Z</time>
      </trkpt>
      <trkpt lat="42.822527987882495" lon="0.893839029595256">
        <ele>1957</ele>
        <time>2026-04-29T11:42:40Z</time>
      </trkpt>
      <trkpt lat="42.822713982313871" lon="0.894042039290071">
        <ele>1956</ele>
        <time>2026-04-29T11:43:06Z</time>
      </trkpt>
      <trkpt lat="42.822735020890832" lon="0.894080009311438">
        <ele>1955</ele>
        <time>2026-04-29T11:43:10Z</time>
      </trkpt>
      <trkpt lat="42.822783971205354" lon="0.894158966839314">
        <ele>1955</ele>
        <time>2026-04-29T11:43:18Z</time>
      </trkpt>
      <trkpt lat="42.82279696315527" lon="0.894204983487725">
        <ele>1955</ele>
        <time>2026-04-29T11:43:22Z</time>
      </trkpt>
      <trkpt lat="42.822815990075469" lon="0.894248988479376">
        <ele>1955</ele>
        <time>2026-04-29T11:43:26Z</time>
      </trkpt>
      <trkpt lat="42.822898970916867" lon="0.894401958212256">
        <ele>1955</ele>
        <time>2026-04-29T11:43:42Z</time>
      </trkpt>
      <trkpt lat="42.823005001991987" lon="0.894549982622266">
        <ele>1957</ele>
        <time>2026-04-29T11:44:00Z</time>
      </trkpt>
      <trkpt lat="42.823028974235058" lon="0.894593987613916">
        <ele>1957</ele>
        <time>2026-04-29T11:44:06Z</time>
      </trkpt>
      <trkpt lat="42.823058981448412" lon="0.894642015919089">
        <ele>1958</ele>
        <time>2026-04-29T11:44:12Z</time>
      </trkpt>
      <trkpt lat="42.823085971176624" lon="0.894691972061992">
        <ele>1958</ele>
        <time>2026-04-29T11:44:18Z</time>
      </trkpt>
      <trkpt lat="42.823113966733217" lon="0.894734971225262">
        <ele>1960</ele>
        <time>2026-04-29T11:44:24Z</time>
      </trkpt>
      <trkpt lat="42.823184039443731" lon="0.894806971773505">
        <ele>1962</ele>
        <time>2026-04-29T11:44:48Z</time>
      </trkpt>
      <trkpt lat="42.823216980323195" lon="0.894839996472001">
        <ele>1963</ele>
        <time>2026-04-29T11:44:54Z</time>
      </trkpt>
      <trkpt lat="42.823342960327864" lon="0.894905962049961">
        <ele>1964</ele>
        <time>2026-04-29T11:45:12Z</time>
      </trkpt>
      <trkpt lat="42.823344971984625" lon="0.894954996183515">
        <ele>1965</ele>
        <time>2026-04-29T11:45:36Z</time>
      </trkpt>
      <trkpt lat="42.823307001963258" lon="0.894973017275333">
        <ele>1963</ele>
        <time>2026-04-29T11:45:50Z</time>
      </trkpt>
      <trkpt lat="42.82327095977962" lon="0.894950972869992">
        <ele>1962</ele>
        <time>2026-04-29T11:45:58Z</time>
      </trkpt>
      <trkpt lat="42.823316976428032" lon="0.895145013928413">
        <ele>1955</ele>
        <time>2026-04-29T11:46:34Z</time>
      </trkpt>
      <trkpt lat="42.823327034711838" lon="0.895264036953449">
        <ele>1948</ele>
        <time>2026-04-29T11:46:50Z</time>
      </trkpt>
      <trkpt lat="42.823309013620019" lon="0.895320028066635">
        <ele>1946</ele>
        <time>2026-04-29T11:46:58Z</time>
      </trkpt>
      <trkpt lat="42.823299961164594" lon="0.895379958674312">
        <ele>1943</ele>
        <time>2026-04-29T11:47:04Z</time>
      </trkpt>
      <trkpt lat="42.823309013620019" lon="0.895425975322723">
        <ele>1943</ele>
        <time>2026-04-29T11:47:08Z</time>
      </trkpt>
      <trkpt lat="42.823334997519851" lon="0.895480960607529">
        <ele>1941</ele>
        <time>2026-04-29T11:47:14Z</time>
      </trkpt>
      <trkpt lat="42.823370033875108" lon="0.895513985306025">
        <ele>1941</ele>
        <time>2026-04-29T11:47:20Z</time>
      </trkpt>
      <trkpt lat="42.823404986411333" lon="0.895553966984153">
        <ele>1940</ele>
        <time>2026-04-29T11:47:26Z</time>
      </trkpt>
      <trkpt lat="42.823500959202647" lon="0.895693022757769">
        <ele>1938</ele>
        <time>2026-04-29T11:47:42Z</time>
      </trkpt>
      <trkpt lat="42.823535995557904" lon="0.895790001377463">
        <ele>1937</ele>
        <time>2026-04-29T11:47:50Z</time>
      </trkpt>
      <trkpt lat="42.823552004992962" lon="0.895894020795822">
        <ele>1936</ele>
        <time>2026-04-29T11:47:58Z</time>
      </trkpt>
      <trkpt lat="42.823575977236032" lon="0.896000973880291">
        <ele>1935</ele>
        <time>2026-04-29T11:48:08Z</time>
      </trkpt>
      <trkpt lat="42.823672033846378" lon="0.896187974140048">
        <ele>1933</ele>
        <time>2026-04-29T11:48:24Z</time>
      </trkpt>
      <trkpt lat="42.82369801774621" lon="0.896223010495305">
        <ele>1933</ele>
        <time>2026-04-29T11:48:28Z</time>
      </trkpt>
      <trkpt lat="42.823729030787945" lon="0.896274978294969">
        <ele>1933</ele>
        <time>2026-04-29T11:48:34Z</time>
      </trkpt>
      <trkpt lat="42.82376398332417" lon="0.896546971052885">
        <ele>1929</ele>
        <time>2026-04-29T11:48:58Z</time>
      </trkpt>
      <trkpt lat="42.823770018294454" lon="0.896732965484262">
        <ele>1926</ele>
        <time>2026-04-29T11:49:14Z</time>
      </trkpt>
      <trkpt lat="42.823768006637692" lon="0.89679297991097">
        <ele>1925</ele>
        <time>2026-04-29T11:49:20Z</time>
      </trkpt>
      <trkpt lat="42.823750991374254" lon="0.896838996559381">
        <ele>1925</ele>
        <time>2026-04-29T11:49:44Z</time>
      </trkpt>
      <trkpt lat="42.823771024122834" lon="0.896905967965722">
        <ele>1924</ele>
        <time>2026-04-29T11:49:50Z</time>
      </trkpt>
      <trkpt lat="42.823791978880763" lon="0.897001018747687">
        <ele>1923</ele>
        <time>2026-04-29T11:49:58Z</time>
      </trkpt>
      <trkpt lat="42.823773035779595" lon="0.897169997915626">
        <ele>1921</ele>
        <time>2026-04-29T11:50:12Z</time>
      </trkpt>
      <trkpt lat="42.823774963617325" lon="0.897339982911944">
        <ele>1916</ele>
        <time>2026-04-29T11:50:28Z</time>
      </trkpt>
      <trkpt lat="42.823800025507808" lon="0.897402008995414">
        <ele>1915</ele>
        <time>2026-04-29T11:50:34Z</time>
      </trkpt>
      <trkpt lat="42.823855010792613" lon="0.897493958473206">
        <ele>1913</ele>
        <time>2026-04-29T11:50:42Z</time>
      </trkpt>
      <trkpt lat="42.823868002742529" lon="0.897539975121617">
        <ele>1913</ele>
        <time>2026-04-29T11:50:46Z</time>
      </trkpt>
      <trkpt lat="42.8238919749856" lon="0.897583980113268">
        <ele>1913</ele>
        <time>2026-04-29T11:50:50Z</time>
      </trkpt>
      <trkpt lat="42.823908990249038" lon="0.897646006196737">
        <ele>1913</ele>
        <time>2026-04-29T11:50:54Z</time>
      </trkpt>
      <trkpt lat="42.823938997462392" lon="0.89776000007987">
        <ele>1913</ele>
        <time>2026-04-29T11:51:02Z</time>
      </trkpt>
      <trkpt lat="42.824081992730498" lon="0.898048002272844">
        <ele>1905</ele>
        <time>2026-04-29T11:51:32Z</time>
      </trkpt>
      <trkpt lat="42.824099007993937" lon="0.898097958415747">
        <ele>1904</ele>
        <time>2026-04-29T11:51:36Z</time>
      </trkpt>
      <trkpt lat="42.824133038520813" lon="0.898221004754305">
        <ele>1903</ele>
        <time>2026-04-29T11:51:46Z</time>
      </trkpt>
      <trkpt lat="42.824226999655366" lon="0.898365005850792">
        <ele>1904</ele>
        <time>2026-04-29T11:51:58Z</time>
      </trkpt>
      <trkpt lat="42.824268992990255" lon="0.898385960608721">
        <ele>1906</ele>
        <time>2026-04-29T11:52:04Z</time>
      </trkpt>
      <trkpt lat="42.824379969388247" lon="0.898589976131916">
        <ele>1907</ele>
        <time>2026-04-29T11:52:40Z</time>
      </trkpt>
      <trkpt lat="42.824411988258362" lon="0.898630963638425">
        <ele>1906</ele>
        <time>2026-04-29T11:52:50Z</time>
      </trkpt>
      <trkpt lat="42.824404025450349" lon="0.898676980286837">
        <ele>1905</ele>
        <time>2026-04-29T11:52:56Z</time>
      </trkpt>
      <trkpt lat="42.824382986873388" lon="0.89872601442039">
        <ele>1903</ele>
        <time>2026-04-29T11:53:02Z</time>
      </trkpt>
      <trkpt lat="42.824415005743504" lon="0.898742023855448">
        <ele>1904</ele>
        <time>2026-04-29T12:01:16Z</time>
      </trkpt>
      <trkpt lat="42.824499998241663" lon="0.898872027173638">
        <ele>1906</ele>
        <time>2026-04-29T12:01:34Z</time>
      </trkpt>
      <trkpt lat="42.824503015726805" lon="0.898934975266457">
        <ele>1906</ele>
        <time>2026-04-29T12:01:42Z</time>
      </trkpt>
      <trkpt lat="42.824520030990243" lon="0.898981997743249">
        <ele>1905</ele>
        <time>2026-04-29T12:01:46Z</time>
      </trkpt>
      <trkpt lat="42.824550960212946" lon="0.899036983028054">
        <ele>1905</ele>
        <time>2026-04-29T12:01:52Z</time>
      </trkpt>
      <trkpt lat="42.824566969648004" lon="0.89909196831286">
        <ele>1905</ele>
        <time>2026-04-29T12:01:56Z</time>
      </trkpt>
      <trkpt lat="42.824596976861358" lon="0.899147037416697">
        <ele>1905</ele>
        <time>2026-04-29T12:02:00Z</time>
      </trkpt>
      <trkpt lat="42.824688004329801" lon="0.899401009082794">
        <ele>1907</ele>
        <time>2026-04-29T12:02:16Z</time>
      </trkpt>
      <trkpt lat="42.82472999766469" lon="0.899507040157914">
        <ele>1907</ele>
        <time>2026-04-29T12:02:36Z</time>
      </trkpt>
      <trkpt lat="42.824766961857677" lon="0.899503016844392">
        <ele>1908</ele>
        <time>2026-04-29T12:02:44Z</time>
      </trkpt>
      <trkpt lat="42.824809039011598" lon="0.899531012400985">
        <ele>1907</ele>
        <time>2026-04-29T12:02:52Z</time>
      </trkpt>
      <trkpt lat="42.824864024296403" lon="0.899616004899144">
        <ele>1905</ele>
        <time>2026-04-29T12:03:04Z</time>
      </trkpt>
      <trkpt lat="42.824982041493058" lon="0.899685993790627">
        <ele>1905</ele>
        <time>2026-04-29T12:03:20Z</time>
      </trkpt>
      <trkpt lat="42.825134005397558" lon="0.899742990732193">
        <ele>1910</ele>
        <time>2026-04-29T12:03:46Z</time>
      </trkpt>
      <trkpt lat="42.825216986238956" lon="0.899750031530857">
        <ele>1913</ele>
        <time>2026-04-29T12:04:02Z</time>
      </trkpt>
      <trkpt lat="42.825258979573846" lon="0.899732010439038">
        <ele>1915</ele>
        <time>2026-04-29T12:04:10Z</time>
      </trkpt>
      <trkpt lat="42.825296027585864" lon="0.899719018489122">
        <ele>1915</ele>
        <time>2026-04-29T12:04:18Z</time>
      </trkpt>
      <trkpt lat="42.825332991778851" lon="0.899733016267419">
        <ele>1916</ele>
        <time>2026-04-29T12:04:24Z</time>
      </trkpt>
      <trkpt lat="42.825466012582183" lon="0.899720024317503">
        <ele>1919</ele>
        <time>2026-04-29T12:04:48Z</time>
      </trkpt>
      <trkpt lat="42.825501970946789" lon="0.899708960205317">
        <ele>1919</ele>
        <time>2026-04-29T12:04:54Z</time>
      </trkpt>
      <trkpt lat="42.825628034770489" lon="0.899760005995631">
        <ele>1921</ele>
        <time>2026-04-29T12:05:12Z</time>
      </trkpt>
      <trkpt lat="42.825695006176829" lon="0.899813985452056">
        <ele>1924</ele>
        <time>2026-04-29T12:05:26Z</time>
      </trkpt>
      <trkpt lat="42.825732976198196" lon="0.899826977401972">
        <ele>1925</ele>
        <time>2026-04-29T12:05:34Z</time>
      </trkpt>
      <trkpt lat="42.825778992846608" lon="0.899852039292455">
        <ele>1926</ele>
        <time>2026-04-29T12:05:42Z</time>
      </trkpt>
      <trkpt lat="42.825818974524736" lon="0.899958992376924">
        <ele>1927</ele>
        <time>2026-04-29T12:06:16Z</time>
      </trkpt>
      <trkpt lat="42.825907990336418" lon="0.899992017075419">
        <ele>1927</ele>
        <time>2026-04-29T12:06:24Z</time>
      </trkpt>
      <trkpt lat="42.825959958136082" lon="0.899980030953884">
        <ele>1927</ele>
        <time>2026-04-29T12:06:28Z</time>
      </trkpt>
      <trkpt lat="42.82599801197648" lon="0.899973995983601">
        <ele>1927</ele>
        <time>2026-04-29T12:06:32Z</time>
      </trkpt>
      <trkpt lat="42.82604101113975" lon="0.899985982105136">
        <ele>1926</ele>
        <time>2026-04-29T12:06:38Z</time>
      </trkpt>
      <trkpt lat="42.826060960069299" lon="0.900029987096787">
        <ele>1926</ele>
        <time>2026-04-29T12:06:42Z</time>
      </trkpt>
      <trkpt lat="42.826116029173136" lon="0.900130989030004">
        <ele>1924</ele>
        <time>2026-04-29T12:07:00Z</time>
      </trkpt>
      <trkpt lat="42.826155005022883" lon="0.900123026221991">
        <ele>1924</ele>
        <time>2026-04-29T12:07:14Z</time>
      </trkpt>
      <trkpt lat="42.826164979487658" lon="0.900146998465061">
        <ele>1924</ele>
        <time>2026-04-29T12:07:48Z</time>
      </trkpt>
      <trkpt lat="42.826204961165786" lon="0.900156972929835">
        <ele>1924</ele>
        <time>2026-04-29T12:07:58Z</time>
      </trkpt>
      <trkpt lat="42.826247038319707" lon="0.900167031213641">
        <ele>1921</ele>
        <time>2026-04-29T12:08:08Z</time>
      </trkpt>
      <trkpt lat="42.826279979199171" lon="0.900193015113473">
        <ele>1921</ele>
        <time>2026-04-29T12:08:14Z</time>
      </trkpt>
      <trkpt lat="42.826313003897667" lon="0.900222016498446">
        <ele>1918</ele>
        <time>2026-04-29T12:08:26Z</time>
      </trkpt>
      <trkpt lat="42.826387016102672" lon="0.900263004004955">
        <ele>1918</ele>
        <time>2026-04-29T12:08:38Z</time>
      </trkpt>
      <trkpt lat="42.826459016650915" lon="0.900295022875071">
        <ele>1916</ele>
        <time>2026-04-29T12:08:56Z</time>
      </trkpt>
      <trkpt lat="42.826500004157424" lon="0.900269960984588">
        <ele>1915</ele>
        <time>2026-04-29T12:09:02Z</time>
      </trkpt>
      <trkpt lat="42.826584996655583" lon="0.900290999561548">
        <ele>1911</ele>
        <time>2026-04-29T12:09:14Z</time>
      </trkpt>
      <trkpt lat="42.826612992212176" lon="0.900326035916805">
        <ele>1908</ele>
        <time>2026-04-29T12:09:18Z</time>
      </trkpt>
      <trkpt lat="42.826635036617517" lon="0.900369035080075">
        <ele>1908</ele>
        <time>2026-04-29T12:09:22Z</time>
      </trkpt>
      <trkpt lat="42.82666202634573" lon="0.900411028414965">
        <ele>1907</ele>
        <time>2026-04-29T12:09:28Z</time>
      </trkpt>
      <trkpt lat="42.826691027730703" lon="0.900439023971558">
        <ele>1907</ele>
        <time>2026-04-29T12:09:32Z</time>
      </trkpt>
      <trkpt lat="42.826719023287296" lon="0.900485962629318">
        <ele>1906</ele>
        <time>2026-04-29T12:09:38Z</time>
      </trkpt>
      <trkpt lat="42.82675095833838" lon="0.900508007034659">
        <ele>1905</ele>
        <time>2026-04-29T12:09:44Z</time>
      </trkpt>
      <trkpt lat="42.826780965551734" lon="0.900548994541168">
        <ele>1903</ele>
        <time>2026-04-29T12:09:50Z</time>
      </trkpt>
      <trkpt lat="42.82681399025023" lon="0.900599034503102">
        <ele>1902</ele>
        <time>2026-04-29T12:09:56Z</time>
      </trkpt>
      <trkpt lat="42.826812984421849" lon="0.900665000081062">
        <ele>1901</ele>
        <time>2026-04-29T12:10:02Z</time>
      </trkpt>
      <trkpt lat="42.82679202966392" lon="0.9008530061692">
        <ele>1897</ele>
        <time>2026-04-29T12:10:42Z</time>
      </trkpt>
      <trkpt lat="42.826788006350398" lon="0.900904973968863">
        <ele>1896</ele>
        <time>2026-04-29T12:10:46Z</time>
      </trkpt>
      <trkpt lat="42.82675196416676" lon="0.901129022240639">
        <ele>1893</ele>
        <time>2026-04-29T12:11:02Z</time>
      </trkpt>
      <trkpt lat="42.826747018843889" lon="0.901183001697063">
        <ele>1893</ele>
        <time>2026-04-29T12:11:06Z</time>
      </trkpt>
      <trkpt lat="42.826714999973774" lon="0.901466980576515">
        <ele>1891</ele>
        <time>2026-04-29T12:11:34Z</time>
      </trkpt>
      <trkpt lat="42.82670896500349" lon="0.901517020538449">
        <ele>1890</ele>
        <time>2026-04-29T12:11:38Z</time>
      </trkpt>
      <trkpt lat="42.826707037165761" lon="0.901566976681352">
        <ele>1890</ele>
        <time>2026-04-29T12:11:42Z</time>
      </trkpt>
      <trkpt lat="42.826701002195477" lon="0.901908036321402">
        <ele>1887</ele>
        <time>2026-04-29T12:12:14Z</time>
      </trkpt>
      <trkpt lat="42.826707037165761" lon="0.902019012719393">
        <ele>1886</ele>
        <time>2026-04-29T12:12:22Z</time>
      </trkpt>
      <trkpt lat="42.826710976660252" lon="0.902067041024566">
        <ele>1886</ele>
        <time>2026-04-29T12:12:26Z</time>
      </trkpt>
      <trkpt lat="42.826725980266929" lon="0.902202995494008">
        <ele>1885</ele>
        <time>2026-04-29T12:12:38Z</time>
      </trkpt>
      <trkpt lat="42.826734026893973" lon="0.902310032397509">
        <ele>1884</ele>
        <time>2026-04-29T12:12:46Z</time>
      </trkpt>
      <trkpt lat="42.826725980266929" lon="0.902356971055269">
        <ele>1884</ele>
        <time>2026-04-29T12:12:50Z</time>
      </trkpt>
      <trkpt lat="42.826720029115677" lon="0.902413967996836">
        <ele>1883</ele>
        <time>2026-04-29T12:12:56Z</time>
      </trkpt>
      <trkpt lat="42.826707037165761" lon="0.902488986030221">
        <ele>1882</ele>
        <time>2026-04-29T12:13:02Z</time>
      </trkpt>
      <trkpt lat="42.826681975275278" lon="0.902533996850252">
        <ele>1881</ele>
        <time>2026-04-29T12:13:06Z</time>
      </trkpt>
      <trkpt lat="42.826664038002491" lon="0.902641033753753">
        <ele>1880</ele>
        <time>2026-04-29T12:13:14Z</time>
      </trkpt>
      <trkpt lat="42.826655991375446" lon="0.902690989896655">
        <ele>1880</ele>
        <time>2026-04-29T12:13:18Z</time>
      </trkpt>
      <trkpt lat="42.826630007475615" lon="0.90278796851635">
        <ele>1878</ele>
        <time>2026-04-29T12:13:26Z</time>
      </trkpt>
      <trkpt lat="42.826592959463596" lon="0.902876984328032">
        <ele>1875</ele>
        <time>2026-04-29T12:13:34Z</time>
      </trkpt>
      <trkpt lat="42.826538980007172" lon="0.902972035109997">
        <ele>1872</ele>
        <time>2026-04-29T12:13:44Z</time>
      </trkpt>
      <trkpt lat="42.826506961137056" lon="0.902996007353067">
        <ele>1870</ele>
        <time>2026-04-29T12:13:48Z</time>
      </trkpt>
      <trkpt lat="42.826494975015521" lon="0.903045041486621">
        <ele>1870</ele>
        <time>2026-04-29T12:13:52Z</time>
      </trkpt>
      <trkpt lat="42.826516013592482" lon="0.903085023164749">
        <ele>1871</ele>
        <time>2026-04-29T12:13:56Z</time>
      </trkpt>
      <trkpt lat="42.826549038290977" lon="0.903126010671258">
        <ele>1871</ele>
        <time>2026-04-29T12:14:02Z</time>
      </trkpt>
      <trkpt lat="42.826550966128707" lon="0.903145959600806">
        <ele>1874</ele>
        <time>2026-04-29T12:16:36Z</time>
      </trkpt>
      <trkpt lat="42.826563036069274" lon="0.903079994022846">
        <ele>1874</ele>
        <time>2026-04-29T12:18:04Z</time>
      </trkpt>
      <trkpt lat="42.826594971120358" lon="0.903034983202815">
        <ele>1875</ele>
        <time>2026-04-29T12:18:10Z</time>
      </trkpt>
      <trkpt lat="42.826639981940389" lon="0.903026014566422">
        <ele>1875</ele>
        <time>2026-04-29T12:18:16Z</time>
      </trkpt>
      <trkpt lat="42.826733021065593" lon="0.903148977085948">
        <ele>1874</ele>
        <time>2026-04-29T12:18:28Z</time>
      </trkpt>
      <trkpt lat="42.826750036329031" lon="0.903197005391121">
        <ele>1873</ele>
        <time>2026-04-29T12:18:32Z</time>
      </trkpt>
      <trkpt lat="42.82674903050065" lon="0.903248973190784">
        <ele>1872</ele>
        <time>2026-04-29T12:18:36Z</time>
      </trkpt>
      <trkpt lat="42.826767973601818" lon="0.903308987617493">
        <ele>1871</ele>
        <time>2026-04-29T12:18:42Z</time>
      </trkpt>
      <trkpt lat="42.826795969158411" lon="0.903346035629511">
        <ele>1870</ele>
        <time>2026-04-29T12:18:46Z</time>
      </trkpt>
      <trkpt lat="42.826911974698305" lon="0.903572011739016">
        <ele>1871</ele>
        <time>2026-04-29T12:19:02Z</time>
      </trkpt>
      <trkpt lat="42.826936030760407" lon="0.903628002852201">
        <ele>1871</ele>
        <time>2026-04-29T12:19:06Z</time>
      </trkpt>
      <trkpt lat="42.827004007995129" lon="0.903700003400445">
        <ele>1871</ele>
        <time>2026-04-29T12:19:16Z</time>
      </trkpt>
      <trkpt lat="42.827165024355054" lon="0.903741996735334">
        <ele>1870</ele>
        <time>2026-04-29T12:19:32Z</time>
      </trkpt>
      <trkpt lat="42.827210035175085" lon="0.903733028098941">
        <ele>1869</ele>
        <time>2026-04-29T12:19:36Z</time>
      </trkpt>
      <trkpt lat="42.827589986845851" lon="0.903879040852189">
        <ele>1869</ele>
        <time>2026-04-29T12:20:08Z</time>
      </trkpt>
      <trkpt lat="42.82767497934401" lon="0.903897983953357">
        <ele>1869</ele>
        <time>2026-04-29T12:20:18Z</time>
      </trkpt>
      <trkpt lat="42.827714961022139" lon="0.903887003660202">
        <ele>1869</ele>
        <time>2026-04-29T12:20:22Z</time>
      </trkpt>
      <trkpt lat="42.827758966013789" lon="0.903851967304945">
        <ele>1869</ele>
        <time>2026-04-29T12:20:26Z</time>
      </trkpt>
      <trkpt lat="42.827826021239161" lon="0.903702015057206">
        <ele>1869</ele>
        <time>2026-04-29T12:20:38Z</time>
      </trkpt>
      <trkpt lat="42.827832978218794" lon="0.903642000630498">
        <ele>1869</ele>
        <time>2026-04-29T12:20:42Z</time>
      </trkpt>
      <trkpt lat="42.827816968783736" lon="0.903577040880919">
        <ele>1869</ele>
        <time>2026-04-29T12:20:46Z</time>
      </trkpt>
      <trkpt lat="42.827816968783736" lon="0.903501017019153">
        <ele>1869</ele>
        <time>2026-04-29T12:20:50Z</time>
      </trkpt>
      <trkpt lat="42.827856028452516" lon="0.903461035341024">
        <ele>1867</ele>
        <time>2026-04-29T12:20:54Z</time>
      </trkpt>
      <trkpt lat="42.828084016218781" lon="0.903549967333674">
        <ele>1866</ele>
        <time>2026-04-29T12:21:14Z</time>
      </trkpt>
      <trkpt lat="42.828194992616773" lon="0.903703020885587">
        <ele>1870</ele>
        <time>2026-04-29T12:21:30Z</time>
      </trkpt>
      <trkpt lat="42.82823396846652" lon="0.903737973421812">
        <ele>1871</ele>
        <time>2026-04-29T12:21:34Z</time>
      </trkpt>
      <trkpt lat="42.828275039792061" lon="0.903783990070224">
        <ele>1871</ele>
        <time>2026-04-29T12:21:38Z</time>
      </trkpt>
      <trkpt lat="42.828281996771693" lon="0.903846016153693">
        <ele>1872</ele>
        <time>2026-04-29T12:21:42Z</time>
      </trkpt>
      <trkpt lat="42.828385010361671" lon="0.904022958129644">
        <ele>1871</ele>
        <time>2026-04-29T12:21:58Z</time>
      </trkpt>
      <trkpt lat="42.82859698869288" lon="0.904276007786393">
        <ele>1868</ele>
        <time>2026-04-29T12:22:22Z</time>
      </trkpt>
      <trkpt lat="42.8286839928478" lon="0.904364017769694">
        <ele>1868</ele>
        <time>2026-04-29T12:22:30Z</time>
      </trkpt>
      <trkpt lat="42.828721040859818" lon="0.904413973912597">
        <ele>1869</ele>
        <time>2026-04-29T12:22:34Z</time>
      </trkpt>
      <trkpt lat="42.828763034194708" lon="0.904444986954331">
        <ele>1869</ele>
        <time>2026-04-29T12:22:38Z</time>
      </trkpt>
      <trkpt lat="42.828853977844119" lon="0.904479017481208">
        <ele>1871</ele>
        <time>2026-04-29T12:22:46Z</time>
      </trkpt>
      <trkpt lat="42.828948022797704" lon="0.90450500138104">
        <ele>1871</ele>
        <time>2026-04-29T12:22:54Z</time>
      </trkpt>
      <trkpt lat="42.82911297865212" lon="0.90463399887085">
        <ele>1871</ele>
        <time>2026-04-29T12:23:10Z</time>
      </trkpt>
      <trkpt lat="42.829173998907208" lon="0.904715973883867">
        <ele>1871</ele>
        <time>2026-04-29T12:23:18Z</time>
      </trkpt>
      <trkpt lat="42.829213980585337" lon="0.904931975528598">
        <ele>1872</ele>
        <time>2026-04-29T12:23:34Z</time>
      </trkpt>
      <trkpt lat="42.829394023865461" lon="0.905346041545272">
        <ele>1871</ele>
        <time>2026-04-29T12:24:06Z</time>
      </trkpt>
      <trkpt lat="42.829432999715209" lon="0.905464980751276">
        <ele>1871</ele>
        <time>2026-04-29T12:24:14Z</time>
      </trkpt>
      <trkpt lat="42.829463006928563" lon="0.905574029311538">
        <ele>1872</ele>
        <time>2026-04-29T12:24:22Z</time>
      </trkpt>
      <trkpt lat="42.829482033848763" lon="0.905621973797679">
        <ele>1872</ele>
        <time>2026-04-29T12:24:26Z</time>
      </trkpt>
      <trkpt lat="42.829503994435072" lon="0.905748959630728">
        <ele>1872</ele>
        <time>2026-04-29T12:24:34Z</time>
      </trkpt>
      <trkpt lat="42.829506006091833" lon="0.905994968488812">
        <ele>1871</ele>
        <time>2026-04-29T12:24:50Z</time>
      </trkpt>
      <trkpt lat="42.829514974728227" lon="0.906048025935888">
        <ele>1871</ele>
        <time>2026-04-29T12:24:54Z</time>
      </trkpt>
      <trkpt lat="42.829524027183652" lon="0.906099993735552">
        <ele>1871</ele>
        <time>2026-04-29T12:24:58Z</time>
      </trkpt>
      <trkpt lat="42.82954003661871" lon="0.906214993447065">
        <ele>1871</ele>
        <time>2026-04-29T12:25:06Z</time>
      </trkpt>
      <trkpt lat="42.829534001648426" lon="0.906271990388632">
        <ele>1872</ele>
        <time>2026-04-29T12:25:10Z</time>
      </trkpt>
      <trkpt lat="42.829464012756944" lon="0.906479023396969">
        <ele>1873</ele>
        <time>2026-04-29T12:25:22Z</time>
      </trkpt>
      <trkpt lat="42.829440962523222" lon="0.906549012288451">
        <ele>1875</ele>
        <time>2026-04-29T12:25:26Z</time>
      </trkpt>
      <trkpt lat="42.829436017200351" lon="0.906603997573256">
        <ele>1876</ele>
        <time>2026-04-29T12:25:30Z</time>
      </trkpt>
      <trkpt lat="42.829442974179983" lon="0.906693013384938">
        <ele>1876</ele>
        <time>2026-04-29T12:25:34Z</time>
      </trkpt>
      <trkpt lat="42.829466024413705" lon="0.906755039468408">
        <ele>1875</ele>
        <time>2026-04-29T12:25:38Z</time>
      </trkpt>
      <trkpt lat="42.829530984163284" lon="0.906827040016651">
        <ele>1873</ele>
        <time>2026-04-29T12:25:46Z</time>
      </trkpt>
      <trkpt lat="42.829561997205019" lon="0.906870039179921">
        <ele>1873</ele>
        <time>2026-04-29T12:25:50Z</time>
      </trkpt>
      <trkpt lat="42.829816974699497" lon="0.907112024724483">
        <ele>1870</ele>
        <time>2026-04-29T12:26:18Z</time>
      </trkpt>
      <trkpt lat="42.829834995791316" lon="0.907168015837669">
        <ele>1871</ele>
        <time>2026-04-29T12:26:22Z</time>
      </trkpt>
      <trkpt lat="42.829914959147573" lon="0.907531036064029">
        <ele>1871</ele>
        <time>2026-04-29T12:26:46Z</time>
      </trkpt>
      <trkpt lat="42.829938009381294" lon="0.907589038833976">
        <ele>1871</ele>
        <time>2026-04-29T12:26:50Z</time>
      </trkpt>
      <trkpt lat="42.829952007159591" lon="0.907645029947162">
        <ele>1871</ele>
        <time>2026-04-29T12:26:54Z</time>
      </trkpt>
      <trkpt lat="42.82997002825141" lon="0.907694986090064">
        <ele>1870</ele>
        <time>2026-04-29T12:26:58Z</time>
      </trkpt>
      <trkpt lat="42.82997103407979" lon="0.90777201578021">
        <ele>1872</ele>
        <time>2026-04-29T12:27:10Z</time>
      </trkpt>
      <trkpt lat="42.829986037686467" lon="0.907821971923113">
        <ele>1872</ele>
        <time>2026-04-29T12:27:14Z</time>
      </trkpt>
      <trkpt lat="42.829975979402661" lon="0.907882992178202">
        <ele>1871</ele>
        <time>2026-04-29T12:27:18Z</time>
      </trkpt>
      <trkpt lat="42.829974973574281" lon="0.907936971634626">
        <ele>1871</ele>
        <time>2026-04-29T12:27:22Z</time>
      </trkpt>
      <trkpt lat="42.829957958310843" lon="0.908060017973185">
        <ele>1870</ele>
        <time>2026-04-29T12:27:30Z</time>
      </trkpt>
      <trkpt lat="42.829948989674449" lon="0.908121960237622">
        <ele>1871</ele>
        <time>2026-04-29T12:27:34Z</time>
      </trkpt>
      <trkpt lat="42.829933986067772" lon="0.908174011856318">
        <ele>1870</ele>
        <time>2026-04-29T12:27:38Z</time>
      </trkpt>
      <trkpt lat="42.82992702908814" lon="0.908240983262658">
        <ele>1870</ele>
        <time>2026-04-29T12:27:42Z</time>
      </trkpt>
      <trkpt lat="42.829924011602998" lon="0.908303009346128">
        <ele>1870</ele>
        <time>2026-04-29T12:27:46Z</time>
      </trkpt>
      <trkpt lat="42.82990800216794" lon="0.908425971865654">
        <ele>1870</ele>
        <time>2026-04-29T12:27:54Z</time>
      </trkpt>
      <trkpt lat="42.829894004389644" lon="0.908483974635601">
        <ele>1870</ele>
        <time>2026-04-29T12:27:58Z</time>
      </trkpt>
      <trkpt lat="42.829862991347909" lon="0.908600986003876">
        <ele>1870</ele>
        <time>2026-04-29T12:28:06Z</time>
      </trkpt>
      <trkpt lat="42.829861985519528" lon="0.908672986552119">
        <ele>1870</ele>
        <time>2026-04-29T12:28:10Z</time>
      </trkpt>
      <trkpt lat="42.829914037138224" lon="0.908976998180151">
        <ele>1871</ele>
        <time>2026-04-29T12:28:30Z</time>
      </trkpt>
      <trkpt lat="42.829918982461095" lon="0.90903801843524">
        <ele>1871</ele>
        <time>2026-04-29T12:28:34Z</time>
      </trkpt>
      <trkpt lat="42.82992702908814" lon="0.909101972356439">
        <ele>1871</ele>
        <time>2026-04-29T12:28:38Z</time>
      </trkpt>
      <trkpt lat="42.829953012987971" lon="0.909150000661612">
        <ele>1871</ele>
        <time>2026-04-29T12:28:42Z</time>
      </trkpt>
      <trkpt lat="42.829990983009338" lon="0.909341024234891">
        <ele>1870</ele>
        <time>2026-04-29T12:28:54Z</time>
      </trkpt>
      <trkpt lat="42.830002969130874" lon="0.909402966499329">
        <ele>1870</ele>
        <time>2026-04-29T12:28:58Z</time>
      </trkpt>
      <trkpt lat="42.83001302741468" lon="0.9095339756459">
        <ele>1870</ele>
        <time>2026-04-29T12:29:06Z</time>
      </trkpt>
      <trkpt lat="42.830063989385962" lon="0.909715024754405">
        <ele>1870</ele>
        <time>2026-04-29T12:29:18Z</time>
      </trkpt>
      <trkpt lat="42.830088967457414" lon="0.909761963412166">
        <ele>1870</ele>
        <time>2026-04-29T12:29:22Z</time>
      </trkpt>
      <trkpt lat="42.830169014632702" lon="0.91004996560514">
        <ele>1870</ele>
        <time>2026-04-29T12:29:42Z</time>
      </trkpt>
      <trkpt lat="42.830167002975941" lon="0.910109980031848">
        <ele>1870</ele>
        <time>2026-04-29T12:29:46Z</time>
      </trkpt>
      <trkpt lat="42.830162979662418" lon="0.910369986668229">
        <ele>1866</ele>
        <time>2026-04-29T12:30:00Z</time>
      </trkpt>
      <trkpt lat="42.830173037946224" lon="0.910448022186756">
        <ele>1864</ele>
        <time>2026-04-29T12:30:04Z</time>
      </trkpt>
      <trkpt lat="42.830175971612334" lon="0.910580959171057">
        <ele>1863</ele>
        <time>2026-04-29T12:30:12Z</time>
      </trkpt>
      <trkpt lat="42.83016599714756" lon="0.91062898747623">
        <ele>1861</ele>
        <time>2026-04-29T12:30:16Z</time>
      </trkpt>
      <trkpt lat="42.830114029347897" lon="0.910664023831487">
        <ele>1861</ele>
        <time>2026-04-29T12:30:20Z</time>
      </trkpt>
      <trkpt lat="42.83007999882102" lon="0.910708028823137">
        <ele>1861</ele>
        <time>2026-04-29T12:30:24Z</time>
      </trkpt>
      <trkpt lat="42.830047979950905" lon="0.910691013559699">
        <ele>1863</ele>
        <time>2026-04-29T12:31:22Z</time>
      </trkpt>
      <trkpt lat="42.830049991607666" lon="0.910750022158027">
        <ele>1863</ele>
        <time>2026-04-29T12:32:32Z</time>
      </trkpt>
      <trkpt lat="42.830038005486131" lon="0.910794027149677">
        <ele>1863</ele>
        <time>2026-04-29T12:32:44Z</time>
      </trkpt>
      <trkpt lat="42.830017972737551" lon="0.910853035748005">
        <ele>1860</ele>
        <time>2026-04-29T12:32:50Z</time>
      </trkpt>
      <trkpt lat="42.829977991059422" lon="0.910931993275881">
        <ele>1858</ele>
        <time>2026-04-29T12:33:00Z</time>
      </trkpt>
      <trkpt lat="42.829986959695816" lon="0.910983961075544">
        <ele>1857</ele>
        <time>2026-04-29T12:33:08Z</time>
      </trkpt>
      <trkpt lat="42.829926023259759" lon="0.911071971058846">
        <ele>1853</ele>
        <time>2026-04-29T12:33:26Z</time>
      </trkpt>
      <trkpt lat="42.829900961369276" lon="0.911117987707257">
        <ele>1852</ele>
        <time>2026-04-29T12:33:30Z</time>
      </trkpt>
      <trkpt lat="42.829880006611347" lon="0.911175990477204">
        <ele>1850</ele>
        <time>2026-04-29T12:33:36Z</time>
      </trkpt>
      <trkpt lat="42.829861985519528" lon="0.911217983812094">
        <ele>1849</ele>
        <time>2026-04-29T12:33:40Z</time>
      </trkpt>
      <trkpt lat="42.82984497025609" lon="0.911282021552324">
        <ele>1847</ele>
        <time>2026-04-29T12:33:46Z</time>
      </trkpt>
      <trkpt lat="42.829836001619697" lon="0.911341030150652">
        <ele>1845</ele>
        <time>2026-04-29T12:33:52Z</time>
      </trkpt>
      <trkpt lat="42.829826027154922" lon="0.911408001556993">
        <ele>1844</ele>
        <time>2026-04-29T12:33:58Z</time>
      </trkpt>
      <trkpt lat="42.829818986356258" lon="0.911458963528275">
        <ele>1842</ele>
        <time>2026-04-29T12:34:04Z</time>
      </trkpt>
      <trkpt lat="42.829799959436059" lon="0.911514032632113">
        <ele>1842</ele>
        <time>2026-04-29T12:34:14Z</time>
      </trkpt>
      <trkpt lat="42.829787973314524" lon="0.91157304123044">
        <ele>1839</ele>
        <time>2026-04-29T12:34:20Z</time>
      </trkpt>
      <trkpt lat="42.829762995243073" lon="0.911620985716581">
        <ele>1838</ele>
        <time>2026-04-29T12:34:26Z</time>
      </trkpt>
      <trkpt lat="42.829729970544577" lon="0.911668008193374">
        <ele>1837</ele>
        <time>2026-04-29T12:34:32Z</time>
      </trkpt>
      <trkpt lat="42.829684959724545" lon="0.911769010126591">
        <ele>1834</ele>
        <time>2026-04-29T12:34:44Z</time>
      </trkpt>
      <trkpt lat="42.829682026058435" lon="0.911823995411396">
        <ele>1832</ele>
        <time>2026-04-29T12:34:50Z</time>
      </trkpt>
      <trkpt lat="42.829675991088152" lon="0.911878980696201">
        <ele>1831</ele>
        <time>2026-04-29T12:34:58Z</time>
      </trkpt>
      <trkpt lat="42.829700969159603" lon="0.911913011223078">
        <ele>1829</ele>
        <time>2026-04-29T12:35:02Z</time>
      </trkpt>
      <trkpt lat="42.829775987192988" lon="0.911933965981007">
        <ele>1827</ele>
        <time>2026-04-29T12:35:12Z</time>
      </trkpt>
      <trkpt lat="42.829776993021369" lon="0.911995992064476">
        <ele>1825</ele>
        <time>2026-04-29T12:35:22Z</time>
      </trkpt>
      <trkpt lat="42.829740028828382" lon="0.91202499344945">
        <ele>1822</ele>
        <time>2026-04-29T12:35:28Z</time>
      </trkpt>
      <trkpt lat="42.829759977757931" lon="0.91206799261272">
        <ele>1821</ele>
        <time>2026-04-29T12:35:34Z</time>
      </trkpt>
      <trkpt lat="42.829724019393325" lon="0.912092970684171">
        <ele>1820</ele>
        <time>2026-04-29T12:35:40Z</time>
      </trkpt>
      <trkpt lat="42.829690994694829" lon="0.912108980119228">
        <ele>1818</ele>
        <time>2026-04-29T12:35:44Z</time>
      </trkpt>
      <trkpt lat="42.829651013016701" lon="0.912156002596021">
        <ele>1817</ele>
        <time>2026-04-29T12:35:50Z</time>
      </trkpt>
      <trkpt lat="42.829670961946249" lon="0.912200007587671">
        <ele>1816</ele>
        <time>2026-04-29T12:35:54Z</time>
      </trkpt>
      <trkpt lat="42.829655958339572" lon="0.912242000922561">
        <ele>1815</ele>
        <time>2026-04-29T12:36:04Z</time>
      </trkpt>
      <trkpt lat="42.829641960561275" lon="0.912285000085831">
        <ele>1812</ele>
        <time>2026-04-29T12:36:22Z</time>
      </trkpt>
      <trkpt lat="42.829614970833063" lon="0.912317018955946">
        <ele>1810</ele>
        <time>2026-04-29T12:36:26Z</time>
      </trkpt>
      <trkpt lat="42.829570965841413" lon="0.91234995983541">
        <ele>1808</ele>
        <time>2026-04-29T12:36:32Z</time>
      </trkpt>
      <trkpt lat="42.829540958628058" lon="0.912394970655441">
        <ele>1807</ele>
        <time>2026-04-29T12:36:38Z</time>
      </trkpt>
      <trkpt lat="42.829580018296838" lon="0.912432018667459">
        <ele>1806</ele>
        <time>2026-04-29T12:36:44Z</time>
      </trkpt>
      <trkpt lat="42.829575994983315" lon="0.912479041144252">
        <ele>1803</ele>
        <time>2026-04-29T12:36:48Z</time>
      </trkpt>
      <trkpt lat="42.829544981941581" lon="0.912504019215703">
        <ele>1803</ele>
        <time>2026-04-29T12:36:52Z</time>
      </trkpt>
      <trkpt lat="42.829510029405355" lon="0.912505025044084">
        <ele>1801</ele>
        <time>2026-04-29T12:36:56Z</time>
      </trkpt>
      <trkpt lat="42.829470969736576" lon="0.912526985630393">
        <ele>1800</ele>
        <time>2026-04-29T12:37:02Z</time>
      </trkpt>
      <trkpt lat="42.829422019422054" lon="0.912542995065451">
        <ele>1798</ele>
        <time>2026-04-29T12:37:08Z</time>
      </trkpt>
      <trkpt lat="42.829419001936913" lon="0.912590017542243">
        <ele>1797</ele>
        <time>2026-04-29T12:37:14Z</time>
      </trkpt>
      <trkpt lat="42.829448003321886" lon="0.912629999220371">
        <ele>1796</ele>
        <time>2026-04-29T12:37:20Z</time>
      </trkpt>
      <trkpt lat="42.829468036070466" lon="0.912683978676796">
        <ele>1793</ele>
        <time>2026-04-29T12:37:26Z</time>
      </trkpt>
      <trkpt lat="42.829432999715209" lon="0.912694036960602">
        <ele>1793</ele>
        <time>2026-04-29T12:37:32Z</time>
      </trkpt>
      <trkpt lat="42.829388994723558" lon="0.912680961191654">
        <ele>1790</ele>
        <time>2026-04-29T12:37:38Z</time>
      </trkpt>
      <trkpt lat="42.829354964196682" lon="0.912676015868783">
        <ele>1789</ele>
        <time>2026-04-29T12:37:42Z</time>
      </trkpt>
      <trkpt lat="42.829323029145598" lon="0.912659000605345">
        <ele>1788</ele>
        <time>2026-04-29T12:37:46Z</time>
      </trkpt>
      <trkpt lat="42.829195037484169" lon="0.912421038374305">
        <ele>1783</ele>
        <time>2026-04-29T12:38:08Z</time>
      </trkpt>
      <trkpt lat="42.829160001128912" lon="0.912419026717544">
        <ele>1782</ele>
        <time>2026-04-29T12:38:12Z</time>
      </trkpt>
      <trkpt lat="42.82913401722908" lon="0.912450961768627">
        <ele>1781</ele>
        <time>2026-04-29T12:38:16Z</time>
      </trkpt>
      <trkpt lat="42.829144997522235" lon="0.912838960066438">
        <ele>1776</ele>
        <time>2026-04-29T12:38:44Z</time>
      </trkpt>
      <trkpt lat="42.829152960330248" lon="0.912891011685133">
        <ele>1776</ele>
        <time>2026-04-29T12:38:48Z</time>
      </trkpt>
      <trkpt lat="42.829184979200363" lon="0.912982961162925">
        <ele>1774</ele>
        <time>2026-04-29T12:38:56Z</time>
      </trkpt>
      <trkpt lat="42.829211968928576" lon="0.913015985861421">
        <ele>1774</ele>
        <time>2026-04-29T12:39:00Z</time>
      </trkpt>
      <trkpt lat="42.829277012497187" lon="0.913158981129527">
        <ele>1770</ele>
        <time>2026-04-29T12:39:14Z</time>
      </trkpt>
      <trkpt lat="42.829293021932244" lon="0.913201980292797">
        <ele>1769</ele>
        <time>2026-04-29T12:39:20Z</time>
      </trkpt>
      <trkpt lat="42.829323029145598" lon="0.913240034133196">
        <ele>1768</ele>
        <time>2026-04-29T12:39:26Z</time>
      </trkpt>
      <trkpt lat="42.829311965033412" lon="0.913292001932859">
        <ele>1766</ele>
        <time>2026-04-29T12:39:32Z</time>
      </trkpt>
      <trkpt lat="42.82934800721705" lon="0.913310023024678">
        <ele>1765</ele>
        <time>2026-04-29T12:39:42Z</time>
      </trkpt>
      <trkpt lat="42.829360999166965" lon="0.913357967510819">
        <ele>1763</ele>
        <time>2026-04-29T12:39:48Z</time>
      </trkpt>
      <trkpt lat="42.829338032752275" lon="0.913399960845709">
        <ele>1762</ele>
        <time>2026-04-29T12:39:56Z</time>
      </trkpt>
      <trkpt lat="42.829309031367302" lon="0.913427034392953">
        <ele>1760</ele>
        <time>2026-04-29T12:40:06Z</time>
      </trkpt>
      <trkpt lat="42.829267038032413" lon="0.913431979715824">
        <ele>1759</ele>
        <time>2026-04-29T12:40:16Z</time>
      </trkpt>
      <trkpt lat="42.829264020547271" lon="0.913484031334519">
        <ele>1755</ele>
        <time>2026-04-29T12:40:26Z</time>
      </trkpt>
      <trkpt lat="42.829196965321898" lon="0.913554020226002">
        <ele>1750</ele>
        <time>2026-04-29T12:40:44Z</time>
      </trkpt>
      <trkpt lat="42.829224038869143" lon="0.913604982197285">
        <ele>1748</ele>
        <time>2026-04-29T12:40:52Z</time>
      </trkpt>
      <trkpt lat="42.829193025827408" lon="0.913649993017316">
        <ele>1745</ele>
        <time>2026-04-29T12:41:00Z</time>
      </trkpt>
      <trkpt lat="42.82915698364377" lon="0.91365703381598">
        <ele>1744</ele>
        <time>2026-04-29T12:41:06Z</time>
      </trkpt>
      <trkpt lat="42.829119013622403" lon="0.913690980523825">
        <ele>1741</ele>
        <time>2026-04-29T12:41:14Z</time>
      </trkpt>
      <trkpt lat="42.829139968380332" lon="0.913744959980249">
        <ele>1739</ele>
        <time>2026-04-29T12:41:58Z</time>
      </trkpt>
      <trkpt lat="42.829181961715221" lon="0.913764992728829">
        <ele>1736</ele>
        <time>2026-04-29T12:42:06Z</time>
      </trkpt>
      <trkpt lat="42.829171987250447" lon="0.91382903046906">
        <ele>1735</ele>
        <time>2026-04-29T12:42:16Z</time>
      </trkpt>
      <trkpt lat="42.829135023057461" lon="0.913853002712131">
        <ele>1732</ele>
        <time>2026-04-29T12:42:22Z</time>
      </trkpt>
      <trkpt lat="42.829157989472151" lon="0.913909999653697">
        <ele>1731</ele>
        <time>2026-04-29T12:42:28Z</time>
      </trkpt>
      <trkpt lat="42.829195959493518" lon="0.913941012695432">
        <ele>1729</ele>
        <time>2026-04-29T12:42:34Z</time>
      </trkpt>
      <trkpt lat="42.829239964485168" lon="0.91396096162498">
        <ele>1728</ele>
        <time>2026-04-29T12:42:42Z</time>
      </trkpt>
      <trkpt lat="42.829357981681824" lon="0.914017036557198">
        <ele>1723</ele>
        <time>2026-04-29T12:43:00Z</time>
      </trkpt>
      <trkpt lat="42.829401986673474" lon="0.914042014628649">
        <ele>1722</ele>
        <time>2026-04-29T12:43:06Z</time>
      </trkpt>
      <trkpt lat="42.829503994435072" lon="0.914085013791919">
        <ele>1719</ele>
        <time>2026-04-29T12:43:18Z</time>
      </trkpt>
      <trkpt lat="42.829571971669793" lon="0.914161959663033">
        <ele>1717</ele>
        <time>2026-04-29T12:43:28Z</time>
      </trkpt>
      <trkpt lat="42.829595021903515" lon="0.914228009060025">
        <ele>1715</ele>
        <time>2026-04-29T12:43:34Z</time>
      </trkpt>
      <trkpt lat="42.829707004129887" lon="0.914549035951495">
        <ele>1707</ele>
        <time>2026-04-29T12:44:06Z</time>
      </trkpt>
      <trkpt lat="42.82971203327179" lon="0.914609972387552">
        <ele>1706</ele>
        <time>2026-04-29T12:44:12Z</time>
      </trkpt>
      <trkpt lat="42.829711027443409" lon="0.914679961279035">
        <ele>1704</ele>
        <time>2026-04-29T12:44:18Z</time>
      </trkpt>
      <trkpt lat="42.829740028828382" lon="0.914810970425606">
        <ele>1701</ele>
        <time>2026-04-29T12:44:30Z</time>
      </trkpt>
      <trkpt lat="42.829744974151254" lon="0.914981961250305">
        <ele>1698</ele>
        <time>2026-04-29T12:44:44Z</time>
      </trkpt>
      <trkpt lat="42.829641038551927" lon="0.915207015350461">
        <ele>1693</ele>
        <time>2026-04-29T12:45:04Z</time>
      </trkpt>
      <trkpt lat="42.829622011631727" lon="0.915253031998873">
        <ele>1693</ele>
        <time>2026-04-29T12:45:08Z</time>
      </trkpt>
      <trkpt lat="42.829609019681811" lon="0.915358979254961">
        <ele>1692</ele>
        <time>2026-04-29T12:45:16Z</time>
      </trkpt>
      <trkpt lat="42.829523021355271" lon="0.91557296924293">
        <ele>1689</ele>
        <time>2026-04-29T12:45:32Z</time>
      </trkpt>
      <trkpt lat="42.829466024413705" lon="0.915853008627892">
        <ele>1686</ele>
        <time>2026-04-29T12:45:52Z</time>
      </trkpt>
      <trkpt lat="42.829465018585324" lon="0.915912017226219">
        <ele>1685</ele>
        <time>2026-04-29T12:45:56Z</time>
      </trkpt>
      <trkpt lat="42.829440040513873" lon="0.916028022766113">
        <ele>1684</ele>
        <time>2026-04-29T12:46:04Z</time>
      </trkpt>
      <trkpt lat="42.829352030530572" lon="0.916199013590813">
        <ele>1683</ele>
        <time>2026-04-29T12:46:16Z</time>
      </trkpt>
      <trkpt lat="42.829312970861793" lon="0.916204964742064">
        <ele>1682</ele>
        <time>2026-04-29T12:46:22Z</time>
      </trkpt>
      <trkpt lat="42.829267960041761" lon="0.916260033845901">
        <ele>1682</ele>
        <time>2026-04-29T12:46:28Z</time>
      </trkpt>
      <trkpt lat="42.829243987798691" lon="0.916294986382127">
        <ele>1682</ele>
        <time>2026-04-29T12:46:30Z</time>
      </trkpt>
      <trkpt lat="42.829208029434085" lon="0.916305966675282">
        <ele>1682</ele>
        <time>2026-04-29T12:46:34Z</time>
      </trkpt>
      <trkpt lat="42.829164024442434" lon="0.916298003867269">
        <ele>1682</ele>
        <time>2026-04-29T12:46:38Z</time>
      </trkpt>
      <trkpt lat="42.829126976430416" lon="0.916287023574114">
        <ele>1682</ele>
        <time>2026-04-29T12:46:42Z</time>
      </trkpt>
      <trkpt lat="42.82904701307416" lon="0.916307978332043">
        <ele>1683</ele>
        <time>2026-04-29T12:46:54Z</time>
      </trkpt>
      <trkpt lat="42.829018011689186" lon="0.916265984997153">
        <ele>1683</ele>
        <time>2026-04-29T12:47:02Z</time>
      </trkpt>
      <trkpt lat="42.829020023345947" lon="0.916216028854251">
        <ele>1685</ele>
        <time>2026-04-29T12:47:08Z</time>
      </trkpt>
      <trkpt lat="42.828994039446115" lon="0.916174035519362">
        <ele>1686</ele>
        <time>2026-04-29T12:47:14Z</time>
      </trkpt>
      <trkpt lat="42.828959003090858" lon="0.916163977235556">
        <ele>1687</ele>
        <time>2026-04-29T12:47:20Z</time>
      </trkpt>
      <trkpt lat="42.828928995877504" lon="0.916202031075954">
        <ele>1688</ele>
        <time>2026-04-29T12:47:26Z</time>
      </trkpt>
      <trkpt lat="42.828916003927588" lon="0.916249975562096">
        <ele>1689</ele>
        <time>2026-04-29T12:47:32Z</time>
      </trkpt>
      <trkpt lat="42.828905023634434" lon="0.916304038837552">
        <ele>1689</ele>
        <time>2026-04-29T12:47:38Z</time>
      </trkpt>
      <trkpt lat="42.828891025856137" lon="0.916362963616848">
        <ele>1690</ele>
        <time>2026-04-29T12:47:44Z</time>
      </trkpt>
      <trkpt lat="42.828873004764318" lon="0.916410991922021">
        <ele>1690</ele>
        <time>2026-04-29T12:47:48Z</time>
      </trkpt>
      <trkpt lat="42.828862024471164" lon="0.916461031883955">
        <ele>1691</ele>
        <time>2026-04-29T12:47:52Z</time>
      </trkpt>
      <trkpt lat="42.828825982287526" lon="0.916684996336699">
        <ele>1691</ele>
        <time>2026-04-29T12:48:08Z</time>
      </trkpt>
      <trkpt lat="42.828735038638115" lon="0.917042987421155">
        <ele>1688</ele>
        <time>2026-04-29T12:48:38Z</time>
      </trkpt>
      <trkpt lat="42.828730009496212" lon="0.917090009897947">
        <ele>1688</ele>
        <time>2026-04-29T12:48:42Z</time>
      </trkpt>
      <trkpt lat="42.828710982576013" lon="0.917271981015801">
        <ele>1684</ele>
        <time>2026-04-29T12:48:58Z</time>
      </trkpt>
      <trkpt lat="42.828698996454477" lon="0.917340964078903">
        <ele>1683</ele>
        <time>2026-04-29T12:49:04Z</time>
      </trkpt>
      <trkpt lat="42.828698996454477" lon="0.917497035115957">
        <ele>1684</ele>
        <time>2026-04-29T12:49:12Z</time>
      </trkpt>
      <trkpt lat="42.828678041696548" lon="0.917540034279227">
        <ele>1684</ele>
        <time>2026-04-29T12:49:18Z</time>
      </trkpt>
      <trkpt lat="42.828679969534278" lon="0.917604994028807">
        <ele>1683</ele>
        <time>2026-04-29T12:49:24Z</time>
      </trkpt>
      <trkpt lat="42.82866396009922" lon="0.917703984305263">
        <ele>1679</ele>
        <time>2026-04-29T12:49:38Z</time>
      </trkpt>
      <trkpt lat="42.828675024211407" lon="0.917808003723621">
        <ele>1676</ele>
        <time>2026-04-29T12:49:54Z</time>
      </trkpt>
      <trkpt lat="42.828629007562995" lon="0.917963990941644">
        <ele>1673</ele>
        <time>2026-04-29T12:50:10Z</time>
      </trkpt>
      <trkpt lat="42.828619033098221" lon="0.918017970398068">
        <ele>1672</ele>
        <time>2026-04-29T12:52:20Z</time>
      </trkpt>
      <trkpt lat="42.828579973429441" lon="0.918178986757994">
        <ele>1670</ele>
        <time>2026-04-29T12:52:34Z</time>
      </trkpt>
      <trkpt lat="42.828578967601061" lon="0.918230032548308">
        <ele>1670</ele>
        <time>2026-04-29T12:52:38Z</time>
      </trkpt>
      <trkpt lat="42.828573016449809" lon="0.918304966762662">
        <ele>1668</ele>
        <time>2026-04-29T12:52:44Z</time>
      </trkpt>
      <trkpt lat="42.828546026721597" lon="0.918352995067835">
        <ele>1668</ele>
        <time>2026-04-29T12:52:48Z</time>
      </trkpt>
      <trkpt lat="42.828526999801397" lon="0.91840404085815">
        <ele>1668</ele>
        <time>2026-04-29T12:52:52Z</time>
      </trkpt>
      <trkpt lat="42.8285320289433" lon="0.918504036962986">
        <ele>1666</ele>
        <time>2026-04-29T12:53:00Z</time>
      </trkpt>
      <trkpt lat="42.828519959002733" lon="0.918551981449127">
        <ele>1666</ele>
        <time>2026-04-29T12:53:04Z</time>
      </trkpt>
      <trkpt lat="42.828485006466508" lon="0.918639991432428">
        <ele>1665</ele>
        <time>2026-04-29T12:53:12Z</time>
      </trkpt>
      <trkpt lat="42.828491041436791" lon="0.91870503500104">
        <ele>1664</ele>
        <time>2026-04-29T12:53:18Z</time>
      </trkpt>
      <trkpt lat="42.828494980931282" lon="0.918804025277495">
        <ele>1662</ele>
        <time>2026-04-29T12:53:26Z</time>
      </trkpt>
      <trkpt lat="42.828501015901566" lon="0.918864961713552">
        <ele>1660</ele>
        <time>2026-04-29T12:53:32Z</time>
      </trkpt>
      <trkpt lat="42.828505039215088" lon="0.918934028595686">
        <ele>1659</ele>
        <time>2026-04-29T12:53:38Z</time>
      </trkpt>
      <trkpt lat="42.828518031165004" lon="0.919046010822058">
        <ele>1656</ele>
        <time>2026-04-29T12:53:48Z</time>
      </trkpt>
      <trkpt lat="42.828535968437791" lon="0.919207027181983">
        <ele>1651</ele>
        <time>2026-04-29T12:54:06Z</time>
      </trkpt>
      <trkpt lat="42.828524988144636" lon="0.919320015236735">
        <ele>1648</ele>
        <time>2026-04-29T12:54:16Z</time>
      </trkpt>
      <trkpt lat="42.828544015064836" lon="0.919367959722877">
        <ele>1647</ele>
        <time>2026-04-29T12:54:22Z</time>
      </trkpt>
      <trkpt lat="42.828602017834783" lon="0.919270981103182">
        <ele>1645</ele>
        <time>2026-04-29T12:54:30Z</time>
      </trkpt>
      <trkpt lat="42.828649040311575" lon="0.919171990826726">
        <ele>1643</ele>
        <time>2026-04-29T12:54:38Z</time>
      </trkpt>
      <trkpt lat="42.828672006726265" lon="0.919213984161615">
        <ele>1643</ele>
        <time>2026-04-29T12:54:48Z</time>
      </trkpt>
      <trkpt lat="42.828637976199389" lon="0.919355973601341">
        <ele>1641</ele>
        <time>2026-04-29T12:55:00Z</time>
      </trkpt>
      <trkpt lat="42.828646022826433" lon="0.919409031048417">
        <ele>1640</ele>
        <time>2026-04-29T12:55:04Z</time>
      </trkpt>
      <trkpt lat="42.828635964542627" lon="0.919467033818364">
        <ele>1639</ele>
        <time>2026-04-29T12:55:08Z</time>
      </trkpt>
      <trkpt lat="42.828637976199389" lon="0.919677000492811">
        <ele>1635</ele>
        <time>2026-04-29T12:55:24Z</time>
      </trkpt>
      <trkpt lat="42.828638982027769" lon="0.919735003262758">
        <ele>1635</ele>
        <time>2026-04-29T12:55:28Z</time>
      </trkpt>
      <trkpt lat="42.82863998785615" lon="0.919850002974272">
        <ele>1633</ele>
        <time>2026-04-29T12:55:38Z</time>
      </trkpt>
      <trkpt lat="42.828634958714247" lon="0.919947987422347">
        <ele>1631</ele>
        <time>2026-04-29T12:55:46Z</time>
      </trkpt>
      <trkpt lat="42.828635964542627" lon="0.920001966878772">
        <ele>1630</ele>
        <time>2026-04-29T12:55:50Z</time>
      </trkpt>
      <trkpt lat="42.828621966764331" lon="0.920053012669086">
        <ele>1630</ele>
        <time>2026-04-29T12:55:54Z</time>
      </trkpt>
      <trkpt lat="42.828647028654814" lon="0.920094000175595">
        <ele>1628</ele>
        <time>2026-04-29T12:56:00Z</time>
      </trkpt>
      <trkpt lat="42.828679969534278" lon="0.920070027932525">
        <ele>1628</ele>
        <time>2026-04-29T12:56:04Z</time>
      </trkpt>
      <trkpt lat="42.828709976747632" lon="0.920028034597635">
        <ele>1626</ele>
        <time>2026-04-29T12:56:08Z</time>
      </trkpt>
      <trkpt lat="42.828871998935938" lon="0.919874981045723">
        <ele>1621</ele>
        <time>2026-04-29T12:56:30Z</time>
      </trkpt>
      <trkpt lat="42.828906029462814" lon="0.919832987710834">
        <ele>1620</ele>
        <time>2026-04-29T12:56:34Z</time>
      </trkpt>
      <trkpt lat="42.828936958685517" lon="0.919800968840718">
        <ele>1619</ele>
        <time>2026-04-29T12:56:38Z</time>
      </trkpt>
      <trkpt lat="42.828966965898871" lon="0.919773979112506">
        <ele>1618</ele>
        <time>2026-04-29T12:56:42Z</time>
      </trkpt>
      <trkpt lat="42.829033015295863" lon="0.919718993827701">
        <ele>1615</ele>
        <time>2026-04-29T12:56:50Z</time>
      </trkpt>
      <trkpt lat="42.829066039994359" lon="0.919739026576281">
        <ele>1614</ele>
        <time>2026-04-29T12:56:54Z</time>
      </trkpt>
      <trkpt lat="42.829104010015726" lon="0.919753024354577">
        <ele>1612</ele>
        <time>2026-04-29T12:56:58Z</time>
      </trkpt>
      <trkpt lat="42.829137034714222" lon="0.919725028797984">
        <ele>1611</ele>
        <time>2026-04-29T12:57:02Z</time>
      </trkpt>
      <trkpt lat="42.829171987250447" lon="0.919718993827701">
        <ele>1609</ele>
        <time>2026-04-29T12:57:06Z</time>
      </trkpt>
      <trkpt lat="42.829197971150279" lon="0.919756963849068">
        <ele>1608</ele>
        <time>2026-04-29T12:57:10Z</time>
      </trkpt>
      <trkpt lat="42.829239964485168" lon="0.919784959405661">
        <ele>1605</ele>
        <time>2026-04-29T12:57:16Z</time>
      </trkpt>
      <trkpt lat="42.829267038032413" lon="0.919830976054072">
        <ele>1604</ele>
        <time>2026-04-29T12:57:22Z</time>
      </trkpt>
      <trkpt lat="42.829364016652107" lon="0.919976988807321">
        <ele>1597</ele>
        <time>2026-04-29T12:57:40Z</time>
      </trkpt>
      <trkpt lat="42.829373991116881" lon="0.920028034597635">
        <ele>1596</ele>
        <time>2026-04-29T12:57:44Z</time>
      </trkpt>
      <trkpt lat="42.829393018037081" lon="0.920072039589286">
        <ele>1595</ele>
        <time>2026-04-29T12:57:48Z</time>
      </trkpt>
      <trkpt lat="42.829431993886828" lon="0.920177986845374">
        <ele>1592</ele>
        <time>2026-04-29T12:57:58Z</time>
      </trkpt>
      <trkpt lat="42.82945797778666" lon="0.920210005715489">
        <ele>1591</ele>
        <time>2026-04-29T12:58:02Z</time>
      </trkpt>
      <trkpt lat="42.829479016363621" lon="0.920255016535521">
        <ele>1590</ele>
        <time>2026-04-29T12:58:06Z</time>
      </trkpt>
      <trkpt lat="42.829512041062117" lon="0.920304972678423">
        <ele>1588</ele>
        <time>2026-04-29T12:58:12Z</time>
      </trkpt>
      <trkpt lat="42.829532995820045" lon="0.920343026518822">
        <ele>1586</ele>
        <time>2026-04-29T12:58:16Z</time>
      </trkpt>
      <trkpt lat="42.829559985548258" lon="0.920458026230335">
        <ele>1584</ele>
        <time>2026-04-29T12:58:26Z</time>
      </trkpt>
      <trkpt lat="42.829601978883147" lon="0.920557016506791">
        <ele>1582</ele>
        <time>2026-04-29T12:58:36Z</time>
      </trkpt>
      <trkpt lat="42.829638021066785" lon="0.920602027326822">
        <ele>1580</ele>
        <time>2026-04-29T12:58:42Z</time>
      </trkpt>
      <trkpt lat="42.829680014401674" lon="0.920629017055035">
        <ele>1579</ele>
        <time>2026-04-29T12:58:48Z</time>
      </trkpt>
      <trkpt lat="42.829740028828382" lon="0.920742005109787">
        <ele>1575</ele>
        <time>2026-04-29T12:59:00Z</time>
      </trkpt>
      <trkpt lat="42.829776993021369" lon="0.920787015929818">
        <ele>1573</ele>
        <time>2026-04-29T12:59:06Z</time>
      </trkpt>
      <trkpt lat="42.829813035205007" lon="0.920787015929818">
        <ele>1572</ele>
        <time>2026-04-29T12:59:10Z</time>
      </trkpt>
      <trkpt lat="42.829849999397993" lon="0.920821968466043">
        <ele>1571</ele>
        <time>2026-04-29T12:59:16Z</time>
      </trkpt>
      <trkpt lat="42.829886041581631" lon="0.920848036184907">
        <ele>1569</ele>
        <time>2026-04-29T12:59:22Z</time>
      </trkpt>
      <trkpt lat="42.82992803491652" lon="0.920875025913119">
        <ele>1568</ele>
        <time>2026-04-29T12:59:28Z</time>
      </trkpt>
      <trkpt lat="42.829955024644732" lon="0.920924982056022">
        <ele>1566</ele>
        <time>2026-04-29T12:59:34Z</time>
      </trkpt>
      <trkpt lat="42.829997017979622" lon="0.920959012582898">
        <ele>1565</ele>
        <time>2026-04-29T12:59:40Z</time>
      </trkpt>
      <trkpt lat="42.83003599382937" lon="0.920957000926137">
        <ele>1563</ele>
        <time>2026-04-29T12:59:46Z</time>
      </trkpt>
      <trkpt lat="42.830073963850737" lon="0.920940991491079">
        <ele>1561</ele>
        <time>2026-04-29T12:59:52Z</time>
      </trkpt>
      <trkpt lat="42.830116041004658" lon="0.920957000926137">
        <ele>1560</ele>
        <time>2026-04-29T12:59:58Z</time>
      </trkpt>
      <trkpt lat="42.830149987712502" lon="0.92098499648273">
        <ele>1559</ele>
        <time>2026-04-29T13:00:04Z</time>
      </trkpt>
      <trkpt lat="42.830179994925857" lon="0.921023972332478">
        <ele>1558</ele>
        <time>2026-04-29T13:00:10Z</time>
      </trkpt>
      <trkpt lat="42.830226011574268" lon="0.921119023114443">
        <ele>1554</ele>
        <time>2026-04-29T13:00:22Z</time>
      </trkpt>
      <trkpt lat="42.830256018787622" lon="0.921165961772203">
        <ele>1552</ele>
        <time>2026-04-29T13:00:28Z</time>
      </trkpt>
      <trkpt lat="42.830308992415667" lon="0.921320021152496">
        <ele>1548</ele>
        <time>2026-04-29T13:00:44Z</time>
      </trkpt>
      <trkpt lat="42.830344028770924" lon="0.921365031972528">
        <ele>1547</ele>
        <time>2026-04-29T13:00:50Z</time>
      </trkpt>
      <trkpt lat="42.830392979085445" lon="0.921360002830625">
        <ele>1545</ele>
        <time>2026-04-29T13:00:56Z</time>
      </trkpt>
      <trkpt lat="42.830424997955561" lon="0.921380035579205">
        <ele>1544</ele>
        <time>2026-04-29T13:01:00Z</time>
      </trkpt>
      <trkpt lat="42.830496998503804" lon="0.9214579872787">
        <ele>1541</ele>
        <time>2026-04-29T13:01:12Z</time>
      </trkpt>
      <trkpt lat="42.830533962696791" lon="0.92150199227035">
        <ele>1538</ele>
        <time>2026-04-29T13:01:18Z</time>
      </trkpt>
      <trkpt lat="42.830560030415654" lon="0.921553960070014">
        <ele>1536</ele>
        <time>2026-04-29T13:01:24Z</time>
      </trkpt>
      <trkpt lat="42.83059598878026" lon="0.921553038060665">
        <ele>1535</ele>
        <time>2026-04-29T13:01:30Z</time>
      </trkpt>
      <trkpt lat="42.830640999600291" lon="0.921554965898395">
        <ele>1533</ele>
        <time>2026-04-29T13:01:38Z</time>
      </trkpt>
      <trkpt lat="42.830677963793278" lon="0.921568963676691">
        <ele>1532</ele>
        <time>2026-04-29T13:01:44Z</time>
      </trkpt>
      <trkpt lat="42.83072498627007" lon="0.92158799059689">
        <ele>1529</ele>
        <time>2026-04-29T13:01:52Z</time>
      </trkpt>
      <trkpt lat="42.830759016796947" lon="0.921616991981864">
        <ele>1528</ele>
        <time>2026-04-29T13:01:58Z</time>
      </trkpt>
      <trkpt lat="42.830773014575243" lon="0.921671977266669">
        <ele>1525</ele>
        <time>2026-04-29T13:02:04Z</time>
      </trkpt>
      <trkpt lat="42.830811990424991" lon="0.921712964773178">
        <ele>1524</ele>
        <time>2026-04-29T13:02:10Z</time>
      </trkpt>
      <trkpt lat="42.830847026780248" lon="0.92175898142159">
        <ele>1521</ele>
        <time>2026-04-29T13:02:16Z</time>
      </trkpt>
      <trkpt lat="42.830888014286757" lon="0.921764010563493">
        <ele>1520</ele>
        <time>2026-04-29T13:02:20Z</time>
      </trkpt>
      <trkpt lat="42.830930007621646" lon="0.921783037483692">
        <ele>1519</ele>
        <time>2026-04-29T13:02:26Z</time>
      </trkpt>
      <trkpt lat="42.830948028713465" lon="0.92182301916182">
        <ele>1517</ele>
        <time>2026-04-29T13:02:30Z</time>
      </trkpt>
      <trkpt lat="42.830985998734832" lon="0.921860989183187">
        <ele>1516</ele>
        <time>2026-04-29T13:02:36Z</time>
      </trkpt>
      <trkpt lat="42.830991027876735" lon="0.921922009438276">
        <ele>1514</ele>
        <time>2026-04-29T13:02:42Z</time>
      </trkpt>
      <trkpt lat="42.831033021211624" lon="0.922106998041272">
        <ele>1510</ele>
        <time>2026-04-29T13:03:02Z</time>
      </trkpt>
      <trkpt lat="42.83104601316154" lon="0.922171035781503">
        <ele>1509</ele>
        <time>2026-04-29T13:03:08Z</time>
      </trkpt>
      <trkpt lat="42.831085994839668" lon="0.922441016882658">
        <ele>1503</ele>
        <time>2026-04-29T13:03:38Z</time>
      </trkpt>
      <trkpt lat="42.831110972911119" lon="0.92248803935945">
        <ele>1501</ele>
        <time>2026-04-29T13:03:44Z</time>
      </trkpt>
      <trkpt lat="42.831107033416629" lon="0.922550987452269">
        <ele>1500</ele>
        <time>2026-04-29T13:03:50Z</time>
      </trkpt>
      <trkpt lat="42.831105021759868" lon="0.922609996050596">
        <ele>1498</ele>
        <time>2026-04-29T13:03:56Z</time>
      </trkpt>
      <trkpt lat="42.831128994002938" lon="0.922645032405853">
        <ele>1497</ele>
        <time>2026-04-29T13:04:06Z</time>
      </trkpt>
      <trkpt lat="42.831137962639332" lon="0.922766989096999">
        <ele>1492</ele>
        <time>2026-04-29T13:04:24Z</time>
      </trkpt>
      <trkpt lat="42.831137040629983" lon="0.922827003523707">
        <ele>1490</ele>
        <time>2026-04-29T13:04:30Z</time>
      </trkpt>
      <trkpt lat="42.831176016479731" lon="0.922820968553424">
        <ele>1488</ele>
        <time>2026-04-29T13:04:38Z</time>
      </trkpt>
      <trkpt lat="42.831209041178226" lon="0.922798002138734">
        <ele>1486</ele>
        <time>2026-04-29T13:04:46Z</time>
      </trkpt>
      <trkpt lat="42.831247011199594" lon="0.922763971611857">
        <ele>1484</ele>
        <time>2026-04-29T13:04:54Z</time>
      </trkpt>
      <trkpt lat="42.831277018412948" lon="0.922734970226884">
        <ele>1482</ele>
        <time>2026-04-29T13:05:00Z</time>
      </trkpt>
      <trkpt lat="42.831305013969541" lon="0.922765983268619">
        <ele>1481</ele>
        <time>2026-04-29T13:05:08Z</time>
      </trkpt>
      <trkpt lat="42.831286992877722" lon="0.922873020172119">
        <ele>1480</ele>
        <time>2026-04-29T13:05:18Z</time>
      </trkpt>
      <trkpt lat="42.831275006756186" lon="0.922991959378123">
        <ele>1479</ele>
        <time>2026-04-29T13:05:28Z</time>
      </trkpt>
      <trkpt lat="42.831277018412948" lon="0.923044010996819">
        <ele>1478</ele>
        <time>2026-04-29T13:05:34Z</time>
      </trkpt>
      <trkpt lat="42.831274000927806" lon="0.923102013766766">
        <ele>1477</ele>
        <time>2026-04-29T13:05:44Z</time>
      </trkpt>
      <trkpt lat="42.831252040341496" lon="0.923139983788133">
        <ele>1474</ele>
        <time>2026-04-29T13:05:52Z</time>
      </trkpt>
      <trkpt lat="42.831244999542832" lon="0.923189017921686">
        <ele>1473</ele>
        <time>2026-04-29T13:05:58Z</time>
      </trkpt>
      <trkpt lat="42.831271989271045" lon="0.923235034570098">
        <ele>1469</ele>
        <time>2026-04-29T13:06:10Z</time>
      </trkpt>
      <trkpt lat="42.831309959292412" lon="0.923215001821518">
        <ele>1468</ele>
        <time>2026-04-29T13:06:16Z</time>
      </trkpt>
      <trkpt lat="42.831343989819288" lon="0.923195974901319">
        <ele>1466</ele>
        <time>2026-04-29T13:06:24Z</time>
      </trkpt>
      <trkpt lat="42.831370979547501" lon="0.923234028741717">
        <ele>1464</ele>
        <time>2026-04-29T13:06:34Z</time>
      </trkpt>
      <trkpt lat="42.831315994262695" lon="0.923395967110991">
        <ele>1461</ele>
        <time>2026-04-29T13:06:52Z</time>
      </trkpt>
      <trkpt lat="42.831322029232979" lon="0.923453969880939">
        <ele>1460</ele>
        <time>2026-04-29T13:06:58Z</time>
      </trkpt>
      <trkpt lat="42.831368967890739" lon="0.923437960445881">
        <ele>1457</ele>
        <time>2026-04-29T13:07:06Z</time>
      </trkpt>
      <trkpt lat="42.831386988982558" lon="0.923481965437531">
        <ele>1454</ele>
        <time>2026-04-29T13:07:18Z</time>
      </trkpt>
      <trkpt lat="42.831387994810939" lon="0.923543991521001">
        <ele>1452</ele>
        <time>2026-04-29T13:07:26Z</time>
      </trkpt>
      <trkpt lat="42.831367962062359" lon="0.923597970977426">
        <ele>1450</ele>
        <time>2026-04-29T13:07:34Z</time>
      </trkpt>
      <trkpt lat="42.831343989819288" lon="0.923656979575753">
        <ele>1447</ele>
        <time>2026-04-29T13:07:42Z</time>
      </trkpt>
      <trkpt lat="42.831318005919456" lon="0.923712970688939">
        <ele>1446</ele>
        <time>2026-04-29T13:07:48Z</time>
      </trkpt>
      <trkpt lat="42.831279030069709" lon="0.923729985952377">
        <ele>1444</ele>
        <time>2026-04-29T13:07:54Z</time>
      </trkpt>
      <trkpt lat="42.831234019249678" lon="0.923769967630506">
        <ele>1443</ele>
        <time>2026-04-29T13:08:00Z</time>
      </trkpt>
      <trkpt lat="42.831226978451014" lon="0.923817995935678">
        <ele>1443</ele>
        <time>2026-04-29T13:08:02Z</time>
      </trkpt>
      <trkpt lat="42.831243993714452" lon="0.923858983442187">
        <ele>1444</ele>
        <time>2026-04-29T13:08:06Z</time>
      </trkpt>
      <trkpt lat="42.831211974844337" lon="0.923899970948696">
        <ele>1442</ele>
        <time>2026-04-29T13:08:16Z</time>
      </trkpt>
      <trkpt lat="42.831253968179226" lon="0.923922015354037">
        <ele>1442</ele>
        <time>2026-04-29T13:08:20Z</time>
      </trkpt>
      <trkpt lat="42.831250028684735" lon="0.923983035609126">
        <ele>1436</ele>
        <time>2026-04-29T13:08:38Z</time>
      </trkpt>
      <trkpt lat="42.831226978451014" lon="0.924086971208453">
        <ele>1433</ele>
        <time>2026-04-29T13:08:48Z</time>
      </trkpt>
      <trkpt lat="42.831203006207943" lon="0.924119995906949">
        <ele>1432</ele>
        <time>2026-04-29T13:08:52Z</time>
      </trkpt>
      <trkpt lat="42.831168975681067" lon="0.92412200756371">
        <ele>1430</ele>
        <time>2026-04-29T13:08:58Z</time>
      </trkpt>
      <trkpt lat="42.831053975969553" lon="0.924082025885582">
        <ele>1426</ele>
        <time>2026-04-29T13:09:18Z</time>
      </trkpt>
      <trkpt lat="42.830905029550195" lon="0.924010025337338">
        <ele>1422</ele>
        <time>2026-04-29T13:09:36Z</time>
      </trkpt>
      <trkpt lat="42.830863958224654" lon="0.923978006467223">
        <ele>1423</ele>
        <time>2026-04-29T13:09:42Z</time>
      </trkpt>
      <trkpt lat="42.830833029001951" lon="0.924022011458874">
        <ele>1422</ele>
        <time>2026-04-29T13:09:48Z</time>
      </trkpt>
      <trkpt lat="42.830738984048367" lon="0.924067022278905">
        <ele>1422</ele>
        <time>2026-04-29T13:10:06Z</time>
      </trkpt>
      <trkpt lat="42.830754993483424" lon="0.924125025048852">
        <ele>1417</ele>
        <time>2026-04-29T13:10:18Z</time>
      </trkpt>
      <trkpt lat="42.830791035667062" lon="0.92414396815002">
        <ele>1412</ele>
        <time>2026-04-29T13:10:22Z</time>
      </trkpt>
      <trkpt lat="42.830732027068734" lon="0.924190990626812">
        <ele>1410</ele>
        <time>2026-04-29T13:10:42Z</time>
      </trkpt>
      <trkpt lat="42.830705037340522" lon="0.92422803863883">
        <ele>1409</ele>
        <time>2026-04-29T13:10:48Z</time>
      </trkpt>
      <trkpt lat="42.830742001533508" lon="0.92427003197372">
        <ele>1407</ele>
        <time>2026-04-29T13:10:54Z</time>
      </trkpt>
      <trkpt lat="42.830827999860048" lon="0.924383020028472">
        <ele>1400</ele>
        <time>2026-04-29T13:11:12Z</time>
      </trkpt>
      <trkpt lat="42.830797992646694" lon="0.924418978393078">
        <ele>1400</ele>
        <time>2026-04-29T13:11:16Z</time>
      </trkpt>
      <trkpt lat="42.830740995705128" lon="0.92440003529191">
        <ele>1400</ele>
        <time>2026-04-29T13:11:22Z</time>
      </trkpt>
      <trkpt lat="42.830730015411973" lon="0.924429036676884">
        <ele>1397</ele>
        <time>2026-04-29T13:11:34Z</time>
      </trkpt>
      <trkpt lat="42.830763962119818" lon="0.924475975334644">
        <ele>1394</ele>
        <time>2026-04-29T13:11:40Z</time>
      </trkpt>
      <trkpt lat="42.830716017633677" lon="0.924522997811437">
        <ele>1392</ele>
        <time>2026-04-29T13:11:50Z</time>
      </trkpt>
      <trkpt lat="42.830672012642026" lon="0.92450900003314">
        <ele>1389</ele>
        <time>2026-04-29T13:11:56Z</time>
      </trkpt>
      <trkpt lat="42.83065902069211" lon="0.924562979489565">
        <ele>1386</ele>
        <time>2026-04-29T13:12:06Z</time>
      </trkpt>
      <trkpt lat="42.830695984885097" lon="0.924603966996074">
        <ele>1385</ele>
        <time>2026-04-29T13:12:10Z</time>
      </trkpt>
      <trkpt lat="42.830734038725495" lon="0.924608996137977">
        <ele>1383</ele>
        <time>2026-04-29T13:12:16Z</time>
      </trkpt>
      <trkpt lat="42.830763962119818" lon="0.92465995810926">
        <ele>1383</ele>
        <time>2026-04-29T13:12:22Z</time>
      </trkpt>
      <trkpt lat="42.830700008198619" lon="0.924676973372698">
        <ele>1382</ele>
        <time>2026-04-29T13:12:32Z</time>
      </trkpt>
      <trkpt lat="42.830662960186601" lon="0.924675967544317">
        <ele>1382</ele>
        <time>2026-04-29T13:12:36Z</time>
      </trkpt>
      <trkpt lat="42.830680981278419" lon="0.924731036648154">
        <ele>1379</ele>
        <time>2026-04-29T13:12:42Z</time>
      </trkpt>
      <trkpt lat="42.830689027905464" lon="0.924788033589721">
        <ele>1376</ele>
        <time>2026-04-29T13:12:48Z</time>
      </trkpt>
      <trkpt lat="42.830650974065065" lon="0.924799013882875">
        <ele>1375</ele>
        <time>2026-04-29T13:12:52Z</time>
      </trkpt>
      <trkpt lat="42.830596994608641" lon="0.924792978912592">
        <ele>1373</ele>
        <time>2026-04-29T13:12:58Z</time>
      </trkpt>
      <trkpt lat="42.830557012930512" lon="0.924793984740973">
        <ele>1374</ele>
        <time>2026-04-29T13:13:02Z</time>
      </trkpt>
      <trkpt lat="42.830556007102132" lon="0.924842013046145">
        <ele>1374</ele>
        <time>2026-04-29T13:13:06Z</time>
      </trkpt>
      <trkpt lat="42.830574028193951" lon="0.924896998330951">
        <ele>1374</ele>
        <time>2026-04-29T13:13:12Z</time>
      </trkpt>
      <trkpt lat="42.830624990165234" lon="0.924950977787375">
        <ele>1371</ele>
        <time>2026-04-29T13:13:20Z</time>
      </trkpt>
      <trkpt lat="42.830662960186601" lon="0.924972016364336">
        <ele>1368</ele>
        <time>2026-04-29T13:13:26Z</time>
      </trkpt>
      <trkpt lat="42.830705037340522" lon="0.924987019971013">
        <ele>1364</ele>
        <time>2026-04-29T13:13:32Z</time>
      </trkpt>
      <trkpt lat="42.83074501901865" lon="0.925016021355987">
        <ele>1363</ele>
        <time>2026-04-29T13:13:38Z</time>
      </trkpt>
      <trkpt lat="42.83078801818192" lon="0.925039993599057">
        <ele>1360</ele>
        <time>2026-04-29T13:13:44Z</time>
      </trkpt>
      <trkpt lat="42.83078801818192" lon="0.925091961398721">
        <ele>1360</ele>
        <time>2026-04-29T13:13:50Z</time>
      </trkpt>
      <trkpt lat="42.830748036503792" lon="0.925116017460823">
        <ele>1359</ele>
        <time>2026-04-29T13:13:56Z</time>
      </trkpt>
      <trkpt lat="42.830749964341521" lon="0.925182988867164">
        <ele>1358</ele>
        <time>2026-04-29T13:14:04Z</time>
      </trkpt>
      <trkpt lat="42.830786006525159" lon="0.925218025222421">
        <ele>1358</ele>
        <time>2026-04-29T13:14:10Z</time>
      </trkpt>
      <trkpt lat="42.830786006525159" lon="0.925276027992368">
        <ele>1356</ele>
        <time>2026-04-29T13:14:18Z</time>
      </trkpt>
      <trkpt lat="42.830791035667062" lon="0.925335958600044">
        <ele>1356</ele>
        <time>2026-04-29T13:14:28Z</time>
      </trkpt>
      <trkpt lat="42.830806039273739" lon="0.925399996340275">
        <ele>1353</ele>
        <time>2026-04-29T13:14:36Z</time>
      </trkpt>
      <trkpt lat="42.830855995416641" lon="0.925470991060138">
        <ele>1351</ele>
        <time>2026-04-29T13:14:46Z</time>
      </trkpt>
      <trkpt lat="42.830918021500111" lon="0.92558397911489">
        <ele>1346</ele>
        <time>2026-04-29T13:15:08Z</time>
      </trkpt>
      <trkpt lat="42.830863036215305" lon="0.925563024356961">
        <ele>1341</ele>
        <time>2026-04-29T13:15:28Z</time>
      </trkpt>
      <trkpt lat="42.830857001245022" lon="0.925635024905205">
        <ele>1340</ele>
        <time>2026-04-29T13:15:34Z</time>
      </trkpt>
      <trkpt lat="42.830888014286757" lon="0.925716999918222">
        <ele>1339</ele>
        <time>2026-04-29T13:15:42Z</time>
      </trkpt>
      <trkpt lat="42.830889020115137" lon="0.925833005458117">
        <ele>1338</ele>
        <time>2026-04-29T13:15:56Z</time>
      </trkpt>
      <trkpt lat="42.830876028165221" lon="0.925994021818042">
        <ele>1330</ele>
        <time>2026-04-29T13:16:20Z</time>
      </trkpt>
      <trkpt lat="42.830931013450027" lon="0.926104998216033">
        <ele>1328</ele>
        <time>2026-04-29T13:16:32Z</time>
      </trkpt>
      <trkpt lat="42.830980969592929" lon="0.926204994320869">
        <ele>1321</ele>
        <time>2026-04-29T13:16:40Z</time>
      </trkpt>
      <trkpt lat="42.831053975969553" lon="0.926285963505507">
        <ele>1317</ele>
        <time>2026-04-29T13:16:48Z</time>
      </trkpt>
      <trkpt lat="42.831108039245009" lon="0.926294010132551">
        <ele>1316</ele>
        <time>2026-04-29T13:16:54Z</time>
      </trkpt>
      <trkpt lat="42.831160007044673" lon="0.926270037889481">
        <ele>1316</ele>
        <time>2026-04-29T13:17:00Z</time>
      </trkpt>
      <trkpt lat="42.831221027299762" lon="0.926342960447073">
        <ele>1315</ele>
        <time>2026-04-29T13:17:10Z</time>
      </trkpt>
      <trkpt lat="42.831282969564199" lon="0.926412027329206">
        <ele>1315</ele>
        <time>2026-04-29T13:17:22Z</time>
      </trkpt>
      <trkpt lat="42.831263020634651" lon="0.926461983472109">
        <ele>1313</ele>
        <time>2026-04-29T13:17:30Z</time>
      </trkpt>
      <trkpt lat="42.831225972622633" lon="0.926510011777282">
        <ele>1309</ele>
        <time>2026-04-29T13:17:36Z</time>
      </trkpt>
      <trkpt lat="42.831151038408279" lon="0.926529038697481">
        <ele>1305</ele>
        <time>2026-04-29T13:17:44Z</time>
      </trkpt>
      <trkpt lat="42.8311119787395" lon="0.926504982635379">
        <ele>1303</ele>
        <time>2026-04-29T13:17:48Z</time>
      </trkpt>
      <trkpt lat="42.831084989011288" lon="0.926540018990636">
        <ele>1302</ele>
        <time>2026-04-29T13:17:52Z</time>
      </trkpt>
      <trkpt lat="42.831052970141172" lon="0.926569020375609">
        <ele>1301</ele>
        <time>2026-04-29T13:17:56Z</time>
      </trkpt>
      <trkpt lat="42.831028997898102" lon="0.926519986242056">
        <ele>1299</ele>
        <time>2026-04-29T13:18:00Z</time>
      </trkpt>
      <trkpt lat="42.830998990684748" lon="0.926563991233706">
        <ele>1298</ele>
        <time>2026-04-29T13:18:04Z</time>
      </trkpt>
      <trkpt lat="42.830964038148522" lon="0.926596010103822">
        <ele>1298</ele>
        <time>2026-04-29T13:18:10Z</time>
      </trkpt>
      <trkpt lat="42.830924978479743" lon="0.926603972911835">
        <ele>1299</ele>
        <time>2026-04-29T13:18:18Z</time>
      </trkpt>
      <trkpt lat="42.830883990973234" lon="0.926631968468428">
        <ele>1299</ele>
        <time>2026-04-29T13:18:28Z</time>
      </trkpt>
      <trkpt lat="42.830920033156872" lon="0.926687037572265">
        <ele>1298</ele>
        <time>2026-04-29T13:18:32Z</time>
      </trkpt>
      <trkpt lat="42.830964038148522" lon="0.926729030907154">
        <ele>1294</ele>
        <time>2026-04-29T13:18:36Z</time>
      </trkpt>
      <trkpt lat="42.831009970977902" lon="0.926759038120508">
        <ele>1292</ele>
        <time>2026-04-29T13:18:40Z</time>
      </trkpt>
      <trkpt lat="42.831048024818301" lon="0.926774041727185">
        <ele>1290</ele>
        <time>2026-04-29T13:18:44Z</time>
      </trkpt>
      <trkpt lat="42.831085994839668" lon="0.926749985665083">
        <ele>1288</ele>
        <time>2026-04-29T13:18:50Z</time>
      </trkpt>
      <trkpt lat="42.831118013709784" lon="0.926819974556565">
        <ele>1286</ele>
        <time>2026-04-29T13:19:00Z</time>
      </trkpt>
      <trkpt lat="42.831140980124474" lon="0.926883006468415">
        <ele>1285</ele>
        <time>2026-04-29T13:19:10Z</time>
      </trkpt>
      <trkpt lat="42.831125976517797" lon="0.926952995359898">
        <ele>1283</ele>
        <time>2026-04-29T13:19:24Z</time>
      </trkpt>
      <trkpt lat="42.831165958195925" lon="0.926965987309814">
        <ele>1282</ele>
        <time>2026-04-29T13:19:30Z</time>
      </trkpt>
      <trkpt lat="42.831196971237659" lon="0.926991971209645">
        <ele>1278</ele>
        <time>2026-04-29T13:19:36Z</time>
      </trkpt>
      <trkpt lat="42.831149026751518" lon="0.927013009786606">
        <ele>1277</ele>
        <time>2026-04-29T13:19:44Z</time>
      </trkpt>
      <trkpt lat="42.831106027588248" lon="0.927059026435018">
        <ele>1276</ele>
        <time>2026-04-29T13:19:54Z</time>
      </trkpt>
      <trkpt lat="42.831181967630982" lon="0.927099008113146">
        <ele>1275</ele>
        <time>2026-04-29T13:20:02Z</time>
      </trkpt>
      <trkpt lat="42.831114996224642" lon="0.927184000611305">
        <ele>1275</ele>
        <time>2026-04-29T13:20:14Z</time>
      </trkpt>
      <trkpt lat="42.831079959869385" lon="0.927202021703124">
        <ele>1272</ele>
        <time>2026-04-29T13:20:20Z</time>
      </trkpt>
      <trkpt lat="42.831066967919469" lon="0.927262036129832">
        <ele>1271</ele>
        <time>2026-04-29T13:20:26Z</time>
      </trkpt>
      <trkpt lat="42.831061016768217" lon="0.927337976172566">
        <ele>1266</ele>
        <time>2026-04-29T13:20:38Z</time>
      </trkpt>
      <trkpt lat="42.831098986789584" lon="0.92734401114285">
        <ele>1263</ele>
        <time>2026-04-29T13:20:52Z</time>
      </trkpt>
      <trkpt lat="42.831131005659699" lon="0.927326995879412">
        <ele>1260</ele>
        <time>2026-04-29T13:20:58Z</time>
      </trkpt>
      <trkpt lat="42.831121031194925" lon="0.927414000034332">
        <ele>1259</ele>
        <time>2026-04-29T13:21:10Z</time>
      </trkpt>
      <trkpt lat="42.831097980961204" lon="0.927566969767213">
        <ele>1253</ele>
        <time>2026-04-29T13:21:32Z</time>
      </trkpt>
      <trkpt lat="42.831120025366545" lon="0.927628995850682">
        <ele>1250</ele>
        <time>2026-04-29T13:21:38Z</time>
      </trkpt>
      <trkpt lat="42.831121031194925" lon="0.927720023319125">
        <ele>1250</ele>
        <time>2026-04-29T13:21:52Z</time>
      </trkpt>
      <trkpt lat="42.831104015931487" lon="0.927793029695749">
        <ele>1248</ele>
        <time>2026-04-29T13:22:00Z</time>
      </trkpt>
      <trkpt lat="42.831122959032655" lon="0.927853966131806">
        <ele>1247</ele>
        <time>2026-04-29T13:22:06Z</time>
      </trkpt>
      <trkpt lat="42.831143997609615" lon="0.927992016077042">
        <ele>1244</ele>
        <time>2026-04-29T13:22:18Z</time>
      </trkpt>
      <trkpt lat="42.831141985952854" lon="0.928169041872025">
        <ele>1236</ele>
        <time>2026-04-29T13:22:32Z</time>
      </trkpt>
      <trkpt lat="42.831151038408279" lon="0.928242970257998">
        <ele>1235</ele>
        <time>2026-04-29T13:22:38Z</time>
      </trkpt>
      <trkpt lat="42.831138968467712" lon="0.928360987454653">
        <ele>1233</ele>
        <time>2026-04-29T13:22:48Z</time>
      </trkpt>
      <trkpt lat="42.831219015643001" lon="0.928803971037269">
        <ele>1230</ele>
        <time>2026-04-29T13:23:18Z</time>
      </trkpt>
      <trkpt lat="42.831233013421297" lon="0.92893498018384">
        <ele>1227</ele>
        <time>2026-04-29T13:23:28Z</time>
      </trkpt>
      <trkpt lat="42.831308031454682" lon="0.929249972105026">
        <ele>1219</ele>
        <time>2026-04-29T13:23:52Z</time>
      </trkpt>
      <trkpt lat="42.831372991204262" lon="0.929136984050274">
        <ele>1214</ele>
        <time>2026-04-29T13:24:04Z</time>
      </trkpt>
      <trkpt lat="42.831418002024293" lon="0.928988037630916">
        <ele>1204</ele>
        <time>2026-04-29T13:24:16Z</time>
      </trkpt>
      <trkpt lat="42.831450020894408" lon="0.928864991292357">
        <ele>1201</ele>
        <time>2026-04-29T13:24:26Z</time>
      </trkpt>
      <trkpt lat="42.831538030877709" lon="0.928950989618897">
        <ele>1200</ele>
        <time>2026-04-29T13:24:42Z</time>
      </trkpt>
      <trkpt lat="42.831576000899076" lon="0.929069006815553">
        <ele>1199</ele>
        <time>2026-04-29T13:24:52Z</time>
      </trkpt>
      <trkpt lat="42.831655964255333" lon="0.929177971556783">
        <ele>1194</ele>
        <time>2026-04-29T13:25:08Z</time>
      </trkpt>
      <trkpt lat="42.831680020317435" lon="0.929302023723722">
        <ele>1193</ele>
        <time>2026-04-29T13:25:18Z</time>
      </trkpt>
      <trkpt lat="42.831793008372188" lon="0.929275033995509">
        <ele>1190</ele>
        <time>2026-04-29T13:25:32Z</time>
      </trkpt>
      <trkpt lat="42.831860985606909" lon="0.929167997092009">
        <ele>1183</ele>
        <time>2026-04-29T13:25:44Z</time>
      </trkpt>
      <trkpt lat="42.831918988376856" lon="0.929055009037256">
        <ele>1178</ele>
        <time>2026-04-29T13:26:00Z</time>
      </trkpt>
      <trkpt lat="42.83199199475348" lon="0.929174032062292">
        <ele>1175</ele>
        <time>2026-04-29T13:26:24Z</time>
      </trkpt>
      <trkpt lat="42.831986965611577" lon="0.929303029552102">
        <ele>1174</ele>
        <time>2026-04-29T13:26:38Z</time>
      </trkpt>
      <trkpt lat="42.831977996975183" lon="0.929463962092996">
        <ele>1164</ele>
        <time>2026-04-29T13:26:54Z</time>
      </trkpt>
      <trkpt lat="42.832025019451976" lon="0.929590025916696">
        <ele>1163</ele>
        <time>2026-04-29T13:27:06Z</time>
      </trkpt>
      <trkpt lat="42.832063995301723" lon="0.929748024791479">
        <ele>1156</ele>
        <time>2026-04-29T13:27:18Z</time>
      </trkpt>
      <trkpt lat="42.832125015556812" lon="0.929875010624528">
        <ele>1154</ele>
        <time>2026-04-29T13:27:30Z</time>
      </trkpt>
      <trkpt lat="42.832203973084688" lon="0.929978024214506">
        <ele>1150</ele>
        <time>2026-04-29T13:27:42Z</time>
      </trkpt>
      <trkpt lat="42.8322499897331" lon="0.930123031139374">
        <ele>1147</ele>
        <time>2026-04-29T13:27:54Z</time>
      </trkpt>
      <trkpt lat="42.832288965582848" lon="0.930420001968741">
        <ele>1139</ele>
        <time>2026-04-29T13:28:18Z</time>
      </trkpt>
      <trkpt lat="42.832330036908388" lon="0.930598033592105">
        <ele>1133</ele>
        <time>2026-04-29T13:28:32Z</time>
      </trkpt>
      <trkpt lat="42.832349985837936" lon="0.930737005546689">
        <ele>1132</ele>
        <time>2026-04-29T13:28:42Z</time>
      </trkpt>
      <trkpt lat="42.832430033013225" lon="0.930789979174733">
        <ele>1128</ele>
        <time>2026-04-29T13:28:52Z</time>
      </trkpt>
      <trkpt lat="42.832463979721069" lon="0.930848987773061">
        <ele>1126</ele>
        <time>2026-04-29T13:28:58Z</time>
      </trkpt>
      <trkpt lat="42.832500021904707" lon="0.930928029119968">
        <ele>1125</ele>
        <time>2026-04-29T13:29:06Z</time>
      </trkpt>
      <trkpt lat="42.832558024674654" lon="0.930992988869548">
        <ele>1125</ele>
        <time>2026-04-29T13:29:14Z</time>
      </trkpt>
      <trkpt lat="42.83259498886764" lon="0.931069012731314">
        <ele>1125</ele>
        <time>2026-04-29T13:29:20Z</time>
      </trkpt>
      <trkpt lat="42.832698002457619" lon="0.931135984137654">
        <ele>1125</ele>
        <time>2026-04-29T13:29:32Z</time>
      </trkpt>
      <trkpt lat="42.832717029377818" lon="0.931182000786066">
        <ele>1125</ele>
        <time>2026-04-29T13:29:36Z</time>
      </trkpt>
      <trkpt lat="42.832752987742424" lon="0.931203961372375">
        <ele>1124</ele>
        <time>2026-04-29T13:29:42Z</time>
      </trkpt>
      <trkpt lat="42.832794981077313" lon="0.93125400133431">
        <ele>1124</ele>
        <time>2026-04-29T13:29:48Z</time>
      </trkpt>
      <trkpt lat="42.832831023260951" lon="0.931301023811102">
        <ele>1123</ele>
        <time>2026-04-29T13:29:54Z</time>
      </trkpt>
      <trkpt lat="42.832862958312035" lon="0.931260036304593">
        <ele>1122</ele>
        <time>2026-04-29T13:29:58Z</time>
      </trkpt>
      <trkpt lat="42.832908974960446" lon="0.931283002719283">
        <ele>1117</ele>
        <time>2026-04-29T13:30:04Z</time>
      </trkpt>
      <trkpt lat="42.832982987165451" lon="0.931370006874204">
        <ele>1112</ele>
        <time>2026-04-29T13:30:16Z</time>
      </trkpt>
      <trkpt lat="42.833021963015199" lon="0.931409988552332">
        <ele>1111</ele>
        <time>2026-04-29T13:30:22Z</time>
      </trkpt>
      <trkpt lat="42.83304501324892" lon="0.931355003267527">
        <ele>1110</ele>
        <time>2026-04-29T13:30:26Z</time>
      </trkpt>
      <trkpt lat="42.833054987713695" lon="0.931289959698915">
        <ele>1108</ele>
        <time>2026-04-29T13:30:30Z</time>
      </trkpt>
      <trkpt lat="42.833063034340739" lon="0.931236986070871">
        <ele>1106</ele>
        <time>2026-04-29T13:30:34Z</time>
      </trkpt>
      <trkpt lat="42.833094969391823" lon="0.931279985234141">
        <ele>1105</ele>
        <time>2026-04-29T13:30:38Z</time>
      </trkpt>
      <trkpt lat="42.833136962726712" lon="0.931381992995739">
        <ele>1103</ele>
        <time>2026-04-29T13:30:50Z</time>
      </trkpt>
      <trkpt lat="42.833146015182137" lon="0.931445024907589">
        <ele>1101</ele>
        <time>2026-04-29T13:30:56Z</time>
      </trkpt>
      <trkpt lat="42.833188008517027" lon="0.931562958285213">
        <ele>1099</ele>
        <time>2026-04-29T13:31:08Z</time>
      </trkpt>
      <trkpt lat="42.833245005458593" lon="0.931668989360332">
        <ele>1096</ele>
        <time>2026-04-29T13:31:20Z</time>
      </trkpt>
      <trkpt lat="42.833277024328709" lon="0.931711988523602">
        <ele>1094</ele>
        <time>2026-04-29T13:31:28Z</time>
      </trkpt>
      <trkpt lat="42.833290016278625" lon="0.931821959093213">
        <ele>1087</ele>
        <time>2026-04-29T13:31:40Z</time>
      </trkpt>
      <trkpt lat="42.833321029320359" lon="0.93187702819705">
        <ele>1084</ele>
        <time>2026-04-29T13:31:46Z</time>
      </trkpt>
      <trkpt lat="42.833545999601483" lon="0.932018011808395">
        <ele>1076</ele>
        <time>2026-04-29T13:32:14Z</time>
      </trkpt>
      <trkpt lat="42.833586987107992" lon="0.932024968788028">
        <ele>1075</ele>
        <time>2026-04-29T13:32:18Z</time>
      </trkpt>
      <trkpt lat="42.833628980442882" lon="0.932022035121918">
        <ele>1075</ele>
        <time>2026-04-29T13:32:22Z</time>
      </trkpt>
      <trkpt lat="42.833693018183112" lon="0.931969983503222">
        <ele>1072</ele>
        <time>2026-04-29T13:32:30Z</time>
      </trkpt>
      <trkpt lat="42.833728976547718" lon="0.931951040402055">
        <ele>1070</ele>
        <time>2026-04-29T13:32:34Z</time>
      </trkpt>
      <trkpt lat="42.83375596627593" lon="0.931922039017081">
        <ele>1069</ele>
        <time>2026-04-29T13:32:38Z</time>
      </trkpt>
      <trkpt lat="42.833788990974426" lon="0.931903012096882">
        <ele>1067</ele>
        <time>2026-04-29T13:32:42Z</time>
      </trkpt>
      <trkpt lat="42.833867026492953" lon="0.93187996186316">
        <ele>1065</ele>
        <time>2026-04-29T13:32:50Z</time>
      </trkpt>
      <trkpt lat="42.833911031484604" lon="0.931864036247134">
        <ele>1064</ele>
        <time>2026-04-29T13:32:54Z</time>
      </trkpt>
      <trkpt lat="42.833945984020829" lon="0.931863030418754">
        <ele>1063</ele>
        <time>2026-04-29T13:32:58Z</time>
      </trkpt>
      <trkpt lat="42.834026031196117" lon="0.93192002736032">
        <ele>1061</ele>
        <time>2026-04-29T13:33:08Z</time>
      </trkpt>
      <trkpt lat="42.834050003439188" lon="0.931956991553307">
        <ele>1060</ele>
        <time>2026-04-29T13:33:12Z</time>
      </trkpt>
      <trkpt lat="42.834093002602458" lon="0.931994039565325">
        <ele>1058</ele>
        <time>2026-04-29T13:33:18Z</time>
      </trkpt>
      <trkpt lat="42.834187969565392" lon="0.932153966277838">
        <ele>1052</ele>
        <time>2026-04-29T13:33:36Z</time>
      </trkpt>
      <trkpt lat="42.834195010364056" lon="0.932363010942936">
        <ele>1046</ele>
        <time>2026-04-29T13:33:52Z</time>
      </trkpt>
      <trkpt lat="42.834206996485591" lon="0.932422019541264">
        <ele>1045</ele>
        <time>2026-04-29T13:33:56Z</time>
      </trkpt>
      <trkpt lat="42.834218982607126" lon="0.932470969855785">
        <ele>1044</ele>
        <time>2026-04-29T13:34:00Z</time>
      </trkpt>
      <trkpt lat="42.83420498482883" lon="0.932578006759286">
        <ele>1042</ele>
        <time>2026-04-29T13:34:08Z</time>
      </trkpt>
      <trkpt lat="42.834202973172069" lon="0.932632992044091">
        <ele>1042</ele>
        <time>2026-04-29T13:34:12Z</time>
      </trkpt>
      <trkpt lat="42.834170032292604" lon="0.932742040604353">
        <ele>1040</ele>
        <time>2026-04-29T13:34:22Z</time>
      </trkpt>
      <trkpt lat="42.834159974008799" lon="0.932788979262114">
        <ele>1039</ele>
        <time>2026-04-29T13:34:26Z</time>
      </trkpt>
      <trkpt lat="42.834160979837179" lon="0.932836001738906">
        <ele>1038</ele>
        <time>2026-04-29T13:34:30Z</time>
      </trkpt>
      <trkpt lat="42.834163997322321" lon="0.932884030044079">
        <ele>1038</ele>
        <time>2026-04-29T13:34:34Z</time>
      </trkpt>
      <trkpt lat="42.834144970402122" lon="0.93292904086411">
        <ele>1037</ele>
        <time>2026-04-29T13:34:38Z</time>
      </trkpt>
      <trkpt lat="42.834133990108967" lon="0.933027025312185">
        <ele>1037</ele>
        <time>2026-04-29T13:34:46Z</time>
      </trkpt>
      <trkpt lat="42.834159974008799" lon="0.933150993660092">
        <ele>1035</ele>
        <time>2026-04-29T13:34:56Z</time>
      </trkpt>
      <trkpt lat="42.834159974008799" lon="0.933198016136885">
        <ele>1034</ele>
        <time>2026-04-29T13:35:00Z</time>
      </trkpt>
      <trkpt lat="42.834149999544024" lon="0.933256018906832">
        <ele>1033</ele>
        <time>2026-04-29T13:35:06Z</time>
      </trkpt>
      <trkpt lat="42.834123009815812" lon="0.933366995304823">
        <ele>1033</ele>
        <time>2026-04-29T13:35:16Z</time>
      </trkpt>
      <trkpt lat="42.83414295874536" lon="0.933429021388292">
        <ele>1033</ele>
        <time>2026-04-29T13:35:22Z</time>
      </trkpt>
      <trkpt lat="42.834174977615476" lon="0.93346799723804">
        <ele>1032</ele>
        <time>2026-04-29T13:35:28Z</time>
      </trkpt>
      <trkpt lat="42.834214959293604" lon="0.933436984196305">
        <ele>1030</ele>
        <time>2026-04-29T13:35:44Z</time>
      </trkpt>
      <trkpt lat="42.834252007305622" lon="0.933376969769597">
        <ele>1027</ele>
        <time>2026-04-29T13:35:50Z</time>
      </trkpt>
      <trkpt lat="42.834286959841847" lon="0.93342499807477">
        <ele>1026</ele>
        <time>2026-04-29T13:35:58Z</time>
      </trkpt>
      <trkpt lat="42.834324007853866" lon="0.933388033881783">
        <ele>1026</ele>
        <time>2026-04-29T13:36:04Z</time>
      </trkpt>
      <trkpt lat="42.834353009238839" lon="0.933350985869765">
        <ele>1023</ele>
        <time>2026-04-29T13:36:12Z</time>
      </trkpt>
      <trkpt lat="42.834378993138671" lon="0.933311004191637">
        <ele>1021</ele>
        <time>2026-04-29T13:36:18Z</time>
      </trkpt>
      <trkpt lat="42.834367007017136" lon="0.933263981714845">
        <ele>1020</ele>
        <time>2026-04-29T13:36:24Z</time>
      </trkpt>
      <trkpt lat="42.834404977038503" lon="0.933256018906832">
        <ele>1015</ele>
        <time>2026-04-29T13:36:40Z</time>
      </trkpt>
      <trkpt lat="42.834433978423476" lon="0.933268005028367">
        <ele>1011</ele>
        <time>2026-04-29T13:36:54Z</time>
      </trkpt>
      <trkpt lat="42.834444958716631" lon="0.933334976434708">
        <ele>1009</ele>
        <time>2026-04-29T13:37:02Z</time>
      </trkpt>
      <trkpt lat="42.834471026435494" lon="0.933592971414328">
        <ele>1008</ele>
        <time>2026-04-29T13:37:30Z</time>
      </trkpt>
      <trkpt lat="42.834487035870552" lon="0.93368299305439">
        <ele>1004</ele>
        <time>2026-04-29T13:37:40Z</time>
      </trkpt>
      <trkpt lat="42.834516037255526" lon="0.933976024389267">
        <ele>990</ele>
        <time>2026-04-29T13:38:10Z</time>
      </trkpt>
      <trkpt lat="42.834531040862203" lon="0.934108039364219">
        <ele>986</ele>
        <time>2026-04-29T13:38:20Z</time>
      </trkpt>
      <trkpt lat="42.834539003670216" lon="0.934162018820643">
        <ele>986</ele>
        <time>2026-04-29T13:38:24Z</time>
      </trkpt>
      <trkpt lat="42.834531040862203" lon="0.934217004105449">
        <ele>986</ele>
        <time>2026-04-29T13:38:30Z</time>
      </trkpt>
      <trkpt lat="42.8345069848001" lon="0.934266038239002">
        <ele>985</ele>
        <time>2026-04-29T13:38:36Z</time>
      </trkpt>
      <trkpt lat="42.834499021992087" lon="0.934311971068382">
        <ele>985</ele>
        <time>2026-04-29T13:38:40Z</time>
      </trkpt>
      <trkpt lat="42.834481000900269" lon="0.934355976060033">
        <ele>986</ele>
        <time>2026-04-29T13:38:44Z</time>
      </trkpt>
      <trkpt lat="42.834435990080237" lon="0.93443501740694">
        <ele>986</ele>
        <time>2026-04-29T13:38:52Z</time>
      </trkpt>
      <trkpt lat="42.834403971210122" lon="0.934464018791914">
        <ele>986</ele>
        <time>2026-04-29T13:38:56Z</time>
      </trkpt>
      <trkpt lat="42.834357032552361" lon="0.934459995478392">
        <ele>983</ele>
        <time>2026-04-29T13:39:04Z</time>
      </trkpt>
      <trkpt lat="42.834314033389091" lon="0.934427976608276">
        <ele>982</ele>
        <time>2026-04-29T13:39:06Z</time>
      </trkpt>
      <trkpt lat="42.834281008690596" lon="0.934488996863365">
        <ele>979</ele>
        <time>2026-04-29T13:39:08Z</time>
      </trkpt>
      <trkpt lat="42.834266005083919" lon="0.934621011838317">
        <ele>981</ele>
        <time>2026-04-29T13:39:16Z</time>
      </trkpt>
      <trkpt lat="42.834244966506958" lon="0.934669962152839">
        <ele>982</ele>
        <time>2026-04-29T13:39:22Z</time>
      </trkpt>
      <trkpt lat="42.834213031455874" lon="0.934761995449662">
        <ele>983</ele>
        <time>2026-04-29T13:39:34Z</time>
      </trkpt>
      <trkpt lat="42.834188975393772" lon="0.934814969077706">
        <ele>982</ele>
        <time>2026-04-29T13:39:40Z</time>
      </trkpt>
      <trkpt lat="42.834173971787095" lon="0.934867020696402">
        <ele>984</ele>
        <time>2026-04-29T13:39:44Z</time>
      </trkpt>
      <trkpt lat="42.834166008979082" lon="0.934917982667685">
        <ele>984</ele>
        <time>2026-04-29T13:39:48Z</time>
      </trkpt>
      <trkpt lat="42.834141030907631" lon="0.935031976550817">
        <ele>985</ele>
        <time>2026-04-29T13:39:56Z</time>
      </trkpt>
      <trkpt lat="42.834124015644193" lon="0.935090985149145">
        <ele>985</ele>
        <time>2026-04-29T13:40:00Z</time>
      </trkpt>
      <trkpt lat="42.834109012037516" lon="0.935140019282699">
        <ele>985</ele>
        <time>2026-04-29T13:40:04Z</time>
      </trkpt>
      <trkpt lat="42.834093002602458" lon="0.93518796376884">
        <ele>985</ele>
        <time>2026-04-29T13:40:08Z</time>
      </trkpt>
      <trkpt lat="42.834064001217484" lon="0.93523196876049">
        <ele>985</ele>
        <time>2026-04-29T13:40:12Z</time>
      </trkpt>
      <trkpt lat="42.834040028974414" lon="0.93527102842927">
        <ele>985</ele>
        <time>2026-04-29T13:40:16Z</time>
      </trkpt>
      <trkpt lat="42.833972973749042" lon="0.935312015935779">
        <ele>984</ele>
        <time>2026-04-29T13:40:24Z</time>
      </trkpt>
      <trkpt lat="42.833960987627506" lon="0.93535702675581">
        <ele>984</ele>
        <time>2026-04-29T13:40:28Z</time>
      </trkpt>
      <trkpt lat="42.833914970979095" lon="0.935471020638943">
        <ele>984</ele>
        <time>2026-04-29T13:40:36Z</time>
      </trkpt>
      <trkpt lat="42.83386099152267" lon="0.935569005087018">
        <ele>986</ele>
        <time>2026-04-29T13:40:44Z</time>
      </trkpt>
      <trkpt lat="42.833852022886276" lon="0.935622984543443">
        <ele>986</ele>
        <time>2026-04-29T13:40:48Z</time>
      </trkpt>
      <trkpt lat="42.833842970430851" lon="0.935943005606532">
        <ele>983</ele>
        <time>2026-04-29T13:41:08Z</time>
      </trkpt>
      <trkpt lat="42.833822015672922" lon="0.936000002548099">
        <ele>983</ele>
        <time>2026-04-29T13:41:12Z</time>
      </trkpt>
      <trkpt lat="42.833750015124679" lon="0.936093963682652">
        <ele>983</ele>
        <time>2026-04-29T13:41:20Z</time>
      </trkpt>
      <trkpt lat="42.83370902761817" lon="0.936113996431232">
        <ele>984</ele>
        <time>2026-04-29T13:41:24Z</time>
      </trkpt>
      <trkpt lat="42.833629986271262" lon="0.936137968674302">
        <ele>984</ele>
        <time>2026-04-29T13:41:32Z</time>
      </trkpt>
      <trkpt lat="42.833467964082956" lon="0.936108967289329">
        <ele>983</ele>
        <time>2026-04-29T13:41:48Z</time>
      </trkpt>
      <trkpt lat="42.83340803347528" lon="0.936123970896006">
        <ele>982</ele>
        <time>2026-04-29T13:41:56Z</time>
      </trkpt>
      <trkpt lat="42.833428988233209" lon="0.936171999201179">
        <ele>981</ele>
        <time>2026-04-29T13:42:02Z</time>
      </trkpt>
      <trkpt lat="42.833383977413177" lon="0.936168981716037">
        <ele>980</ele>
        <time>2026-04-29T13:42:08Z</time>
      </trkpt>
      <trkpt lat="42.833341984078288" lon="0.936190020292997">
        <ele>977</ele>
        <time>2026-04-29T13:42:14Z</time>
      </trkpt>
      <trkpt lat="42.833262020722032" lon="0.93628297559917">
        <ele>975</ele>
        <time>2026-04-29T13:42:26Z</time>
      </trkpt>
      <trkpt lat="42.83315397799015" lon="0.936356987804174">
        <ele>971</ele>
        <time>2026-04-29T13:42:38Z</time>
      </trkpt>
      <trkpt lat="42.833051970228553" lon="0.936456983909011">
        <ele>972</ele>
        <time>2026-04-29T13:42:50Z</time>
      </trkpt>
      <trkpt lat="42.833016011863947" lon="0.936495959758759">
        <ele>971</ele>
        <time>2026-04-29T13:42:54Z</time>
      </trkpt>
      <trkpt lat="42.832974018529058" lon="0.936529990285635">
        <ele>970</ele>
        <time>2026-04-29T13:42:58Z</time>
      </trkpt>
      <trkpt lat="42.832924984395504" lon="0.936601990833879">
        <ele>968</ele>
        <time>2026-04-29T13:43:06Z</time>
      </trkpt>
      <trkpt lat="42.832780983299017" lon="0.936783961951733">
        <ele>967</ele>
        <time>2026-04-29T13:43:26Z</time>
      </trkpt>
      <trkpt lat="42.832717029377818" lon="0.936869960278273">
        <ele>966</ele>
        <time>2026-04-29T13:43:38Z</time>
      </trkpt>
      <trkpt lat="42.8327870182693" lon="0.936981020495296">
        <ele>962</ele>
        <time>2026-04-29T13:44:02Z</time>
      </trkpt>
      <trkpt lat="42.832727003842592" lon="0.937071964144707">
        <ele>958</ele>
        <time>2026-04-29T13:44:12Z</time>
      </trkpt>
      <trkpt lat="42.832703031599522" lon="0.937190987169743">
        <ele>955</ele>
        <time>2026-04-29T13:44:30Z</time>
      </trkpt>
      <trkpt lat="42.832802021875978" lon="0.937226023525">
        <ele>953</ele>
        <time>2026-04-29T13:44:48Z</time>
      </trkpt>
      <trkpt lat="42.83285197801888" lon="0.937344962731004">
        <ele>943</ele>
        <time>2026-04-29T13:45:18Z</time>
      </trkpt>
      <trkpt lat="42.832905035465956" lon="0.937483012676239">
        <ele>938</ele>
        <time>2026-04-29T13:45:38Z</time>
      </trkpt>
      <trkpt lat="42.832955997437239" lon="0.93761301599443">
        <ele>936</ele>
        <time>2026-04-29T13:45:48Z</time>
      </trkpt>
    </trkseg>
  </trk>

</gpx>